<?xml version='1.0' encoding='UTF-8'?><gpx version="1.1" creator="JPX - https://github.com/jenetics/jpx" xmlns="http://www.topografix.com/GPX/1/1"><trk><trkseg><trkpt lat="42.8372288" lon="13.6162467"><ele>153.0</ele><time>2026-04-18T08:42:23.889Z</time></trkpt><trkpt lat="42.8372878" lon="13.6159665"><ele>154.0</ele><time>2026-04-18T08:42:24.868Z</time></trkpt><trkpt lat="42.8373484" lon="13.6156885"><ele>155.0</ele><time>2026-04-18T08:42:25.866Z</time></trkpt><trkpt lat="42.8374055" lon="13.615405"><ele>157.0</ele><time>2026-04-18T08:42:26.876Z</time></trkpt><trkpt lat="42.8374639" lon="13.6151208"><ele>159.0</ele><time>2026-04-18T08:42:27.877Z</time></trkpt><trkpt lat="42.8375258" lon="13.6148375"><ele>161.0</ele><time>2026-04-18T08:42:28.876Z</time></trkpt><trkpt lat="42.8375862" lon="13.6145598"><ele>159.66666666666666</ele><time>2026-04-18T08:42:29.876Z</time></trkpt><trkpt lat="42.8376453" lon="13.6142776"><ele>158.33333333333334</ele><time>2026-04-18T08:42:30.876Z</time></trkpt><trkpt lat="42.837703" lon="13.6139934"><ele>157.0</ele><time>2026-04-18T08:42:31.876Z</time></trkpt><trkpt lat="42.8377613" lon="13.6137012"><ele>158.0</ele><time>2026-04-18T08:42:32.876Z</time></trkpt><trkpt lat="42.8378231" lon="13.6134065"><ele>159.0</ele><time>2026-04-18T08:42:33.876Z</time></trkpt><trkpt lat="42.837884" lon="13.613115"><ele>160.0</ele><time>2026-04-18T08:42:34.876Z</time></trkpt><trkpt lat="42.8379454" lon="13.6128265"><ele>161.0</ele><time>2026-04-18T08:42:35.876Z</time></trkpt><trkpt lat="42.8380067" lon="13.6125466"><ele>162.0</ele><time>2026-04-18T08:42:36.876Z</time></trkpt><trkpt lat="42.8380687" lon="13.6122694"><ele>163.0</ele><time>2026-04-18T08:42:37.876Z</time></trkpt><trkpt lat="42.8381187" lon="13.6119795"><ele>163.66666666666669</ele><time>2026-04-18T08:42:38.876Z</time></trkpt><trkpt lat="42.838179" lon="13.6116882"><ele>164.33333333333334</ele><time>2026-04-18T08:42:39.876Z</time></trkpt><trkpt lat="42.8382395" lon="13.6114051"><ele>165.0</ele><time>2026-04-18T08:42:40.876Z</time></trkpt><trkpt lat="42.8382983" lon="13.6111245"><ele>166.0</ele><time>2026-04-18T08:42:41.876Z</time></trkpt><trkpt lat="42.8383546" lon="13.6108488"><ele>167.0</ele><time>2026-04-18T08:42:42.876Z</time></trkpt><trkpt lat="42.838413" lon="13.6105704"><ele>168.0</ele><time>2026-04-18T08:42:43.876Z</time></trkpt><trkpt lat="42.8384685" lon="13.6102957"><ele>168.66666666666666</ele><time>2026-04-18T08:42:44.875Z</time></trkpt><trkpt lat="42.8385265" lon="13.6100248"><ele>169.33333333333331</ele><time>2026-04-18T08:42:45.876Z</time></trkpt><trkpt lat="42.8385829" lon="13.609759"><ele>170.0</ele><time>2026-04-18T08:42:46.876Z</time></trkpt><trkpt lat="42.8386398" lon="13.6094942"><ele>171.0</ele><time>2026-04-18T08:42:47.875Z</time></trkpt><trkpt lat="42.8386966" lon="13.6092283"><ele>172.0</ele><time>2026-04-18T08:42:48.876Z</time></trkpt><trkpt lat="42.8387549" lon="13.6089678"><ele>173.0</ele><time>2026-04-18T08:42:49.876Z</time></trkpt><trkpt lat="42.8388118" lon="13.60871"><ele>174.66666666666666</ele><time>2026-04-18T08:42:50.876Z</time></trkpt><trkpt lat="42.8388741" lon="13.6084561"><ele>176.33333333333334</ele><time>2026-04-18T08:42:51.876Z</time></trkpt><trkpt lat="42.8389394" lon="13.6082091"><ele>178.0</ele><time>2026-04-18T08:42:52.876Z</time></trkpt><trkpt lat="42.8390051" lon="13.6079647"><ele>179.33333333333334</ele><time>2026-04-18T08:42:53.876Z</time></trkpt><trkpt lat="42.8390718" lon="13.6077153"><ele>180.66666666666666</ele><time>2026-04-18T08:42:54.876Z</time></trkpt><trkpt lat="42.8391434" lon="13.6074676"><ele>182.0</ele><time>2026-04-18T08:42:55.876Z</time></trkpt><trkpt lat="42.8392154" lon="13.6072168"><ele>181.66666666666666</ele><time>2026-04-18T08:42:56.875Z</time></trkpt><trkpt lat="42.8392876" lon="13.6069648"><ele>181.33333333333334</ele><time>2026-04-18T08:42:57.876Z</time></trkpt><trkpt lat="42.8393647" lon="13.6067106"><ele>181.0</ele><time>2026-04-18T08:42:58.876Z</time></trkpt><trkpt lat="42.8394467" lon="13.6064439"><ele>181.0</ele><time>2026-04-18T08:42:59.876Z</time></trkpt><trkpt lat="42.8395296" lon="13.6061727"><ele>181.0</ele><time>2026-04-18T08:43:00.876Z</time></trkpt><trkpt lat="42.8396116" lon="13.6059057"><ele>181.0</ele><time>2026-04-18T08:43:01.876Z</time></trkpt><trkpt lat="42.8396921" lon="13.6056487"><ele>182.33333333333334</ele><time>2026-04-18T08:43:02.876Z</time></trkpt><trkpt lat="42.8397685" lon="13.6053991"><ele>183.66666666666666</ele><time>2026-04-18T08:43:03.876Z</time></trkpt><trkpt lat="42.8398422" lon="13.6051531"><ele>185.0</ele><time>2026-04-18T08:43:04.876Z</time></trkpt><trkpt lat="42.8399219" lon="13.6049054"><ele>186.33333333333331</ele><time>2026-04-18T08:43:05.876Z</time></trkpt><trkpt lat="42.8400005" lon="13.6046629"><ele>187.66666666666666</ele><time>2026-04-18T08:43:06.876Z</time></trkpt><trkpt lat="42.8400771" lon="13.6044216"><ele>189.0</ele><time>2026-04-18T08:43:07.876Z</time></trkpt><trkpt lat="42.8401523" lon="13.6041795"><ele>191.0</ele><time>2026-04-18T08:43:08.875Z</time></trkpt><trkpt lat="42.8402301" lon="13.6039427"><ele>193.0</ele><time>2026-04-18T08:43:09.876Z</time></trkpt><trkpt lat="42.8403115" lon="13.6036983"><ele>195.0</ele><time>2026-04-18T08:43:10.875Z</time></trkpt><trkpt lat="42.8403998" lon="13.6034442"><ele>195.33333333333331</ele><time>2026-04-18T08:43:11.875Z</time></trkpt><trkpt lat="42.8404917" lon="13.6031837"><ele>195.66666666666666</ele><time>2026-04-18T08:43:12.876Z</time></trkpt><trkpt lat="42.8405795" lon="13.6029447"><ele>196.0</ele><time>2026-04-18T08:43:13.876Z</time></trkpt><trkpt lat="42.8406665" lon="13.6027195"><ele>196.33333333333331</ele><time>2026-04-18T08:43:14.876Z</time></trkpt><trkpt lat="42.8407494" lon="13.6024989"><ele>196.66666666666669</ele><time>2026-04-18T08:43:15.876Z</time></trkpt><trkpt lat="42.8408426" lon="13.6022526"><ele>197.0</ele><time>2026-04-18T08:43:16.876Z</time></trkpt><trkpt lat="42.840942" lon="13.6020014"><ele>199.0</ele><time>2026-04-18T08:43:17.876Z</time></trkpt><trkpt lat="42.8410559" lon="13.6017527"><ele>201.0</ele><time>2026-04-18T08:43:18.876Z</time></trkpt><trkpt lat="42.8411686" lon="13.6015019"><ele>203.0</ele><time>2026-04-18T08:43:19.876Z</time></trkpt><trkpt lat="42.8412838" lon="13.6012547"><ele>203.66666666666669</ele><time>2026-04-18T08:43:20.876Z</time></trkpt><trkpt lat="42.8414" lon="13.601014"><ele>204.33333333333331</ele><time>2026-04-18T08:43:21.876Z</time></trkpt><trkpt lat="42.8415165" lon="13.6007799"><ele>205.0</ele><time>2026-04-18T08:43:22.876Z</time></trkpt><trkpt lat="42.8416341" lon="13.6005562"><ele>205.0</ele><time>2026-04-18T08:43:23.875Z</time></trkpt><trkpt lat="42.8417551" lon="13.6003352"><ele>205.0</ele><time>2026-04-18T08:43:24.876Z</time></trkpt><trkpt lat="42.8418778" lon="13.6001186"><ele>205.0</ele><time>2026-04-18T08:43:25.876Z</time></trkpt><trkpt lat="42.8420039" lon="13.5999028"><ele>205.0</ele><time>2026-04-18T08:43:26.876Z</time></trkpt><trkpt lat="42.842128" lon="13.5996925"><ele>205.0</ele><time>2026-04-18T08:43:27.876Z</time></trkpt><trkpt lat="42.8422666" lon="13.5994921"><ele>205.0</ele><time>2026-04-18T08:43:28.876Z</time></trkpt><trkpt lat="42.8424009" lon="13.5992878"><ele>206.0</ele><time>2026-04-18T08:43:29.876Z</time></trkpt><trkpt lat="42.8425379" lon="13.5990801"><ele>207.0</ele><time>2026-04-18T08:43:30.876Z</time></trkpt><trkpt lat="42.8426888" lon="13.5988645"><ele>208.0</ele><time>2026-04-18T08:43:31.876Z</time></trkpt><trkpt lat="42.842854" lon="13.5986305"><ele>208.0</ele><time>2026-04-18T08:43:32.876Z</time></trkpt><trkpt lat="42.8430329" lon="13.5983817"><ele>208.0</ele><time>2026-04-18T08:43:33.876Z</time></trkpt><trkpt lat="42.8432313" lon="13.5981328"><ele>208.0</ele><time>2026-04-18T08:43:34.876Z</time></trkpt><trkpt lat="42.8434482" lon="13.5978879"><ele>208.0</ele><time>2026-04-18T08:43:35.876Z</time></trkpt><trkpt lat="42.8436745" lon="13.5976388"><ele>201.0</ele><time>2026-04-18T08:43:36.876Z</time></trkpt><trkpt lat="42.8439183" lon="13.5973786"><ele>194.0</ele><time>2026-04-18T08:43:37.876Z</time></trkpt><trkpt lat="42.8441546" lon="13.5971125"><ele>193.0</ele><time>2026-04-18T08:43:38.876Z</time></trkpt><trkpt lat="42.8443876" lon="13.5968354"><ele>192.0</ele><time>2026-04-18T08:43:39.876Z</time></trkpt><trkpt lat="42.8446143" lon="13.596545"><ele>192.0</ele><time>2026-04-18T08:43:40.876Z</time></trkpt><trkpt lat="42.8448272" lon="13.5962375"><ele>192.0</ele><time>2026-04-18T08:43:41.875Z</time></trkpt><trkpt lat="42.8450324" lon="13.5959028"><ele>191.5</ele><time>2026-04-18T08:43:42.876Z</time></trkpt><trkpt lat="42.8452324" lon="13.5955482"><ele>191.0</ele><time>2026-04-18T08:43:43.876Z</time></trkpt><trkpt lat="42.8454219" lon="13.595189"><ele>194.5</ele><time>2026-04-18T08:43:44.875Z</time></trkpt><trkpt lat="42.8456001" lon="13.5948191"><ele>198.0</ele><time>2026-04-18T08:43:45.875Z</time></trkpt><trkpt lat="42.8457694" lon="13.5944398"><ele>199.0</ele><time>2026-04-18T08:43:46.875Z</time></trkpt><trkpt lat="42.8459255" lon="13.5940454"><ele>200.0</ele><time>2026-04-18T08:43:47.876Z</time></trkpt><trkpt lat="42.8460667" lon="13.5936424"><ele>196.0</ele><time>2026-04-18T08:43:48.876Z</time></trkpt><trkpt lat="42.8461941" lon="13.5932395"><ele>192.0</ele><time>2026-04-18T08:43:49.876Z</time></trkpt><trkpt lat="42.8463122" lon="13.5928421"><ele>195.0</ele><time>2026-04-18T08:43:50.876Z</time></trkpt><trkpt lat="42.8464103" lon="13.592443"><ele>198.0</ele><time>2026-04-18T08:43:51.876Z</time></trkpt><trkpt lat="42.8464902" lon="13.5920458"><ele>199.5</ele><time>2026-04-18T08:43:52.875Z</time></trkpt><trkpt lat="42.8465496" lon="13.5916476"><ele>201.0</ele><time>2026-04-18T08:43:53.876Z</time></trkpt><trkpt lat="42.8465845" lon="13.5912595"><ele>199.0</ele><time>2026-04-18T08:43:54.876Z</time></trkpt><trkpt lat="42.8466014" lon="13.5908846"><ele>197.0</ele><time>2026-04-18T08:43:55.876Z</time></trkpt><trkpt lat="42.8466142" lon="13.5905159"><ele>196.0</ele><time>2026-04-18T08:43:56.876Z</time></trkpt><trkpt lat="42.84662" lon="13.5901416"><ele>195.0</ele><time>2026-04-18T08:43:57.876Z</time></trkpt><trkpt lat="42.8466229" lon="13.5897661"><ele>194.0</ele><time>2026-04-18T08:43:58.876Z</time></trkpt><trkpt lat="42.8466241" lon="13.5893917"><ele>193.0</ele><time>2026-04-18T08:43:59.876Z</time></trkpt><trkpt lat="42.8466264" lon="13.5890225"><ele>192.0</ele><time>2026-04-18T08:44:00.876Z</time></trkpt><trkpt lat="42.8466334" lon="13.5886625"><ele>191.0</ele><time>2026-04-18T08:44:01.875Z</time></trkpt><trkpt lat="42.8466447" lon="13.5882979"><ele>191.0</ele><time>2026-04-18T08:44:02.876Z</time></trkpt><trkpt lat="42.8466631" lon="13.5879029"><ele>191.0</ele><time>2026-04-18T08:44:03.876Z</time></trkpt><trkpt lat="42.8466895" lon="13.5875109"><ele>192.0</ele><time>2026-04-18T08:44:04.875Z</time></trkpt><trkpt lat="42.8467233" lon="13.5871303"><ele>193.0</ele><time>2026-04-18T08:44:05.875Z</time></trkpt><trkpt lat="42.846764" lon="13.5867509"><ele>191.5</ele><time>2026-04-18T08:44:06.876Z</time></trkpt><trkpt lat="42.84681" lon="13.5863789"><ele>190.0</ele><time>2026-04-18T08:44:07.876Z</time></trkpt><trkpt lat="42.8468672" lon="13.5860206"><ele>190.0</ele><time>2026-04-18T08:44:08.876Z</time></trkpt><trkpt lat="42.846934" lon="13.585667"><ele>190.0</ele><time>2026-04-18T08:44:09.876Z</time></trkpt><trkpt lat="42.8470016" lon="13.5853117"><ele>191.0</ele><time>2026-04-18T08:44:10.876Z</time></trkpt><trkpt lat="42.8470849" lon="13.5849633"><ele>192.0</ele><time>2026-04-18T08:44:11.876Z</time></trkpt><trkpt lat="42.8471791" lon="13.5846206"><ele>193.0</ele><time>2026-04-18T08:44:12.876Z</time></trkpt><trkpt lat="42.8472826" lon="13.5842924"><ele>194.0</ele><time>2026-04-18T08:44:13.876Z</time></trkpt><trkpt lat="42.8473941" lon="13.5839694"><ele>194.5</ele><time>2026-04-18T08:44:14.876Z</time></trkpt><trkpt lat="42.8475125" lon="13.5836474"><ele>195.0</ele><time>2026-04-18T08:44:15.876Z</time></trkpt><trkpt lat="42.8476328" lon="13.5833307"><ele>193.0</ele><time>2026-04-18T08:44:16.876Z</time></trkpt><trkpt lat="42.8477548" lon="13.5830236"><ele>191.0</ele><time>2026-04-18T08:44:17.876Z</time></trkpt><trkpt lat="42.8478773" lon="13.5827228"><ele>191.0</ele><time>2026-04-18T08:44:18.876Z</time></trkpt><trkpt lat="42.8480029" lon="13.5824242"><ele>191.0</ele><time>2026-04-18T08:44:19.876Z</time></trkpt><trkpt lat="42.8481226" lon="13.5821301"><ele>197.0</ele><time>2026-04-18T08:44:20.875Z</time></trkpt><trkpt lat="42.848238" lon="13.5818378"><ele>203.0</ele><time>2026-04-18T08:44:21.876Z</time></trkpt><trkpt lat="42.8483469" lon="13.5815436"><ele>203.0</ele><time>2026-04-18T08:44:22.876Z</time></trkpt><trkpt lat="42.8484459" lon="13.58125"><ele>203.0</ele><time>2026-04-18T08:44:23.876Z</time></trkpt><trkpt lat="42.8485289" lon="13.5809641"><ele>201.0</ele><time>2026-04-18T08:44:24.876Z</time></trkpt><trkpt lat="42.8486043" lon="13.5806887"><ele>199.0</ele><time>2026-04-18T08:44:25.876Z</time></trkpt><trkpt lat="42.8486659" lon="13.5804274"><ele>197.0</ele><time>2026-04-18T08:44:26.876Z</time></trkpt><trkpt lat="42.8487228" lon="13.5801693"><ele>197.0</ele><time>2026-04-18T08:44:27.876Z</time></trkpt><trkpt lat="42.8487676" lon="13.5799209"><ele>197.0</ele><time>2026-04-18T08:44:28.876Z</time></trkpt><trkpt lat="42.8488025" lon="13.579678"><ele>197.0</ele><time>2026-04-18T08:44:29.876Z</time></trkpt><trkpt lat="42.8488218" lon="13.5794473"><ele>197.66666666666669</ele><time>2026-04-18T08:44:30.876Z</time></trkpt><trkpt lat="42.8488323" lon="13.5792113"><ele>198.33333333333331</ele><time>2026-04-18T08:44:31.875Z</time></trkpt><trkpt lat="42.8488213" lon="13.5789879"><ele>199.0</ele><time>2026-04-18T08:44:32.875Z</time></trkpt><trkpt lat="42.8488076" lon="13.5787672"><ele>196.33333333333331</ele><time>2026-04-18T08:44:33.875Z</time></trkpt><trkpt lat="42.848782" lon="13.5785511"><ele>193.66666666666666</ele><time>2026-04-18T08:44:34.876Z</time></trkpt><trkpt lat="42.8487474" lon="13.57834"><ele>191.0</ele><time>2026-04-18T08:44:35.876Z</time></trkpt><trkpt lat="42.8487084" lon="13.5781371"><ele>191.0</ele><time>2026-04-18T08:44:36.875Z</time></trkpt><trkpt lat="42.8486584" lon="13.5779304"><ele>191.0</ele><time>2026-04-18T08:44:37.876Z</time></trkpt><trkpt lat="42.8485983" lon="13.5777232"><ele>191.0</ele><time>2026-04-18T08:44:38.876Z</time></trkpt><trkpt lat="42.8485281" lon="13.5775118"><ele>191.0</ele><time>2026-04-18T08:44:39.876Z</time></trkpt><trkpt lat="42.8484525" lon="13.5772972"><ele>191.0</ele><time>2026-04-18T08:44:40.876Z</time></trkpt><trkpt lat="42.8483751" lon="13.5770787"><ele>191.0</ele><time>2026-04-18T08:44:41.876Z</time></trkpt><trkpt lat="42.8483017" lon="13.5768619"><ele>191.0</ele><time>2026-04-18T08:44:42.876Z</time></trkpt><trkpt lat="42.8482233" lon="13.5766416"><ele>191.0</ele><time>2026-04-18T08:44:43.876Z</time></trkpt><trkpt lat="42.8481456" lon="13.5764238"><ele>191.0</ele><time>2026-04-18T08:44:44.876Z</time></trkpt><trkpt lat="42.8480686" lon="13.5762112"><ele>186.0</ele><time>2026-04-18T08:44:45.876Z</time></trkpt><trkpt lat="42.8479935" lon="13.5760034"><ele>181.0</ele><time>2026-04-18T08:44:46.876Z</time></trkpt><trkpt lat="42.847926" lon="13.5758076"><ele>176.0</ele><time>2026-04-18T08:44:47.875Z</time></trkpt><trkpt lat="42.8478715" lon="13.575639"><ele>176.0</ele><time>2026-04-18T08:44:48.876Z</time></trkpt><trkpt lat="42.8478329" lon="13.5754984"><ele>176.0</ele><time>2026-04-18T08:44:49.876Z</time></trkpt><trkpt lat="42.8478145" lon="13.575397"><ele>176.0</ele><time>2026-04-18T08:44:50.875Z</time></trkpt><trkpt lat="42.8478134" lon="13.575225"><ele>176.0</ele><time>2026-04-18T08:44:52.876Z</time></trkpt><trkpt lat="42.8478628" lon="13.5750387"><ele>174.20000000000002</ele><time>2026-04-18T08:44:54.876Z</time></trkpt><trkpt lat="42.8478754" lon="13.5749091"><ele>172.4</ele><time>2026-04-18T08:44:55.876Z</time></trkpt><trkpt lat="42.8478704" lon="13.5747692"><ele>170.6</ele><time>2026-04-18T08:44:56.875Z</time></trkpt><trkpt lat="42.8478516" lon="13.5746093"><ele>168.8</ele><time>2026-04-18T08:44:57.876Z</time></trkpt><trkpt lat="42.8478255" lon="13.574433"><ele>167.0</ele><time>2026-04-18T08:44:58.876Z</time></trkpt><trkpt lat="42.8477948" lon="13.5742432"><ele>167.66666666666666</ele><time>2026-04-18T08:44:59.876Z</time></trkpt><trkpt lat="42.8477696" lon="13.5740389"><ele>168.33333333333334</ele><time>2026-04-18T08:45:00.876Z</time></trkpt><trkpt lat="42.8477648" lon="13.5738235"><ele>169.0</ele><time>2026-04-18T08:45:01.876Z</time></trkpt><trkpt lat="42.8477796" lon="13.5736104"><ele>169.0</ele><time>2026-04-18T08:45:02.876Z</time></trkpt><trkpt lat="42.8478129" lon="13.5733949"><ele>169.0</ele><time>2026-04-18T08:45:03.876Z</time></trkpt><trkpt lat="42.8478527" lon="13.5731801"><ele>169.0</ele><time>2026-04-18T08:45:04.876Z</time></trkpt><trkpt lat="42.8478946" lon="13.5729621"><ele>168.0</ele><time>2026-04-18T08:45:05.876Z</time></trkpt><trkpt lat="42.8479417" lon="13.5727507"><ele>167.0</ele><time>2026-04-18T08:45:06.876Z</time></trkpt><trkpt lat="42.8479878" lon="13.5725406"><ele>166.0</ele><time>2026-04-18T08:45:07.875Z</time></trkpt><trkpt lat="42.8480317" lon="13.5723328"><ele>166.0</ele><time>2026-04-18T08:45:08.876Z</time></trkpt><trkpt lat="42.8480742" lon="13.5721265"><ele>166.0</ele><time>2026-04-18T08:45:09.876Z</time></trkpt><trkpt lat="42.8481158" lon="13.5719221"><ele>166.0</ele><time>2026-04-18T08:45:10.876Z</time></trkpt><trkpt lat="42.8481604" lon="13.5717254"><ele>166.0</ele><time>2026-04-18T08:45:11.876Z</time></trkpt><trkpt lat="42.8482075" lon="13.5715445"><ele>166.0</ele><time>2026-04-18T08:45:12.876Z</time></trkpt><trkpt lat="42.8482555" lon="13.5714002"><ele>166.0</ele><time>2026-04-18T08:45:13.876Z</time></trkpt><trkpt lat="42.8483096" lon="13.5712821"><ele>166.0</ele><time>2026-04-18T08:45:14.876Z</time></trkpt><trkpt lat="42.8483596" lon="13.5711832"><ele>166.0</ele><time>2026-04-18T08:45:15.876Z</time></trkpt><trkpt lat="42.848392" lon="13.5710983"><ele>167.60000000000002</ele><time>2026-04-18T08:45:16.876Z</time></trkpt><trkpt lat="42.8483839" lon="13.5709307"><ele>169.2</ele><time>2026-04-18T08:45:18.876Z</time></trkpt><trkpt lat="42.8483661" lon="13.5708066"><ele>170.8</ele><time>2026-04-18T08:45:19.876Z</time></trkpt><trkpt lat="42.8483587" lon="13.5706543"><ele>172.39999999999998</ele><time>2026-04-18T08:45:20.876Z</time></trkpt><trkpt lat="42.8483462" lon="13.570495"><ele>174.0</ele><time>2026-04-18T08:45:21.876Z</time></trkpt><trkpt lat="42.8483286" lon="13.5703346"><ele>174.5</ele><time>2026-04-18T08:45:22.876Z</time></trkpt><trkpt lat="42.8483022" lon="13.5701641"><ele>175.0</ele><time>2026-04-18T08:45:23.876Z</time></trkpt><trkpt lat="42.8482611" lon="13.5699903"><ele>175.5</ele><time>2026-04-18T08:45:24.876Z</time></trkpt><trkpt lat="42.8482131" lon="13.5698247"><ele>176.0</ele><time>2026-04-18T08:45:25.876Z</time></trkpt><trkpt lat="42.8481563" lon="13.5696765"><ele>176.0</ele><time>2026-04-18T08:45:26.876Z</time></trkpt><trkpt lat="42.8480844" lon="13.5695462"><ele>176.0</ele><time>2026-04-18T08:45:27.876Z</time></trkpt><trkpt lat="42.8479862" lon="13.5694388"><ele>176.0</ele><time>2026-04-18T08:45:28.876Z</time></trkpt><trkpt lat="42.8478781" lon="13.5693484"><ele>176.0</ele><time>2026-04-18T08:45:29.875Z</time></trkpt><trkpt lat="42.8477645" lon="13.569269"><ele>177.25</ele><time>2026-04-18T08:45:30.876Z</time></trkpt><trkpt lat="42.8476492" lon="13.5691867"><ele>178.5</ele><time>2026-04-18T08:45:31.876Z</time></trkpt><trkpt lat="42.8475467" lon="13.569105"><ele>179.75</ele><time>2026-04-18T08:45:32.876Z</time></trkpt><trkpt lat="42.8474303" lon="13.5690133"><ele>181.0</ele><time>2026-04-18T08:45:33.875Z</time></trkpt><trkpt lat="42.8473162" lon="13.56892"><ele>181.0</ele><time>2026-04-18T08:45:34.876Z</time></trkpt><trkpt lat="42.8471838" lon="13.5688037"><ele>181.0</ele><time>2026-04-18T08:45:35.876Z</time></trkpt><trkpt lat="42.8470657" lon="13.5686657"><ele>181.0</ele><time>2026-04-18T08:45:36.876Z</time></trkpt><trkpt lat="42.8469809" lon="13.5684887"><ele>179.0</ele><time>2026-04-18T08:45:37.876Z</time></trkpt><trkpt lat="42.8469039" lon="13.5683036"><ele>177.0</ele><time>2026-04-18T08:45:38.876Z</time></trkpt><trkpt lat="42.8468115" lon="13.5681398"><ele>175.0</ele><time>2026-04-18T08:45:39.876Z</time></trkpt><trkpt lat="42.8467204" lon="13.5680004"><ele>173.0</ele><time>2026-04-18T08:45:40.875Z</time></trkpt><trkpt lat="42.8466464" lon="13.5678618"><ele>176.33333333333331</ele><time>2026-04-18T08:45:41.876Z</time></trkpt><trkpt lat="42.8466376" lon="13.567692"><ele>179.66666666666666</ele><time>2026-04-18T08:45:42.876Z</time></trkpt><trkpt lat="42.8465992" lon="13.5675148"><ele>183.0</ele><time>2026-04-18T08:45:43.876Z</time></trkpt><trkpt lat="42.8465315" lon="13.567267"><ele>183.0</ele><time>2026-04-18T08:45:44.876Z</time></trkpt><trkpt lat="42.8464631" lon="13.5670416"><ele>183.0</ele><time>2026-04-18T08:45:45.876Z</time></trkpt><trkpt lat="42.8463915" lon="13.5668144"><ele>183.0</ele><time>2026-04-18T08:45:46.876Z</time></trkpt><trkpt lat="42.8463176" lon="13.5665876"><ele>181.0</ele><time>2026-04-18T08:45:47.876Z</time></trkpt><trkpt lat="42.8462363" lon="13.5663614"><ele>179.0</ele><time>2026-04-18T08:45:48.876Z</time></trkpt><trkpt lat="42.8461616" lon="13.5661442"><ele>177.0</ele><time>2026-04-18T08:45:49.875Z</time></trkpt><trkpt lat="42.8461079" lon="13.5659193"><ele>176.75</ele><time>2026-04-18T08:45:50.876Z</time></trkpt><trkpt lat="42.8460618" lon="13.5657169"><ele>176.5</ele><time>2026-04-18T08:45:51.875Z</time></trkpt><trkpt lat="42.8460251" lon="13.5655313"><ele>176.25</ele><time>2026-04-18T08:45:52.876Z</time></trkpt><trkpt lat="42.8460045" lon="13.565358"><ele>176.0</ele><time>2026-04-18T08:45:53.876Z</time></trkpt><trkpt lat="42.8460131" lon="13.5651905"><ele>178.0</ele><time>2026-04-18T08:45:54.876Z</time></trkpt><trkpt lat="42.8460485" lon="13.5650193"><ele>180.0</ele><time>2026-04-18T08:45:55.876Z</time></trkpt><trkpt lat="42.8460872" lon="13.5648596"><ele>182.0</ele><time>2026-04-18T08:45:56.876Z</time></trkpt><trkpt lat="42.8461623" lon="13.5647513"><ele>184.0</ele><time>2026-04-18T08:45:57.876Z</time></trkpt><trkpt lat="42.8462251" lon="13.5646288"><ele>186.0</ele><time>2026-04-18T08:45:58.876Z</time></trkpt><trkpt lat="42.8462778" lon="13.5644796"><ele>188.0</ele><time>2026-04-18T08:45:59.876Z</time></trkpt><trkpt lat="42.8462945" lon="13.5643177"><ele>190.0</ele><time>2026-04-18T08:46:00.876Z</time></trkpt><trkpt lat="42.8462744" lon="13.564142"><ele>192.0</ele><time>2026-04-18T08:46:01.875Z</time></trkpt><trkpt lat="42.8462114" lon="13.5639489"><ele>192.0</ele><time>2026-04-18T08:46:02.876Z</time></trkpt><trkpt lat="42.8461102" lon="13.5637554"><ele>192.0</ele><time>2026-04-18T08:46:03.876Z</time></trkpt><trkpt lat="42.8459895" lon="13.5635785"><ele>192.0</ele><time>2026-04-18T08:46:04.875Z</time></trkpt><trkpt lat="42.8458607" lon="13.5633918"><ele>194.33333333333331</ele><time>2026-04-18T08:46:05.876Z</time></trkpt><trkpt lat="42.8457369" lon="13.5632032"><ele>196.66666666666666</ele><time>2026-04-18T08:46:06.876Z</time></trkpt><trkpt lat="42.8456264" lon="13.5630102"><ele>199.0</ele><time>2026-04-18T08:46:07.876Z</time></trkpt><trkpt lat="42.8455368" lon="13.5628284"><ele>199.0</ele><time>2026-04-18T08:46:08.876Z</time></trkpt><trkpt lat="42.845458" lon="13.5626462"><ele>199.0</ele><time>2026-04-18T08:46:09.876Z</time></trkpt><trkpt lat="42.8453763" lon="13.5624755"><ele>199.0</ele><time>2026-04-18T08:46:10.876Z</time></trkpt><trkpt lat="42.8452784" lon="13.562329"><ele>199.0</ele><time>2026-04-18T08:46:11.876Z</time></trkpt><trkpt lat="42.8451577" lon="13.5622175"><ele>199.0</ele><time>2026-04-18T08:46:12.876Z</time></trkpt><trkpt lat="42.8450216" lon="13.5621105"><ele>199.0</ele><time>2026-04-18T08:46:13.876Z</time></trkpt><trkpt lat="42.8448868" lon="13.5620023"><ele>205.0</ele><time>2026-04-18T08:46:14.875Z</time></trkpt><trkpt lat="42.8447541" lon="13.5618731"><ele>211.0</ele><time>2026-04-18T08:46:15.876Z</time></trkpt><trkpt lat="42.8446337" lon="13.5617248"><ele>217.0</ele><time>2026-04-18T08:46:16.875Z</time></trkpt><trkpt lat="42.844517" lon="13.5615567"><ele>217.0</ele><time>2026-04-18T08:46:17.876Z</time></trkpt><trkpt lat="42.8444056" lon="13.5613771"><ele>217.0</ele><time>2026-04-18T08:46:18.876Z</time></trkpt><trkpt lat="42.8442951" lon="13.5611998"><ele>217.0</ele><time>2026-04-18T08:46:19.876Z</time></trkpt><trkpt lat="42.8441909" lon="13.5610294"><ele>219.5</ele><time>2026-04-18T08:46:20.876Z</time></trkpt><trkpt lat="42.8440954" lon="13.5608651"><ele>222.0</ele><time>2026-04-18T08:46:21.876Z</time></trkpt><trkpt lat="42.8440236" lon="13.5606973"><ele>224.5</ele><time>2026-04-18T08:46:22.875Z</time></trkpt><trkpt lat="42.8440006" lon="13.5605293"><ele>227.0</ele><time>2026-04-18T08:46:23.876Z</time></trkpt><trkpt lat="42.8440089" lon="13.5603456"><ele>227.0</ele><time>2026-04-18T08:46:24.875Z</time></trkpt><trkpt lat="42.8440149" lon="13.5601455"><ele>227.0</ele><time>2026-04-18T08:46:25.876Z</time></trkpt><trkpt lat="42.8439804" lon="13.5598767"><ele>227.0</ele><time>2026-04-18T08:46:26.876Z</time></trkpt><trkpt lat="42.8439479" lon="13.5596349"><ele>225.66666666666669</ele><time>2026-04-18T08:46:27.876Z</time></trkpt><trkpt lat="42.8439209" lon="13.5594091"><ele>224.33333333333331</ele><time>2026-04-18T08:46:28.876Z</time></trkpt><trkpt lat="42.8438848" lon="13.559206"><ele>223.0</ele><time>2026-04-18T08:46:29.876Z</time></trkpt><trkpt lat="42.8438383" lon="13.5590186"><ele>223.0</ele><time>2026-04-18T08:46:30.876Z</time></trkpt><trkpt lat="42.8437676" lon="13.558847"><ele>223.0</ele><time>2026-04-18T08:46:31.875Z</time></trkpt><trkpt lat="42.8436675" lon="13.5586827"><ele>223.0</ele><time>2026-04-18T08:46:32.876Z</time></trkpt><trkpt lat="42.8435551" lon="13.5585388"><ele>227.25</ele><time>2026-04-18T08:46:33.876Z</time></trkpt><trkpt lat="42.8434448" lon="13.558423"><ele>231.5</ele><time>2026-04-18T08:46:34.875Z</time></trkpt><trkpt lat="42.8433115" lon="13.558335"><ele>235.75</ele><time>2026-04-18T08:46:35.876Z</time></trkpt><trkpt lat="42.8431701" lon="13.5582876"><ele>240.0</ele><time>2026-04-18T08:46:36.876Z</time></trkpt><trkpt lat="42.8430339" lon="13.5582443"><ele>240.0</ele><time>2026-04-18T08:46:37.876Z</time></trkpt><trkpt lat="42.8429013" lon="13.5582117"><ele>240.0</ele><time>2026-04-18T08:46:38.876Z</time></trkpt><trkpt lat="42.8427884" lon="13.5581478"><ele>240.0</ele><time>2026-04-18T08:46:39.876Z</time></trkpt><trkpt lat="42.8426763" lon="13.5580615"><ele>240.0</ele><time>2026-04-18T08:46:40.876Z</time></trkpt><trkpt lat="42.8425829" lon="13.5579227"><ele>242.66666666666669</ele><time>2026-04-18T08:46:41.876Z</time></trkpt><trkpt lat="42.8424792" lon="13.5577647"><ele>245.33333333333334</ele><time>2026-04-18T08:46:42.876Z</time></trkpt><trkpt lat="42.8423823" lon="13.5576041"><ele>248.0</ele><time>2026-04-18T08:46:43.876Z</time></trkpt><trkpt lat="42.842289" lon="13.5574472"><ele>248.0</ele><time>2026-04-18T08:46:44.876Z</time></trkpt><trkpt lat="42.8421944" lon="13.5573064"><ele>248.0</ele><time>2026-04-18T08:46:45.876Z</time></trkpt><trkpt lat="42.8420922" lon="13.5571915"><ele>248.0</ele><time>2026-04-18T08:46:46.876Z</time></trkpt><trkpt lat="42.8419784" lon="13.5571172"><ele>248.0</ele><time>2026-04-18T08:46:47.876Z</time></trkpt><trkpt lat="42.8418549" lon="13.5570904"><ele>249.0</ele><time>2026-04-18T08:46:48.875Z</time></trkpt><trkpt lat="42.8417121" lon="13.5570492"><ele>250.0</ele><time>2026-04-18T08:46:49.875Z</time></trkpt><trkpt lat="42.8415585" lon="13.55697"><ele>251.0</ele><time>2026-04-18T08:46:50.876Z</time></trkpt><trkpt lat="42.8414093" lon="13.5568543"><ele>251.0</ele><time>2026-04-18T08:46:51.876Z</time></trkpt><trkpt lat="42.8412733" lon="13.5567207"><ele>251.0</ele><time>2026-04-18T08:46:52.876Z</time></trkpt><trkpt lat="42.8411483" lon="13.556601"><ele>251.0</ele><time>2026-04-18T08:46:53.876Z</time></trkpt><trkpt lat="42.8410328" lon="13.5564947"><ele>254.4</ele><time>2026-04-18T08:46:54.876Z</time></trkpt><trkpt lat="42.8409282" lon="13.5563993"><ele>257.8</ele><time>2026-04-18T08:46:55.876Z</time></trkpt><trkpt lat="42.8408293" lon="13.5563221"><ele>261.20000000000005</ele><time>2026-04-18T08:46:56.876Z</time></trkpt><trkpt lat="42.8407374" lon="13.5562792"><ele>264.6</ele><time>2026-04-18T08:46:57.876Z</time></trkpt><trkpt lat="42.8406543" lon="13.5562856"><ele>268.0</ele><time>2026-04-18T08:46:58.876Z</time></trkpt><trkpt lat="42.8405902" lon="13.5563329"><ele>268.0</ele><time>2026-04-18T08:46:59.876Z</time></trkpt><trkpt lat="42.8405596" lon="13.5564223"><ele>268.0</ele><time>2026-04-18T08:47:00.876Z</time></trkpt><trkpt lat="42.8405708" lon="13.5565213"><ele>268.0</ele><time>2026-04-18T08:47:01.876Z</time></trkpt><trkpt lat="42.8406243" lon="13.5566264"><ele>268.0</ele><time>2026-04-18T08:47:02.876Z</time></trkpt><trkpt lat="42.8407213" lon="13.5567438"><ele>268.0</ele><time>2026-04-18T08:47:03.875Z</time></trkpt><trkpt lat="42.8408372" lon="13.5568726"><ele>268.0</ele><time>2026-04-18T08:47:04.876Z</time></trkpt><trkpt lat="42.8409653" lon="13.5570192"><ele>268.0</ele><time>2026-04-18T08:47:05.876Z</time></trkpt><trkpt lat="42.8410934" lon="13.5571684"><ele>268.0</ele><time>2026-04-18T08:47:06.876Z</time></trkpt><trkpt lat="42.8412236" lon="13.5572951"><ele>269.5</ele><time>2026-04-18T08:47:07.876Z</time></trkpt><trkpt lat="42.8413547" lon="13.557421"><ele>271.0</ele><time>2026-04-18T08:47:08.875Z</time></trkpt><trkpt lat="42.8414817" lon="13.557436"><ele>272.5</ele><time>2026-04-18T08:47:09.876Z</time></trkpt><trkpt lat="42.8415942" lon="13.5574757"><ele>274.0</ele><time>2026-04-18T08:47:10.876Z</time></trkpt><trkpt lat="42.8416903" lon="13.5575165"><ele>274.0</ele><time>2026-04-18T08:47:11.876Z</time></trkpt><trkpt lat="42.8417573" lon="13.5575697"><ele>274.0</ele><time>2026-04-18T08:47:12.876Z</time></trkpt><trkpt lat="42.8417653" lon="13.5576929"><ele>274.0</ele><time>2026-04-18T08:47:14.876Z</time></trkpt><trkpt lat="42.8416195" lon="13.5577195"><ele>274.0</ele><time>2026-04-18T08:47:16.876Z</time></trkpt><trkpt lat="42.8414828" lon="13.5576765"><ele>274.0</ele><time>2026-04-18T08:47:17.876Z</time></trkpt><trkpt lat="42.8413305" lon="13.5576341"><ele>274.0</ele><time>2026-04-18T08:47:18.876Z</time></trkpt><trkpt lat="42.8411704" lon="13.5575972"><ele>274.0</ele><time>2026-04-18T08:47:19.876Z</time></trkpt><trkpt lat="42.8410162" lon="13.5575641"><ele>276.75</ele><time>2026-04-18T08:47:20.875Z</time></trkpt><trkpt lat="42.8408646" lon="13.5575308"><ele>279.5</ele><time>2026-04-18T08:47:21.876Z</time></trkpt><trkpt lat="42.8407198" lon="13.5574995"><ele>282.25</ele><time>2026-04-18T08:47:22.876Z</time></trkpt><trkpt lat="42.8405879" lon="13.5574549"><ele>285.0</ele><time>2026-04-18T08:47:23.876Z</time></trkpt><trkpt lat="42.8404661" lon="13.5573967"><ele>285.0</ele><time>2026-04-18T08:47:24.876Z</time></trkpt><trkpt lat="42.8403564" lon="13.5573176"><ele>285.0</ele><time>2026-04-18T08:47:25.876Z</time></trkpt><trkpt lat="42.840248" lon="13.5572413"><ele>285.0</ele><time>2026-04-18T08:47:26.876Z</time></trkpt><trkpt lat="42.8401635" lon="13.557124"><ele>285.0</ele><time>2026-04-18T08:47:27.876Z</time></trkpt><trkpt lat="42.8400745" lon="13.5569686"><ele>286.6666666666667</ele><time>2026-04-18T08:47:28.876Z</time></trkpt><trkpt lat="42.8399891" lon="13.5567843"><ele>288.33333333333337</ele><time>2026-04-18T08:47:29.876Z</time></trkpt><trkpt lat="42.8398976" lon="13.5566012"><ele>290.0</ele><time>2026-04-18T08:47:30.876Z</time></trkpt><trkpt lat="42.839807" lon="13.5564162"><ele>290.0</ele><time>2026-04-18T08:47:31.876Z</time></trkpt><trkpt lat="42.8397217" lon="13.5562246"><ele>290.0</ele><time>2026-04-18T08:47:32.876Z</time></trkpt><trkpt lat="42.8396438" lon="13.5560308"><ele>290.0</ele><time>2026-04-18T08:47:33.875Z</time></trkpt><trkpt lat="42.8395631" lon="13.555847"><ele>287.5</ele><time>2026-04-18T08:47:34.876Z</time></trkpt><trkpt lat="42.8394689" lon="13.5557058"><ele>285.0</ele><time>2026-04-18T08:47:35.876Z</time></trkpt><trkpt lat="42.8393448" lon="13.555604"><ele>282.5</ele><time>2026-04-18T08:47:36.876Z</time></trkpt><trkpt lat="42.8391944" lon="13.5555312"><ele>280.0</ele><time>2026-04-18T08:47:37.875Z</time></trkpt><trkpt lat="42.8390263" lon="13.5554908"><ele>288.3333333333333</ele><time>2026-04-18T08:47:38.876Z</time></trkpt><trkpt lat="42.8388582" lon="13.5554725"><ele>296.6666666666667</ele><time>2026-04-18T08:47:39.876Z</time></trkpt><trkpt lat="42.8386602" lon="13.5554498"><ele>305.0</ele><time>2026-04-18T08:47:40.876Z</time></trkpt><trkpt lat="42.8384753" lon="13.5554091"><ele>310.6666666666667</ele><time>2026-04-18T08:47:41.876Z</time></trkpt><trkpt lat="42.8383059" lon="13.5553758"><ele>316.3333333333333</ele><time>2026-04-18T08:47:42.876Z</time></trkpt><trkpt lat="42.8381537" lon="13.555383"><ele>322.0</ele><time>2026-04-18T08:47:43.876Z</time></trkpt><trkpt lat="42.8380174" lon="13.5554356"><ele>322.0</ele><time>2026-04-18T08:47:44.876Z</time></trkpt><trkpt lat="42.8378669" lon="13.5555331"><ele>322.0</ele><time>2026-04-18T08:47:45.876Z</time></trkpt><trkpt lat="42.8377114" lon="13.5556408"><ele>322.0</ele><time>2026-04-18T08:47:46.876Z</time></trkpt><trkpt lat="42.8375444" lon="13.5557455"><ele>319.3333333333333</ele><time>2026-04-18T08:47:47.875Z</time></trkpt><trkpt lat="42.8373715" lon="13.5558398"><ele>316.6666666666667</ele><time>2026-04-18T08:47:48.876Z</time></trkpt><trkpt lat="42.8371992" lon="13.5559187"><ele>314.0</ele><time>2026-04-18T08:47:49.875Z</time></trkpt><trkpt lat="42.8370332" lon="13.5560001"><ele>314.0</ele><time>2026-04-18T08:47:50.876Z</time></trkpt><trkpt lat="42.8368696" lon="13.5561045"><ele>314.0</ele><time>2026-04-18T08:47:51.876Z</time></trkpt><trkpt lat="42.8367288" lon="13.5562354"><ele>314.0</ele><time>2026-04-18T08:47:52.876Z</time></trkpt><trkpt lat="42.8365915" lon="13.5563609"><ele>320.6666666666667</ele><time>2026-04-18T08:47:53.875Z</time></trkpt><trkpt lat="42.836445" lon="13.5564748"><ele>327.3333333333333</ele><time>2026-04-18T08:47:54.875Z</time></trkpt><trkpt lat="42.8362887" lon="13.5565571"><ele>334.0</ele><time>2026-04-18T08:47:55.876Z</time></trkpt><trkpt lat="42.8361125" lon="13.5566268"><ele>332.3333333333333</ele><time>2026-04-18T08:47:56.876Z</time></trkpt><trkpt lat="42.8359408" lon="13.5566803"><ele>330.6666666666667</ele><time>2026-04-18T08:47:57.876Z</time></trkpt><trkpt lat="42.8357711" lon="13.5567333"><ele>329.0</ele><time>2026-04-18T08:47:58.876Z</time></trkpt><trkpt lat="42.8355997" lon="13.5567821"><ele>329.0</ele><time>2026-04-18T08:47:59.876Z</time></trkpt><trkpt lat="42.8354236" lon="13.5568336"><ele>329.0</ele><time>2026-04-18T08:48:00.876Z</time></trkpt><trkpt lat="42.8352377" lon="13.5568828"><ele>329.0</ele><time>2026-04-18T08:48:01.876Z</time></trkpt><trkpt lat="42.8350531" lon="13.5569221"><ele>330.75</ele><time>2026-04-18T08:48:02.876Z</time></trkpt><trkpt lat="42.834883" lon="13.5569451"><ele>332.5</ele><time>2026-04-18T08:48:03.876Z</time></trkpt><trkpt lat="42.8347363" lon="13.556964"><ele>334.25</ele><time>2026-04-18T08:48:04.876Z</time></trkpt><trkpt lat="42.8346086" lon="13.5569665"><ele>336.0</ele><time>2026-04-18T08:48:05.876Z</time></trkpt><trkpt lat="42.834498" lon="13.5569586"><ele>336.0</ele><time>2026-04-18T08:48:06.875Z</time></trkpt><trkpt lat="42.8343956" lon="13.5569457"><ele>336.0</ele><time>2026-04-18T08:48:07.876Z</time></trkpt><trkpt lat="42.8342615" lon="13.5569266"><ele>336.0</ele><time>2026-04-18T08:48:08.876Z</time></trkpt><trkpt lat="42.8341098" lon="13.5568873"><ele>336.0</ele><time>2026-04-18T08:48:09.876Z</time></trkpt><trkpt lat="42.8339291" lon="13.5568844"><ele>335.6666666666667</ele><time>2026-04-18T08:48:10.875Z</time></trkpt><trkpt lat="42.8337479" lon="13.5569026"><ele>335.33333333333337</ele><time>2026-04-18T08:48:11.876Z</time></trkpt><trkpt lat="42.8335497" lon="13.5569211"><ele>335.0</ele><time>2026-04-18T08:48:12.876Z</time></trkpt><trkpt lat="42.8333471" lon="13.5568988"><ele>334.6666666666667</ele><time>2026-04-18T08:48:13.876Z</time></trkpt><trkpt lat="42.833145" lon="13.5568453"><ele>334.3333333333333</ele><time>2026-04-18T08:48:14.875Z</time></trkpt><trkpt lat="42.8329472" lon="13.5567396"><ele>334.0</ele><time>2026-04-18T08:48:15.876Z</time></trkpt><trkpt lat="42.8327394" lon="13.5565961"><ele>337.3333333333333</ele><time>2026-04-18T08:48:16.876Z</time></trkpt><trkpt lat="42.8325663" lon="13.556449"><ele>340.6666666666667</ele><time>2026-04-18T08:48:17.876Z</time></trkpt><trkpt lat="42.8324014" lon="13.5563312"><ele>344.0</ele><time>2026-04-18T08:48:18.876Z</time></trkpt><trkpt lat="42.832226" lon="13.5562574"><ele>340.0</ele><time>2026-04-18T08:48:19.876Z</time></trkpt><trkpt lat="42.8320463" lon="13.5561937"><ele>336.0</ele><time>2026-04-18T08:48:20.876Z</time></trkpt><trkpt lat="42.8318332" lon="13.556164"><ele>332.0</ele><time>2026-04-18T08:48:21.875Z</time></trkpt><trkpt lat="42.8316312" lon="13.5561292"><ele>332.0</ele><time>2026-04-18T08:48:22.876Z</time></trkpt><trkpt lat="42.8314335" lon="13.5560434"><ele>332.0</ele><time>2026-04-18T08:48:23.876Z</time></trkpt><trkpt lat="42.8312145" lon="13.5559098"><ele>332.0</ele><time>2026-04-18T08:48:24.876Z</time></trkpt><trkpt lat="42.8309861" lon="13.5557766"><ele>337.0</ele><time>2026-04-18T08:48:25.876Z</time></trkpt><trkpt lat="42.8307493" lon="13.5556841"><ele>342.0</ele><time>2026-04-18T08:48:26.876Z</time></trkpt><trkpt lat="42.8305287" lon="13.5556225"><ele>342.0</ele><time>2026-04-18T08:48:27.875Z</time></trkpt><trkpt lat="42.8303209" lon="13.5555764"><ele>342.0</ele><time>2026-04-18T08:48:28.876Z</time></trkpt><trkpt lat="42.8301318" lon="13.5555202"><ele>342.0</ele><time>2026-04-18T08:48:29.876Z</time></trkpt><trkpt lat="42.8299679" lon="13.5554563"><ele>338.0</ele><time>2026-04-18T08:48:30.876Z</time></trkpt><trkpt lat="42.8298214" lon="13.555377"><ele>334.0</ele><time>2026-04-18T08:48:31.876Z</time></trkpt><trkpt lat="42.8296781" lon="13.5552988"><ele>330.0</ele><time>2026-04-18T08:48:32.875Z</time></trkpt><trkpt lat="42.8295607" lon="13.5551901"><ele>330.0</ele><time>2026-04-18T08:48:33.876Z</time></trkpt><trkpt lat="42.8294431" lon="13.5550774"><ele>330.0</ele><time>2026-04-18T08:48:34.876Z</time></trkpt><trkpt lat="42.8293269" lon="13.5549612"><ele>330.0</ele><time>2026-04-18T08:48:35.876Z</time></trkpt><trkpt lat="42.8291984" lon="13.554867"><ele>330.0</ele><time>2026-04-18T08:48:36.876Z</time></trkpt><trkpt lat="42.8290745" lon="13.5547832"><ele>336.6666666666667</ele><time>2026-04-18T08:48:37.876Z</time></trkpt><trkpt lat="42.8289091" lon="13.5547574"><ele>343.33333333333337</ele><time>2026-04-18T08:48:38.876Z</time></trkpt><trkpt lat="42.8287637" lon="13.5547166"><ele>350.0</ele><time>2026-04-18T08:48:39.876Z</time></trkpt><trkpt lat="42.8286281" lon="13.5546835"><ele>350.0</ele><time>2026-04-18T08:48:40.876Z</time></trkpt><trkpt lat="42.8284945" lon="13.5546666"><ele>350.0</ele><time>2026-04-18T08:48:41.875Z</time></trkpt><trkpt lat="42.828375" lon="13.5546903"><ele>350.0</ele><time>2026-04-18T08:48:42.876Z</time></trkpt><trkpt lat="42.8282524" lon="13.5547434"><ele>350.0</ele><time>2026-04-18T08:48:43.876Z</time></trkpt><trkpt lat="42.8281175" lon="13.5548211"><ele>349.75</ele><time>2026-04-18T08:48:44.876Z</time></trkpt><trkpt lat="42.8279804" lon="13.5548929"><ele>349.5</ele><time>2026-04-18T08:48:45.876Z</time></trkpt><trkpt lat="42.8278497" lon="13.5549443"><ele>349.25</ele><time>2026-04-18T08:48:46.876Z</time></trkpt><trkpt lat="42.8277293" lon="13.5550054"><ele>349.0</ele><time>2026-04-18T08:48:47.876Z</time></trkpt><trkpt lat="42.8276189" lon="13.5550879"><ele>349.0</ele><time>2026-04-18T08:48:48.876Z</time></trkpt><trkpt lat="42.827517" lon="13.5551984"><ele>349.0</ele><time>2026-04-18T08:48:49.876Z</time></trkpt><trkpt lat="42.8274256" lon="13.5553395"><ele>349.0</ele><time>2026-04-18T08:48:50.876Z</time></trkpt><trkpt lat="42.82733" lon="13.5554882"><ele>349.0</ele><time>2026-04-18T08:48:51.876Z</time></trkpt><trkpt lat="42.8272354" lon="13.5556373"><ele>351.0</ele><time>2026-04-18T08:48:52.876Z</time></trkpt><trkpt lat="42.8271434" lon="13.5557607"><ele>353.0</ele><time>2026-04-18T08:48:53.876Z</time></trkpt><trkpt lat="42.8270467" lon="13.5558532"><ele>355.0</ele><time>2026-04-18T08:48:54.876Z</time></trkpt><trkpt lat="42.8269382" lon="13.5558939"><ele>357.0</ele><time>2026-04-18T08:48:55.876Z</time></trkpt><trkpt lat="42.8268069" lon="13.5558871"><ele>357.0</ele><time>2026-04-18T08:48:56.875Z</time></trkpt><trkpt lat="42.8266763" lon="13.555848"><ele>357.0</ele><time>2026-04-18T08:48:57.876Z</time></trkpt><trkpt lat="42.8265459" lon="13.5558387"><ele>357.0</ele><time>2026-04-18T08:48:58.876Z</time></trkpt><trkpt lat="42.8264192" lon="13.5558703"><ele>357.0</ele><time>2026-04-18T08:48:59.876Z</time></trkpt><trkpt lat="42.8263129" lon="13.5559346"><ele>357.0</ele><time>2026-04-18T08:49:00.876Z</time></trkpt><trkpt lat="42.8262147" lon="13.5559845"><ele>357.0</ele><time>2026-04-18T08:49:01.875Z</time></trkpt><trkpt lat="42.8261229" lon="13.55598"><ele>357.0</ele><time>2026-04-18T08:49:02.876Z</time></trkpt><trkpt lat="42.8260214" lon="13.5559311"><ele>357.0</ele><time>2026-04-18T08:49:03.876Z</time></trkpt><trkpt lat="42.825903" lon="13.5558206"><ele>357.0</ele><time>2026-04-18T08:49:04.876Z</time></trkpt><trkpt lat="42.8257814" lon="13.5556955"><ele>354.75</ele><time>2026-04-18T08:49:05.876Z</time></trkpt><trkpt lat="42.8256694" lon="13.5555703"><ele>352.5</ele><time>2026-04-18T08:49:06.876Z</time></trkpt><trkpt lat="42.8255495" lon="13.5554532"><ele>350.25</ele><time>2026-04-18T08:49:07.876Z</time></trkpt><trkpt lat="42.8254261" lon="13.5553496"><ele>348.0</ele><time>2026-04-18T08:49:08.876Z</time></trkpt><trkpt lat="42.8252964" lon="13.5552666"><ele>348.0</ele><time>2026-04-18T08:49:09.876Z</time></trkpt><trkpt lat="42.8251621" lon="13.5552151"><ele>348.0</ele><time>2026-04-18T08:49:10.876Z</time></trkpt><trkpt lat="42.8250261" lon="13.5551921"><ele>348.0</ele><time>2026-04-18T08:49:11.876Z</time></trkpt><trkpt lat="42.8248872" lon="13.5551929"><ele>348.0</ele><time>2026-04-18T08:49:12.876Z</time></trkpt><trkpt lat="42.8247519" lon="13.5552233"><ele>352.0</ele><time>2026-04-18T08:49:13.876Z</time></trkpt><trkpt lat="42.8246043" lon="13.5552844"><ele>356.0</ele><time>2026-04-18T08:49:14.876Z</time></trkpt><trkpt lat="42.8244505" lon="13.5553546"><ele>360.0</ele><time>2026-04-18T08:49:15.876Z</time></trkpt><trkpt lat="42.8242989" lon="13.5554203"><ele>365.0</ele><time>2026-04-18T08:49:16.876Z</time></trkpt><trkpt lat="42.8241455" lon="13.5554899"><ele>370.0</ele><time>2026-04-18T08:49:17.876Z</time></trkpt><trkpt lat="42.8239936" lon="13.5555474"><ele>375.0</ele><time>2026-04-18T08:49:18.876Z</time></trkpt><trkpt lat="42.8238395" lon="13.5555943"><ele>375.0</ele><time>2026-04-18T08:49:19.875Z</time></trkpt><trkpt lat="42.8236797" lon="13.5556329"><ele>375.0</ele><time>2026-04-18T08:49:20.876Z</time></trkpt><trkpt lat="42.8235174" lon="13.5556626"><ele>375.0</ele><time>2026-04-18T08:49:21.876Z</time></trkpt><trkpt lat="42.8233561" lon="13.5556811"><ele>374.6666666666667</ele><time>2026-04-18T08:49:22.876Z</time></trkpt><trkpt lat="42.8231931" lon="13.5556958"><ele>374.33333333333337</ele><time>2026-04-18T08:49:23.876Z</time></trkpt><trkpt lat="42.8230275" lon="13.5557066"><ele>374.0</ele><time>2026-04-18T08:49:24.876Z</time></trkpt><trkpt lat="42.8228582" lon="13.5557216"><ele>374.0</ele><time>2026-04-18T08:49:25.876Z</time></trkpt><trkpt lat="42.8226924" lon="13.5557428"><ele>374.0</ele><time>2026-04-18T08:49:26.876Z</time></trkpt><trkpt lat="42.8225276" lon="13.5557614"><ele>374.0</ele><time>2026-04-18T08:49:27.876Z</time></trkpt><trkpt lat="42.8223735" lon="13.555782"><ele>376.0</ele><time>2026-04-18T08:49:28.876Z</time></trkpt><trkpt lat="42.8222281" lon="13.5557907"><ele>378.0</ele><time>2026-04-18T08:49:29.876Z</time></trkpt><trkpt lat="42.8220836" lon="13.5557887"><ele>380.0</ele><time>2026-04-18T08:49:30.876Z</time></trkpt><trkpt lat="42.8219634" lon="13.5556921"><ele>382.0</ele><time>2026-04-18T08:49:31.876Z</time></trkpt><trkpt lat="42.8218506" lon="13.5555802"><ele>383.75</ele><time>2026-04-18T08:49:32.875Z</time></trkpt><trkpt lat="42.8217648" lon="13.5554388"><ele>385.5</ele><time>2026-04-18T08:49:33.876Z</time></trkpt><trkpt lat="42.8217077" lon="13.5552978"><ele>387.25</ele><time>2026-04-18T08:49:34.876Z</time></trkpt><trkpt lat="42.8216692" lon="13.5551462"><ele>389.0</ele><time>2026-04-18T08:49:35.875Z</time></trkpt><trkpt lat="42.8216603" lon="13.5549757"><ele>389.0</ele><time>2026-04-18T08:49:36.876Z</time></trkpt><trkpt lat="42.8216721" lon="13.5548012"><ele>389.0</ele><time>2026-04-18T08:49:37.876Z</time></trkpt><trkpt lat="42.8216856" lon="13.5546241"><ele>389.0</ele><time>2026-04-18T08:49:38.876Z</time></trkpt><trkpt lat="42.8216826" lon="13.5544325"><ele>389.0</ele><time>2026-04-18T08:49:39.875Z</time></trkpt><trkpt lat="42.8216528" lon="13.5542416"><ele>388.75</ele><time>2026-04-18T08:49:40.876Z</time></trkpt><trkpt lat="42.8215998" lon="13.554063"><ele>388.5</ele><time>2026-04-18T08:49:41.876Z</time></trkpt><trkpt lat="42.821539" lon="13.5538846"><ele>388.25</ele><time>2026-04-18T08:49:42.876Z</time></trkpt><trkpt lat="42.821504" lon="13.5537069"><ele>388.0</ele><time>2026-04-18T08:49:43.876Z</time></trkpt><trkpt lat="42.821506" lon="13.5535271"><ele>389.75</ele><time>2026-04-18T08:49:44.876Z</time></trkpt><trkpt lat="42.8215337" lon="13.5533415"><ele>391.5</ele><time>2026-04-18T08:49:45.876Z</time></trkpt><trkpt lat="42.8215947" lon="13.5531702"><ele>393.25</ele><time>2026-04-18T08:49:46.876Z</time></trkpt><trkpt lat="42.8216569" lon="13.5529814"><ele>395.0</ele><time>2026-04-18T08:49:47.876Z</time></trkpt><trkpt lat="42.8217154" lon="13.5527965"><ele>393.75</ele><time>2026-04-18T08:49:48.876Z</time></trkpt><trkpt lat="42.8217705" lon="13.5526102"><ele>392.5</ele><time>2026-04-18T08:49:49.876Z</time></trkpt><trkpt lat="42.8218233" lon="13.5524294"><ele>391.25</ele><time>2026-04-18T08:49:50.875Z</time></trkpt><trkpt lat="42.8218896" lon="13.5522671"><ele>390.0</ele><time>2026-04-18T08:49:51.876Z</time></trkpt><trkpt lat="42.8219755" lon="13.5521317"><ele>393.0</ele><time>2026-04-18T08:49:52.876Z</time></trkpt><trkpt lat="42.8220719" lon="13.5520249"><ele>396.0</ele><time>2026-04-18T08:49:53.876Z</time></trkpt><trkpt lat="42.8221623" lon="13.5519408"><ele>399.0</ele><time>2026-04-18T08:49:54.876Z</time></trkpt><trkpt lat="42.8222378" lon="13.5518621"><ele>402.0</ele><time>2026-04-18T08:49:55.876Z</time></trkpt><trkpt lat="42.8223051" lon="13.5517802"><ele>405.0</ele><time>2026-04-18T08:49:56.876Z</time></trkpt><trkpt lat="42.8223242" lon="13.5516893"><ele>405.0</ele><time>2026-04-18T08:49:57.876Z</time></trkpt><trkpt lat="42.8223384" lon="13.5515997"><ele>405.0</ele><time>2026-04-18T08:49:58.876Z</time></trkpt><trkpt lat="42.8223229" lon="13.5515039"><ele>405.0</ele><time>2026-04-18T08:49:59.876Z</time></trkpt><trkpt lat="42.8222755" lon="13.5514069"><ele>405.0</ele><time>2026-04-18T08:50:00.876Z</time></trkpt><trkpt lat="42.8221971" lon="13.5513192"><ele>405.0</ele><time>2026-04-18T08:50:01.875Z</time></trkpt><trkpt lat="42.8220878" lon="13.5512122"><ele>403.0</ele><time>2026-04-18T08:50:02.876Z</time></trkpt><trkpt lat="42.8219513" lon="13.5510877"><ele>401.0</ele><time>2026-04-18T08:50:03.876Z</time></trkpt><trkpt lat="42.8218023" lon="13.5509635"><ele>399.0</ele><time>2026-04-18T08:50:04.876Z</time></trkpt><trkpt lat="42.8216253" lon="13.5508452"><ele>399.0</ele><time>2026-04-18T08:50:05.876Z</time></trkpt><trkpt lat="42.8214531" lon="13.5507203"><ele>399.0</ele><time>2026-04-18T08:50:06.876Z</time></trkpt><trkpt lat="42.821286" lon="13.5505903"><ele>399.0</ele><time>2026-04-18T08:50:07.875Z</time></trkpt><trkpt lat="42.8211285" lon="13.5504526"><ele>398.66666666666663</ele><time>2026-04-18T08:50:08.876Z</time></trkpt><trkpt lat="42.8209911" lon="13.5503013"><ele>398.3333333333333</ele><time>2026-04-18T08:50:09.876Z</time></trkpt><trkpt lat="42.8208653" lon="13.5501309"><ele>398.0</ele><time>2026-04-18T08:50:10.876Z</time></trkpt><trkpt lat="42.8207637" lon="13.5499542"><ele>398.0</ele><time>2026-04-18T08:50:11.876Z</time></trkpt><trkpt lat="42.8206809" lon="13.5497865"><ele>398.0</ele><time>2026-04-18T08:50:12.876Z</time></trkpt><trkpt lat="42.8206107" lon="13.5496599"><ele>398.0</ele><time>2026-04-18T08:50:13.876Z</time></trkpt><trkpt lat="42.8205474" lon="13.5495565"><ele>398.0</ele><time>2026-04-18T08:50:14.876Z</time></trkpt><trkpt lat="42.8204037" lon="13.5495265"><ele>398.0</ele><time>2026-04-18T08:50:16.875Z</time></trkpt><trkpt lat="42.8203191" lon="13.5495485"><ele>398.0</ele><time>2026-04-18T08:50:17.876Z</time></trkpt><trkpt lat="42.8202289" lon="13.5496382"><ele>398.0</ele><time>2026-04-18T08:50:18.876Z</time></trkpt><trkpt lat="42.8201432" lon="13.549745"><ele>398.0</ele><time>2026-04-18T08:50:19.876Z</time></trkpt><trkpt lat="42.8200552" lon="13.549834"><ele>398.0</ele><time>2026-04-18T08:50:20.876Z</time></trkpt><trkpt lat="42.8199428" lon="13.549882"><ele>399.5</ele><time>2026-04-18T08:50:21.876Z</time></trkpt><trkpt lat="42.819817" lon="13.5499036"><ele>401.0</ele><time>2026-04-18T08:50:22.876Z</time></trkpt><trkpt lat="42.8196768" lon="13.5499058"><ele>402.5</ele><time>2026-04-18T08:50:23.876Z</time></trkpt><trkpt lat="42.8195377" lon="13.5499237"><ele>404.0</ele><time>2026-04-18T08:50:24.876Z</time></trkpt><trkpt lat="42.8194076" lon="13.5499576"><ele>402.5</ele><time>2026-04-18T08:50:25.876Z</time></trkpt><trkpt lat="42.8192865" lon="13.5499943"><ele>401.0</ele><time>2026-04-18T08:50:26.875Z</time></trkpt><trkpt lat="42.8191639" lon="13.5500118"><ele>399.5</ele><time>2026-04-18T08:50:27.876Z</time></trkpt><trkpt lat="42.8190247" lon="13.55"><ele>398.0</ele><time>2026-04-18T08:50:28.876Z</time></trkpt><trkpt lat="42.8188698" lon="13.5499606"><ele>398.0</ele><time>2026-04-18T08:50:29.875Z</time></trkpt><trkpt lat="42.8187246" lon="13.5499106"><ele>398.0</ele><time>2026-04-18T08:50:30.876Z</time></trkpt><trkpt lat="42.8185842" lon="13.549867"><ele>398.0</ele><time>2026-04-18T08:50:31.876Z</time></trkpt><trkpt lat="42.8184693" lon="13.5498235"><ele>398.0</ele><time>2026-04-18T08:50:32.876Z</time></trkpt><trkpt lat="42.8183702" lon="13.5497718"><ele>401.75</ele><time>2026-04-18T08:50:33.876Z</time></trkpt><trkpt lat="42.8182877" lon="13.5496908"><ele>405.5</ele><time>2026-04-18T08:50:34.875Z</time></trkpt><trkpt lat="42.8182236" lon="13.5495697"><ele>409.25</ele><time>2026-04-18T08:50:35.876Z</time></trkpt><trkpt lat="42.8181532" lon="13.5494024"><ele>413.0</ele><time>2026-04-18T08:50:36.876Z</time></trkpt><trkpt lat="42.818087" lon="13.549193"><ele>402.66666666666663</ele><time>2026-04-18T08:50:37.876Z</time></trkpt><trkpt lat="42.8180271" lon="13.5489745"><ele>392.3333333333333</ele><time>2026-04-18T08:50:38.876Z</time></trkpt><trkpt lat="42.817975" lon="13.5487628"><ele>382.0</ele><time>2026-04-18T08:50:39.875Z</time></trkpt><trkpt lat="42.8179306" lon="13.5485561"><ele>376.75</ele><time>2026-04-18T08:50:40.876Z</time></trkpt><trkpt lat="42.817888" lon="13.5483573"><ele>371.5</ele><time>2026-04-18T08:50:41.876Z</time></trkpt><trkpt lat="42.8178436" lon="13.5481696"><ele>366.25</ele><time>2026-04-18T08:50:42.875Z</time></trkpt><trkpt lat="42.8178066" lon="13.5479872"><ele>361.0</ele><time>2026-04-18T08:50:43.876Z</time></trkpt><trkpt lat="42.8177665" lon="13.5478117"><ele>357.25</ele><time>2026-04-18T08:50:44.876Z</time></trkpt><trkpt lat="42.8177292" lon="13.5476524"><ele>353.5</ele><time>2026-04-18T08:50:45.875Z</time></trkpt><trkpt lat="42.8176938" lon="13.5474975"><ele>349.75</ele><time>2026-04-18T08:50:46.876Z</time></trkpt><trkpt lat="42.8176539" lon="13.5473454"><ele>346.0</ele><time>2026-04-18T08:50:47.876Z</time></trkpt><trkpt lat="42.8176057" lon="13.5471814"><ele>357.0</ele><time>2026-04-18T08:50:48.875Z</time></trkpt><trkpt lat="42.8175349" lon="13.5470082"><ele>368.0</ele><time>2026-04-18T08:50:49.876Z</time></trkpt><trkpt lat="42.8174542" lon="13.5468228"><ele>379.0</ele><time>2026-04-18T08:50:50.876Z</time></trkpt><trkpt lat="42.8173731" lon="13.5466282"><ele>379.0</ele><time>2026-04-18T08:50:51.876Z</time></trkpt><trkpt lat="42.8173022" lon="13.5464203"><ele>379.0</ele><time>2026-04-18T08:50:52.876Z</time></trkpt><trkpt lat="42.8172501" lon="13.5462025"><ele>379.0</ele><time>2026-04-18T08:50:53.876Z</time></trkpt><trkpt lat="42.8172176" lon="13.5459792"><ele>374.0</ele><time>2026-04-18T08:50:54.876Z</time></trkpt><trkpt lat="42.8172082" lon="13.5457621"><ele>369.0</ele><time>2026-04-18T08:50:55.876Z</time></trkpt><trkpt lat="42.8172129" lon="13.5455564"><ele>364.0</ele><time>2026-04-18T08:50:56.875Z</time></trkpt><trkpt lat="42.8172211" lon="13.5453586"><ele>362.4</ele><time>2026-04-18T08:50:57.876Z</time></trkpt><trkpt lat="42.8172233" lon="13.5451726"><ele>360.79999999999995</ele><time>2026-04-18T08:50:58.875Z</time></trkpt><trkpt lat="42.8172188" lon="13.5450256"><ele>359.20000000000005</ele><time>2026-04-18T08:50:59.876Z</time></trkpt><trkpt lat="42.8172095" lon="13.5448957"><ele>357.6</ele><time>2026-04-18T08:51:00.876Z</time></trkpt><trkpt lat="42.8171936" lon="13.5447867"><ele>356.0</ele><time>2026-04-18T08:51:01.876Z</time></trkpt><trkpt lat="42.8171595" lon="13.5447029"><ele>356.0</ele><time>2026-04-18T08:51:02.876Z</time></trkpt><trkpt lat="42.8170648" lon="13.5446136"><ele>356.0</ele><time>2026-04-18T08:51:04.876Z</time></trkpt><trkpt lat="42.8169958" lon="13.5446297"><ele>356.0</ele><time>2026-04-18T08:51:05.876Z</time></trkpt><trkpt lat="42.8169241" lon="13.5447195"><ele>356.0</ele><time>2026-04-18T08:51:06.876Z</time></trkpt><trkpt lat="42.8168683" lon="13.5448227"><ele>356.0</ele><time>2026-04-18T08:51:07.876Z</time></trkpt><trkpt lat="42.8167972" lon="13.5449451"><ele>358.25</ele><time>2026-04-18T08:51:08.875Z</time></trkpt><trkpt lat="42.8167233" lon="13.5450718"><ele>360.5</ele><time>2026-04-18T08:51:09.876Z</time></trkpt><trkpt lat="42.816651" lon="13.5451846"><ele>362.75</ele><time>2026-04-18T08:51:10.876Z</time></trkpt><trkpt lat="42.8165415" lon="13.5452195"><ele>365.0</ele><time>2026-04-18T08:51:11.875Z</time></trkpt><trkpt lat="42.8164276" lon="13.5452677"><ele>365.0</ele><time>2026-04-18T08:51:12.876Z</time></trkpt><trkpt lat="42.8163022" lon="13.5453167"><ele>365.0</ele><time>2026-04-18T08:51:13.876Z</time></trkpt><trkpt lat="42.8161918" lon="13.5453597"><ele>365.0</ele><time>2026-04-18T08:51:14.875Z</time></trkpt><trkpt lat="42.8160881" lon="13.5454044"><ele>365.0</ele><time>2026-04-18T08:51:15.876Z</time></trkpt><trkpt lat="42.8159961" lon="13.5454748"><ele>367.5</ele><time>2026-04-18T08:51:16.876Z</time></trkpt><trkpt lat="42.8159271" lon="13.5455661"><ele>370.0</ele><time>2026-04-18T08:51:17.876Z</time></trkpt><trkpt lat="42.8158778" lon="13.5456671"><ele>372.5</ele><time>2026-04-18T08:51:18.876Z</time></trkpt><trkpt lat="42.8158295" lon="13.5457469"><ele>375.0</ele><time>2026-04-18T08:51:19.876Z</time></trkpt><trkpt lat="42.8157765" lon="13.545801"><ele>377.5</ele><time>2026-04-18T08:51:20.876Z</time></trkpt><trkpt lat="42.8157118" lon="13.545812"><ele>380.0</ele><time>2026-04-18T08:51:21.876Z</time></trkpt><trkpt lat="42.8156465" lon="13.5457771"><ele>380.0</ele><time>2026-04-18T08:51:22.875Z</time></trkpt><trkpt lat="42.8155826" lon="13.5456987"><ele>380.0</ele><time>2026-04-18T08:51:23.876Z</time></trkpt><trkpt lat="42.8155192" lon="13.5455919"><ele>380.0</ele><time>2026-04-18T08:51:24.876Z</time></trkpt><trkpt lat="42.8154887" lon="13.5454827"><ele>380.0</ele><time>2026-04-18T08:51:25.876Z</time></trkpt><trkpt lat="42.8154874" lon="13.5453618"><ele>380.0</ele><time>2026-04-18T08:51:26.876Z</time></trkpt><trkpt lat="42.8155227" lon="13.5452145"><ele>375.25</ele><time>2026-04-18T08:51:27.876Z</time></trkpt><trkpt lat="42.8155915" lon="13.5450506"><ele>370.5</ele><time>2026-04-18T08:51:28.876Z</time></trkpt><trkpt lat="42.8156774" lon="13.5449102"><ele>365.75</ele><time>2026-04-18T08:51:29.876Z</time></trkpt><trkpt lat="42.8157473" lon="13.5447715"><ele>361.0</ele><time>2026-04-18T08:51:30.876Z</time></trkpt><trkpt lat="42.8157917" lon="13.5446136"><ele>362.25</ele><time>2026-04-18T08:51:31.876Z</time></trkpt><trkpt lat="42.8157815" lon="13.5444411"><ele>363.5</ele><time>2026-04-18T08:51:32.876Z</time></trkpt><trkpt lat="42.8157304" lon="13.5442409"><ele>364.75</ele><time>2026-04-18T08:51:33.876Z</time></trkpt><trkpt lat="42.8156619" lon="13.544035"><ele>366.0</ele><time>2026-04-18T08:51:34.876Z</time></trkpt><trkpt lat="42.8156179" lon="13.543851"><ele>366.0</ele><time>2026-04-18T08:51:35.876Z</time></trkpt><trkpt lat="42.8156026" lon="13.5436367"><ele>366.0</ele><time>2026-04-18T08:51:36.876Z</time></trkpt><trkpt lat="42.8155909" lon="13.5433668"><ele>366.0</ele><time>2026-04-18T08:51:37.876Z</time></trkpt><trkpt lat="42.8155676" lon="13.5430536"><ele>364.3333333333333</ele><time>2026-04-18T08:51:38.876Z</time></trkpt><trkpt lat="42.8155215" lon="13.5427524"><ele>362.66666666666663</ele><time>2026-04-18T08:51:39.876Z</time></trkpt><trkpt lat="42.8154876" lon="13.5424759"><ele>361.0</ele><time>2026-04-18T08:51:40.876Z</time></trkpt><trkpt lat="42.815473" lon="13.5422173"><ele>361.66666666666663</ele><time>2026-04-18T08:51:41.876Z</time></trkpt><trkpt lat="42.8154743" lon="13.5419681"><ele>362.3333333333333</ele><time>2026-04-18T08:51:42.876Z</time></trkpt><trkpt lat="42.8154811" lon="13.5417229"><ele>363.0</ele><time>2026-04-18T08:51:43.876Z</time></trkpt><trkpt lat="42.8154875" lon="13.5414968"><ele>363.0</ele><time>2026-04-18T08:51:44.876Z</time></trkpt><trkpt lat="42.8155031" lon="13.5413016"><ele>363.0</ele><time>2026-04-18T08:51:45.875Z</time></trkpt><trkpt lat="42.8155353" lon="13.5411214"><ele>363.0</ele><time>2026-04-18T08:51:46.876Z</time></trkpt><trkpt lat="42.8155843" lon="13.5409545"><ele>363.0</ele><time>2026-04-18T08:51:47.876Z</time></trkpt><trkpt lat="42.8156261" lon="13.5408046"><ele>365.5</ele><time>2026-04-18T08:51:48.876Z</time></trkpt><trkpt lat="42.8156369" lon="13.5406363"><ele>368.0</ele><time>2026-04-18T08:51:49.876Z</time></trkpt><trkpt lat="42.8156252" lon="13.540439"><ele>370.5</ele><time>2026-04-18T08:51:50.876Z</time></trkpt><trkpt lat="42.8156015" lon="13.5402367"><ele>373.0</ele><time>2026-04-18T08:51:51.876Z</time></trkpt><trkpt lat="42.815595" lon="13.5400318"><ele>374.5</ele><time>2026-04-18T08:51:52.876Z</time></trkpt><trkpt lat="42.8156063" lon="13.5398228"><ele>376.0</ele><time>2026-04-18T08:51:53.875Z</time></trkpt><trkpt lat="42.8156322" lon="13.5396264"><ele>377.5</ele><time>2026-04-18T08:51:54.876Z</time></trkpt><trkpt lat="42.8156606" lon="13.5394441"><ele>379.0</ele><time>2026-04-18T08:51:55.876Z</time></trkpt><trkpt lat="42.8156887" lon="13.5392664"><ele>379.6</ele><time>2026-04-18T08:51:56.876Z</time></trkpt><trkpt lat="42.8156982" lon="13.539097"><ele>380.2</ele><time>2026-04-18T08:51:57.876Z</time></trkpt><trkpt lat="42.8156825" lon="13.538946"><ele>380.8</ele><time>2026-04-18T08:51:58.876Z</time></trkpt><trkpt lat="42.8156343" lon="13.53882"><ele>381.40000000000003</ele><time>2026-04-18T08:51:59.875Z</time></trkpt><trkpt lat="42.8155547" lon="13.5387224"><ele>382.0</ele><time>2026-04-18T08:52:00.876Z</time></trkpt><trkpt lat="42.815436" lon="13.5386073"><ele>382.0</ele><time>2026-04-18T08:52:01.876Z</time></trkpt><trkpt lat="42.815319" lon="13.5384745"><ele>382.0</ele><time>2026-04-18T08:52:02.876Z</time></trkpt><trkpt lat="42.8152149" lon="13.538347"><ele>382.0</ele><time>2026-04-18T08:52:03.876Z</time></trkpt><trkpt lat="42.8151139" lon="13.5382423"><ele>382.0</ele><time>2026-04-18T08:52:04.876Z</time></trkpt><trkpt lat="42.8150016" lon="13.5381706"><ele>387.0</ele><time>2026-04-18T08:52:05.876Z</time></trkpt><trkpt lat="42.8148709" lon="13.5381436"><ele>392.0</ele><time>2026-04-18T08:52:06.876Z</time></trkpt><trkpt lat="42.8147305" lon="13.5381503"><ele>397.0</ele><time>2026-04-18T08:52:07.876Z</time></trkpt><trkpt lat="42.8145678" lon="13.5381546"><ele>402.0</ele><time>2026-04-18T08:52:08.876Z</time></trkpt><trkpt lat="42.8143891" lon="13.5381231"><ele>405.33333333333337</ele><time>2026-04-18T08:52:09.875Z</time></trkpt><trkpt lat="42.8142076" lon="13.5380542"><ele>408.6666666666667</ele><time>2026-04-18T08:52:10.876Z</time></trkpt><trkpt lat="42.8140354" lon="13.5379729"><ele>412.0</ele><time>2026-04-18T08:52:11.876Z</time></trkpt><trkpt lat="42.813864" lon="13.5378985"><ele>411.6666666666667</ele><time>2026-04-18T08:52:12.876Z</time></trkpt><trkpt lat="42.8136988" lon="13.5378457"><ele>411.33333333333337</ele><time>2026-04-18T08:52:13.876Z</time></trkpt><trkpt lat="42.8135508" lon="13.5378143"><ele>411.0</ele><time>2026-04-18T08:52:14.876Z</time></trkpt><trkpt lat="42.8134151" lon="13.5378008"><ele>411.0</ele><time>2026-04-18T08:52:15.875Z</time></trkpt><trkpt lat="42.8132942" lon="13.5377815"><ele>411.0</ele><time>2026-04-18T08:52:16.876Z</time></trkpt><trkpt lat="42.8131778" lon="13.5377432"><ele>411.0</ele><time>2026-04-18T08:52:17.876Z</time></trkpt><trkpt lat="42.813073" lon="13.5376579"><ele>411.0</ele><time>2026-04-18T08:52:18.875Z</time></trkpt><trkpt lat="42.8129868" lon="13.5375286"><ele>411.0</ele><time>2026-04-18T08:52:19.875Z</time></trkpt><trkpt lat="42.8129125" lon="13.5373815"><ele>411.0</ele><time>2026-04-18T08:52:20.876Z</time></trkpt><trkpt lat="42.8128397" lon="13.5372524"><ele>411.0</ele><time>2026-04-18T08:52:21.876Z</time></trkpt><trkpt lat="42.8127684" lon="13.5371468"><ele>411.0</ele><time>2026-04-18T08:52:22.876Z</time></trkpt><trkpt lat="42.8126825" lon="13.5370838"><ele>413.75</ele><time>2026-04-18T08:52:23.876Z</time></trkpt><trkpt lat="42.8125772" lon="13.5370713"><ele>416.5</ele><time>2026-04-18T08:52:24.876Z</time></trkpt><trkpt lat="42.8124695" lon="13.5370707"><ele>419.25</ele><time>2026-04-18T08:52:25.876Z</time></trkpt><trkpt lat="42.8123143" lon="13.5371541"><ele>422.0</ele><time>2026-04-18T08:52:26.876Z</time></trkpt><trkpt lat="42.8121774" lon="13.5371682"><ele>422.0</ele><time>2026-04-18T08:52:27.876Z</time></trkpt><trkpt lat="42.8120339" lon="13.5371367"><ele>422.0</ele><time>2026-04-18T08:52:28.876Z</time></trkpt><trkpt lat="42.8118834" lon="13.537064"><ele>422.0</ele><time>2026-04-18T08:52:29.876Z</time></trkpt><trkpt lat="42.8117296" lon="13.5369735"><ele>421.66666666666663</ele><time>2026-04-18T08:52:30.876Z</time></trkpt><trkpt lat="42.8115718" lon="13.5368772"><ele>421.33333333333337</ele><time>2026-04-18T08:52:31.875Z</time></trkpt><trkpt lat="42.8114231" lon="13.5367708"><ele>421.0</ele><time>2026-04-18T08:52:32.876Z</time></trkpt><trkpt lat="42.8112898" lon="13.5366401"><ele>421.0</ele><time>2026-04-18T08:52:33.876Z</time></trkpt><trkpt lat="42.811162" lon="13.5365128"><ele>421.0</ele><time>2026-04-18T08:52:34.876Z</time></trkpt><trkpt lat="42.811032" lon="13.5363979"><ele>421.0</ele><time>2026-04-18T08:52:35.876Z</time></trkpt><trkpt lat="42.8108932" lon="13.5363122"><ele>424.25</ele><time>2026-04-18T08:52:36.876Z</time></trkpt><trkpt lat="42.8107531" lon="13.5362546"><ele>427.5</ele><time>2026-04-18T08:52:37.875Z</time></trkpt><trkpt lat="42.8106261" lon="13.5362272"><ele>430.75</ele><time>2026-04-18T08:52:38.875Z</time></trkpt><trkpt lat="42.8104979" lon="13.5362258"><ele>434.0</ele><time>2026-04-18T08:52:39.876Z</time></trkpt><trkpt lat="42.810372" lon="13.5362748"><ele>434.0</ele><time>2026-04-18T08:52:40.875Z</time></trkpt><trkpt lat="42.8102516" lon="13.536373"><ele>434.0</ele><time>2026-04-18T08:52:41.876Z</time></trkpt><trkpt lat="42.8101364" lon="13.5365111"><ele>434.0</ele><time>2026-04-18T08:52:42.876Z</time></trkpt><trkpt lat="42.8100087" lon="13.5366947"><ele>433.5</ele><time>2026-04-18T08:52:43.876Z</time></trkpt><trkpt lat="42.8098972" lon="13.5368537"><ele>433.0</ele><time>2026-04-18T08:52:44.876Z</time></trkpt><trkpt lat="42.8098023" lon="13.5369932"><ele>432.5</ele><time>2026-04-18T08:52:45.876Z</time></trkpt><trkpt lat="42.8097212" lon="13.5371095"><ele>432.0</ele><time>2026-04-18T08:52:46.876Z</time></trkpt><trkpt lat="42.8096492" lon="13.537209"><ele>435.3333333333333</ele><time>2026-04-18T08:52:47.875Z</time></trkpt><trkpt lat="42.8095863" lon="13.5372696"><ele>438.66666666666663</ele><time>2026-04-18T08:52:48.876Z</time></trkpt><trkpt lat="42.8094898" lon="13.537344"><ele>442.0</ele><time>2026-04-18T08:52:50.876Z</time></trkpt><trkpt lat="42.8094243" lon="13.5374199"><ele>445.3333333333333</ele><time>2026-04-18T08:52:52.875Z</time></trkpt><trkpt lat="42.809445" lon="13.5375118"><ele>448.66666666666663</ele><time>2026-04-18T08:52:54.876Z</time></trkpt><trkpt lat="42.8095229" lon="13.5375245"><ele>452.0</ele><time>2026-04-18T08:52:56.876Z</time></trkpt><trkpt lat="42.8095864" lon="13.5375079"><ele>452.0</ele><time>2026-04-18T08:52:57.876Z</time></trkpt><trkpt lat="42.8096614" lon="13.5374722"><ele>452.00000000000006</ele><time>2026-04-18T08:52:58.876Z</time></trkpt><trkpt lat="42.809741" lon="13.537416"><ele>452.00000000000006</ele><time>2026-04-18T08:52:59.876Z</time></trkpt><trkpt lat="42.809821" lon="13.537326"><ele>452.0</ele><time>2026-04-18T08:53:00.876Z</time></trkpt><trkpt lat="42.8098937" lon="13.5372134"><ele>452.0</ele><time>2026-04-18T08:53:01.876Z</time></trkpt><trkpt lat="42.8099698" lon="13.5371166"><ele>452.0</ele><time>2026-04-18T08:53:02.876Z</time></trkpt><trkpt lat="42.8100577" lon="13.5370587"><ele>452.0</ele><time>2026-04-18T08:53:03.876Z</time></trkpt><trkpt lat="42.8101642" lon="13.5370305"><ele>452.0</ele><time>2026-04-18T08:53:04.876Z</time></trkpt><trkpt lat="42.8102813" lon="13.5370279"><ele>452.0</ele><time>2026-04-18T08:53:05.876Z</time></trkpt><trkpt lat="42.8104082" lon="13.5370318"><ele>451.75</ele><time>2026-04-18T08:53:06.876Z</time></trkpt><trkpt lat="42.8105324" lon="13.5370667"><ele>451.5</ele><time>2026-04-18T08:53:07.875Z</time></trkpt><trkpt lat="42.8106574" lon="13.5371482"><ele>451.25</ele><time>2026-04-18T08:53:08.876Z</time></trkpt><trkpt lat="42.8107992" lon="13.5372699"><ele>451.0</ele><time>2026-04-18T08:53:09.876Z</time></trkpt><trkpt lat="42.8109127" lon="13.5373964"><ele>451.0</ele><time>2026-04-18T08:53:10.876Z</time></trkpt><trkpt lat="42.8109879" lon="13.5375309"><ele>451.0</ele><time>2026-04-18T08:53:11.876Z</time></trkpt><trkpt lat="42.8110257" lon="13.5376874"><ele>451.0</ele><time>2026-04-18T08:53:12.875Z</time></trkpt><trkpt lat="42.8110325" lon="13.537872"><ele>451.0</ele><time>2026-04-18T08:53:13.876Z</time></trkpt><trkpt lat="42.8110265" lon="13.5381019"><ele>453.6666666666667</ele><time>2026-04-18T08:53:14.876Z</time></trkpt><trkpt lat="42.8110097" lon="13.5383623"><ele>456.33333333333337</ele><time>2026-04-18T08:53:15.876Z</time></trkpt><trkpt lat="42.8109791" lon="13.5386228"><ele>459.0</ele><time>2026-04-18T08:53:16.875Z</time></trkpt><trkpt lat="42.8109381" lon="13.5388793"><ele>459.66666666666663</ele><time>2026-04-18T08:53:17.876Z</time></trkpt><trkpt lat="42.8108795" lon="13.5391292"><ele>460.3333333333333</ele><time>2026-04-18T08:53:18.875Z</time></trkpt><trkpt lat="42.8108084" lon="13.5393856"><ele>461.0</ele><time>2026-04-18T08:53:19.876Z</time></trkpt><trkpt lat="42.8107412" lon="13.5396225"><ele>461.25</ele><time>2026-04-18T08:53:20.876Z</time></trkpt><trkpt lat="42.8106804" lon="13.5398353"><ele>461.5</ele><time>2026-04-18T08:53:21.876Z</time></trkpt><trkpt lat="42.8106261" lon="13.540028"><ele>461.75</ele><time>2026-04-18T08:53:22.875Z</time></trkpt><trkpt lat="42.8105853" lon="13.5401891"><ele>462.0</ele><time>2026-04-18T08:53:23.876Z</time></trkpt><trkpt lat="42.8105666" lon="13.5403441"><ele>464.6</ele><time>2026-04-18T08:53:24.876Z</time></trkpt><trkpt lat="42.8105742" lon="13.5404844"><ele>467.20000000000005</ele><time>2026-04-18T08:53:25.876Z</time></trkpt><trkpt lat="42.8106077" lon="13.5406059"><ele>469.8</ele><time>2026-04-18T08:53:26.876Z</time></trkpt><trkpt lat="42.8106703" lon="13.5407153"><ele>472.4</ele><time>2026-04-18T08:53:27.876Z</time></trkpt><trkpt lat="42.8107653" lon="13.5407999"><ele>475.0</ele><time>2026-04-18T08:53:28.875Z</time></trkpt><trkpt lat="42.8108694" lon="13.5408624"><ele>476.25</ele><time>2026-04-18T08:53:29.876Z</time></trkpt><trkpt lat="42.8110137" lon="13.5408548"><ele>477.5</ele><time>2026-04-18T08:53:30.876Z</time></trkpt><trkpt lat="42.811157" lon="13.5408567"><ele>478.75</ele><time>2026-04-18T08:53:31.876Z</time></trkpt><trkpt lat="42.8113101" lon="13.5408475"><ele>480.0</ele><time>2026-04-18T08:53:32.876Z</time></trkpt><trkpt lat="42.8114637" lon="13.5408208"><ele>480.0</ele><time>2026-04-18T08:53:33.875Z</time></trkpt><trkpt lat="42.811614" lon="13.5407571"><ele>480.0</ele><time>2026-04-18T08:53:34.876Z</time></trkpt><trkpt lat="42.8117578" lon="13.5406662"><ele>480.0</ele><time>2026-04-18T08:53:35.876Z</time></trkpt><trkpt lat="42.8118935" lon="13.5405623"><ele>482.0</ele><time>2026-04-18T08:53:36.876Z</time></trkpt><trkpt lat="42.8120126" lon="13.5404515"><ele>484.0</ele><time>2026-04-18T08:53:37.876Z</time></trkpt><trkpt lat="42.8121209" lon="13.5403476"><ele>486.0</ele><time>2026-04-18T08:53:38.876Z</time></trkpt><trkpt lat="42.812215" lon="13.5402708"><ele>488.0</ele><time>2026-04-18T08:53:39.876Z</time></trkpt><trkpt lat="42.8123075" lon="13.540238"><ele>488.0</ele><time>2026-04-18T08:53:40.876Z</time></trkpt><trkpt lat="42.8123823" lon="13.5402607"><ele>487.99999999999994</ele><time>2026-04-18T08:53:41.876Z</time></trkpt><trkpt lat="42.8124516" lon="13.5403438"><ele>487.99999999999994</ele><time>2026-04-18T08:53:42.876Z</time></trkpt><trkpt lat="42.8125226" lon="13.5404827"><ele>488.0</ele><time>2026-04-18T08:53:43.876Z</time></trkpt><trkpt lat="42.8125936" lon="13.5406512"><ele>488.0</ele><time>2026-04-18T08:53:44.876Z</time></trkpt><trkpt lat="42.8126672" lon="13.5408423"><ele>487.66666666666663</ele><time>2026-04-18T08:53:45.876Z</time></trkpt><trkpt lat="42.8127416" lon="13.5410505"><ele>487.33333333333337</ele><time>2026-04-18T08:53:46.875Z</time></trkpt><trkpt lat="42.8128177" lon="13.5412422"><ele>487.0</ele><time>2026-04-18T08:53:47.875Z</time></trkpt><trkpt lat="42.8128989" lon="13.5414213"><ele>487.0</ele><time>2026-04-18T08:53:48.876Z</time></trkpt><trkpt lat="42.8129879" lon="13.5415734"><ele>487.0</ele><time>2026-04-18T08:53:49.876Z</time></trkpt><trkpt lat="42.8130729" lon="13.5416921"><ele>487.0</ele><time>2026-04-18T08:53:50.875Z</time></trkpt><trkpt lat="42.8131404" lon="13.5417954"><ele>487.0</ele><time>2026-04-18T08:53:51.876Z</time></trkpt><trkpt lat="42.8131785" lon="13.5418976"><ele>487.00000000000006</ele><time>2026-04-18T08:53:52.876Z</time></trkpt><trkpt lat="42.8131751" lon="13.5419842"><ele>487.0</ele><time>2026-04-18T08:53:53.876Z</time></trkpt><trkpt lat="42.8131337" lon="13.5420556"><ele>487.0</ele><time>2026-04-18T08:53:54.876Z</time></trkpt><trkpt lat="42.8130642" lon="13.5420783"><ele>487.0</ele><time>2026-04-18T08:53:55.875Z</time></trkpt><trkpt lat="42.8129856" lon="13.5420368"><ele>487.00000000000006</ele><time>2026-04-18T08:53:56.876Z</time></trkpt><trkpt lat="42.8128786" lon="13.5419407"><ele>487.0</ele><time>2026-04-18T08:53:57.876Z</time></trkpt><trkpt lat="42.812787" lon="13.5418455"><ele>487.0</ele><time>2026-04-18T08:53:58.876Z</time></trkpt><trkpt lat="42.8126858" lon="13.5417322"><ele>487.0</ele><time>2026-04-18T08:53:59.876Z</time></trkpt><trkpt lat="42.8125872" lon="13.5416142"><ele>487.0</ele><time>2026-04-18T08:54:00.876Z</time></trkpt><trkpt lat="42.8125056" lon="13.5415086"><ele>487.0</ele><time>2026-04-18T08:54:01.876Z</time></trkpt><trkpt lat="42.8124339" lon="13.5414092"><ele>489.0</ele><time>2026-04-18T08:54:02.876Z</time></trkpt><trkpt lat="42.8123555" lon="13.541357"><ele>491.00000000000006</ele><time>2026-04-18T08:54:03.875Z</time></trkpt><trkpt lat="42.8122694" lon="13.541342"><ele>493.00000000000006</ele><time>2026-04-18T08:54:04.875Z</time></trkpt><trkpt lat="42.8121733" lon="13.541375"><ele>495.0</ele><time>2026-04-18T08:54:05.876Z</time></trkpt><trkpt lat="42.8120637" lon="13.541447"><ele>497.0</ele><time>2026-04-18T08:54:06.875Z</time></trkpt><trkpt lat="42.8119497" lon="13.5415295"><ele>497.0</ele><time>2026-04-18T08:54:07.876Z</time></trkpt><trkpt lat="42.8118326" lon="13.5416188"><ele>497.0</ele><time>2026-04-18T08:54:08.876Z</time></trkpt><trkpt lat="42.8117109" lon="13.5417116"><ele>497.0</ele><time>2026-04-18T08:54:09.876Z</time></trkpt><trkpt lat="42.8115878" lon="13.5418008"><ele>497.0</ele><time>2026-04-18T08:54:10.876Z</time></trkpt><trkpt lat="42.8114589" lon="13.541878"><ele>498.25</ele><time>2026-04-18T08:54:11.876Z</time></trkpt><trkpt lat="42.8113267" lon="13.5419449"><ele>499.5</ele><time>2026-04-18T08:54:12.876Z</time></trkpt><trkpt lat="42.8111981" lon="13.5420182"><ele>500.75</ele><time>2026-04-18T08:54:13.875Z</time></trkpt><trkpt lat="42.811057" lon="13.5421077"><ele>502.0</ele><time>2026-04-18T08:54:14.875Z</time></trkpt><trkpt lat="42.8109088" lon="13.5422194"><ele>507.33333333333337</ele><time>2026-04-18T08:54:15.876Z</time></trkpt><trkpt lat="42.8107734" lon="13.5423248"><ele>512.6666666666666</ele><time>2026-04-18T08:54:16.876Z</time></trkpt><trkpt lat="42.8106298" lon="13.5424199"><ele>518.0</ele><time>2026-04-18T08:54:17.876Z</time></trkpt><trkpt lat="42.8104979" lon="13.5424859"><ele>518.0</ele><time>2026-04-18T08:54:18.876Z</time></trkpt><trkpt lat="42.810359" lon="13.5425166"><ele>518.0</ele><time>2026-04-18T08:54:19.876Z</time></trkpt><trkpt lat="42.8102057" lon="13.5425079"><ele>518.0</ele><time>2026-04-18T08:54:20.875Z</time></trkpt><trkpt lat="42.8100435" lon="13.5424661"><ele>518.6666666666666</ele><time>2026-04-18T08:54:21.876Z</time></trkpt><trkpt lat="42.8098858" lon="13.5423779"><ele>519.3333333333334</ele><time>2026-04-18T08:54:22.876Z</time></trkpt><trkpt lat="42.8097236" lon="13.5422486"><ele>520.0</ele><time>2026-04-18T08:54:23.876Z</time></trkpt><trkpt lat="42.8095716" lon="13.5421133"><ele>521.5</ele><time>2026-04-18T08:54:24.876Z</time></trkpt><trkpt lat="42.8094388" lon="13.5419959"><ele>523.0</ele><time>2026-04-18T08:54:25.876Z</time></trkpt><trkpt lat="42.809323" lon="13.5418889"><ele>524.5</ele><time>2026-04-18T08:54:26.875Z</time></trkpt><trkpt lat="42.8092333" lon="13.5417672"><ele>526.0</ele><time>2026-04-18T08:54:27.876Z</time></trkpt><trkpt lat="42.8091783" lon="13.5416419"><ele>526.0</ele><time>2026-04-18T08:54:28.876Z</time></trkpt><trkpt lat="42.8091652" lon="13.5415063"><ele>526.0</ele><time>2026-04-18T08:54:29.876Z</time></trkpt><trkpt lat="42.8091836" lon="13.5413534"><ele>526.0</ele><time>2026-04-18T08:54:30.876Z</time></trkpt><trkpt lat="42.8092327" lon="13.5411679"><ele>526.0</ele><time>2026-04-18T08:54:31.876Z</time></trkpt><trkpt lat="42.809285" lon="13.5409618"><ele>525.8</ele><time>2026-04-18T08:54:32.876Z</time></trkpt><trkpt lat="42.8093184" lon="13.5407951"><ele>525.6</ele><time>2026-04-18T08:54:33.876Z</time></trkpt><trkpt lat="42.8093362" lon="13.5406488"><ele>525.4</ele><time>2026-04-18T08:54:34.876Z</time></trkpt><trkpt lat="42.8093271" lon="13.540522"><ele>525.2</ele><time>2026-04-18T08:54:35.876Z</time></trkpt><trkpt lat="42.8092894" lon="13.5404185"><ele>525.0</ele><time>2026-04-18T08:54:36.876Z</time></trkpt><trkpt lat="42.8092474" lon="13.5403365"><ele>525.0</ele><time>2026-04-18T08:54:37.876Z</time></trkpt><trkpt lat="42.8091756" lon="13.5403476"><ele>525.0</ele><time>2026-04-18T08:54:38.876Z</time></trkpt><trkpt lat="42.8090973" lon="13.5404125"><ele>525.0</ele><time>2026-04-18T08:54:39.876Z</time></trkpt><trkpt lat="42.8090524" lon="13.5405009"><ele>525.0</ele><time>2026-04-18T08:54:40.876Z</time></trkpt><trkpt lat="42.809034" lon="13.5406296"><ele>525.0</ele><time>2026-04-18T08:54:41.875Z</time></trkpt><trkpt lat="42.8090284" lon="13.5407978"><ele>525.0</ele><time>2026-04-18T08:54:42.876Z</time></trkpt><trkpt lat="42.8090137" lon="13.5409812"><ele>525.0</ele><time>2026-04-18T08:54:43.876Z</time></trkpt><trkpt lat="42.8089822" lon="13.5411519"><ele>525.0</ele><time>2026-04-18T08:54:44.876Z</time></trkpt><trkpt lat="42.8089439" lon="13.5413176"><ele>525.0</ele><time>2026-04-18T08:54:45.876Z</time></trkpt><trkpt lat="42.8089101" lon="13.5414767"><ele>525.25</ele><time>2026-04-18T08:54:46.876Z</time></trkpt><trkpt lat="42.8088931" lon="13.5416278"><ele>525.5</ele><time>2026-04-18T08:54:47.876Z</time></trkpt><trkpt lat="42.8088856" lon="13.5417788"><ele>525.75</ele><time>2026-04-18T08:54:48.875Z</time></trkpt><trkpt lat="42.8088907" lon="13.5419358"><ele>526.0</ele><time>2026-04-18T08:54:49.876Z</time></trkpt><trkpt lat="42.8089119" lon="13.542094"><ele>528.75</ele><time>2026-04-18T08:54:50.876Z</time></trkpt><trkpt lat="42.8089573" lon="13.5422457"><ele>531.5</ele><time>2026-04-18T08:54:51.876Z</time></trkpt><trkpt lat="42.8090252" lon="13.5423879"><ele>534.25</ele><time>2026-04-18T08:54:52.876Z</time></trkpt><trkpt lat="42.8091067" lon="13.5425187"><ele>537.0</ele><time>2026-04-18T08:54:53.876Z</time></trkpt><trkpt lat="42.8091904" lon="13.5426605"><ele>537.0</ele><time>2026-04-18T08:54:54.876Z</time></trkpt><trkpt lat="42.8092651" lon="13.5428326"><ele>537.0</ele><time>2026-04-18T08:54:55.876Z</time></trkpt><trkpt lat="42.8093345" lon="13.5430016"><ele>537.0</ele><time>2026-04-18T08:54:56.875Z</time></trkpt><trkpt lat="42.8093813" lon="13.5431638"><ele>537.0</ele><time>2026-04-18T08:54:57.876Z</time></trkpt><trkpt lat="42.8093993" lon="13.5433266"><ele>537.25</ele><time>2026-04-18T08:54:58.876Z</time></trkpt><trkpt lat="42.8094042" lon="13.5434994"><ele>537.5</ele><time>2026-04-18T08:54:59.876Z</time></trkpt><trkpt lat="42.8094334" lon="13.5436742"><ele>537.75</ele><time>2026-04-18T08:55:00.875Z</time></trkpt><trkpt lat="42.8094937" lon="13.5438427"><ele>538.0</ele><time>2026-04-18T08:55:01.876Z</time></trkpt><trkpt lat="42.8095847" lon="13.5440011"><ele>542.3333333333334</ele><time>2026-04-18T08:55:02.876Z</time></trkpt><trkpt lat="42.8097017" lon="13.5441579"><ele>546.6666666666666</ele><time>2026-04-18T08:55:03.876Z</time></trkpt><trkpt lat="42.8098277" lon="13.5443016"><ele>551.0</ele><time>2026-04-18T08:55:04.876Z</time></trkpt><trkpt lat="42.8099528" lon="13.5444309"><ele>551.0</ele><time>2026-04-18T08:55:05.876Z</time></trkpt><trkpt lat="42.8100695" lon="13.5445311"><ele>551.0</ele><time>2026-04-18T08:55:06.876Z</time></trkpt><trkpt lat="42.8101734" lon="13.5446175"><ele>551.0</ele><time>2026-04-18T08:55:07.876Z</time></trkpt><trkpt lat="42.8102657" lon="13.544692"><ele>551.0</ele><time>2026-04-18T08:55:08.876Z</time></trkpt><trkpt lat="42.8103427" lon="13.5447627"><ele>550.4</ele><time>2026-04-18T08:55:09.876Z</time></trkpt><trkpt lat="42.8103976" lon="13.5448376"><ele>549.8</ele><time>2026-04-18T08:55:10.875Z</time></trkpt><trkpt lat="42.810427" lon="13.5449213"><ele>549.1999999999999</ele><time>2026-04-18T08:55:11.876Z</time></trkpt><trkpt lat="42.8103754" lon="13.545046"><ele>548.6</ele><time>2026-04-18T08:55:13.876Z</time></trkpt><trkpt lat="42.8103003" lon="13.5450418"><ele>548.0</ele><time>2026-04-18T08:55:14.876Z</time></trkpt><trkpt lat="42.8101782" lon="13.5450015"><ele>553.25</ele><time>2026-04-18T08:55:15.876Z</time></trkpt><trkpt lat="42.8100452" lon="13.5449536"><ele>558.5</ele><time>2026-04-18T08:55:16.876Z</time></trkpt><trkpt lat="42.8099123" lon="13.5449035"><ele>563.75</ele><time>2026-04-18T08:55:17.875Z</time></trkpt><trkpt lat="42.8097786" lon="13.5448508"><ele>569.0</ele><time>2026-04-18T08:55:18.876Z</time></trkpt><trkpt lat="42.8096574" lon="13.5448104"><ele>569.0</ele><time>2026-04-18T08:55:19.876Z</time></trkpt><trkpt lat="42.8095308" lon="13.5447638"><ele>569.0</ele><time>2026-04-18T08:55:20.875Z</time></trkpt><trkpt lat="42.8094166" lon="13.5447168"><ele>569.0</ele><time>2026-04-18T08:55:21.876Z</time></trkpt><trkpt lat="42.8093121" lon="13.5446683"><ele>569.0</ele><time>2026-04-18T08:55:22.876Z</time></trkpt><trkpt lat="42.8092257" lon="13.5446041"><ele>569.6</ele><time>2026-04-18T08:55:23.876Z</time></trkpt><trkpt lat="42.8091547" lon="13.544515"><ele>570.2</ele><time>2026-04-18T08:55:24.876Z</time></trkpt><trkpt lat="42.8091097" lon="13.5443923"><ele>570.8000000000001</ele><time>2026-04-18T08:55:25.876Z</time></trkpt><trkpt lat="42.8090646" lon="13.5442285"><ele>571.4</ele><time>2026-04-18T08:55:26.876Z</time></trkpt><trkpt lat="42.8090267" lon="13.544089"><ele>572.0</ele><time>2026-04-18T08:55:27.875Z</time></trkpt><trkpt lat="42.8089827" lon="13.5439814"><ele>572.0</ele><time>2026-04-18T08:55:28.875Z</time></trkpt><trkpt lat="42.8089202" lon="13.5439287"><ele>572.0</ele><time>2026-04-18T08:55:29.876Z</time></trkpt><trkpt lat="42.8087906" lon="13.5439728"><ele>572.0</ele><time>2026-04-18T08:55:31.876Z</time></trkpt><trkpt lat="42.8087085" lon="13.5440607"><ele>572.0</ele><time>2026-04-18T08:55:32.875Z</time></trkpt><trkpt lat="42.8086163" lon="13.5442001"><ele>572.0</ele><time>2026-04-18T08:55:33.876Z</time></trkpt><trkpt lat="42.8085238" lon="13.5443325"><ele>573.75</ele><time>2026-04-18T08:55:34.876Z</time></trkpt><trkpt lat="42.8084356" lon="13.5444633"><ele>575.5</ele><time>2026-04-18T08:55:35.875Z</time></trkpt><trkpt lat="42.8083512" lon="13.5445966"><ele>577.25</ele><time>2026-04-18T08:55:36.876Z</time></trkpt><trkpt lat="42.8082651" lon="13.544717"><ele>579.0</ele><time>2026-04-18T08:55:37.875Z</time></trkpt><trkpt lat="42.8081739" lon="13.54482"><ele>582.0</ele><time>2026-04-18T08:55:38.875Z</time></trkpt><trkpt lat="42.8080754" lon="13.5448939"><ele>585.0</ele><time>2026-04-18T08:55:39.876Z</time></trkpt><trkpt lat="42.8079718" lon="13.544942"><ele>588.0</ele><time>2026-04-18T08:55:40.876Z</time></trkpt><trkpt lat="42.8078839" lon="13.5449361"><ele>591.0</ele><time>2026-04-18T08:55:41.876Z</time></trkpt><trkpt lat="42.8077987" lon="13.5448885"><ele>594.0</ele><time>2026-04-18T08:55:42.876Z</time></trkpt><trkpt lat="42.8076977" lon="13.5447917"><ele>595.25</ele><time>2026-04-18T08:55:43.875Z</time></trkpt><trkpt lat="42.8076039" lon="13.5447061"><ele>596.5</ele><time>2026-04-18T08:55:44.876Z</time></trkpt><trkpt lat="42.8074938" lon="13.5446464"><ele>597.75</ele><time>2026-04-18T08:55:45.876Z</time></trkpt><trkpt lat="42.8073625" lon="13.5446201"><ele>599.0</ele><time>2026-04-18T08:55:46.876Z</time></trkpt><trkpt lat="42.8072196" lon="13.5446276"><ele>599.0</ele><time>2026-04-18T08:55:47.876Z</time></trkpt><trkpt lat="42.8070992" lon="13.5446372"><ele>599.0</ele><time>2026-04-18T08:55:48.875Z</time></trkpt><trkpt lat="42.8069838" lon="13.5446074"><ele>599.0</ele><time>2026-04-18T08:55:49.876Z</time></trkpt><trkpt lat="42.8068642" lon="13.5445683"><ele>599.0</ele><time>2026-04-18T08:55:50.876Z</time></trkpt><trkpt lat="42.8067794" lon="13.5444243"><ele>599.75</ele><time>2026-04-18T08:55:51.876Z</time></trkpt><trkpt lat="42.8066938" lon="13.5442818"><ele>600.5</ele><time>2026-04-18T08:55:52.876Z</time></trkpt><trkpt lat="42.8066396" lon="13.5441115"><ele>601.25</ele><time>2026-04-18T08:55:53.876Z</time></trkpt><trkpt lat="42.8066051" lon="13.5439283"><ele>602.0</ele><time>2026-04-18T08:55:54.876Z</time></trkpt><trkpt lat="42.806578" lon="13.5437255"><ele>599.3333333333333</ele><time>2026-04-18T08:55:55.876Z</time></trkpt><trkpt lat="42.8065192" lon="13.5435332"><ele>596.6666666666666</ele><time>2026-04-18T08:55:56.876Z</time></trkpt><trkpt lat="42.8064365" lon="13.5433547"><ele>594.0</ele><time>2026-04-18T08:55:57.876Z</time></trkpt><trkpt lat="42.8063404" lon="13.5431922"><ele>594.0</ele><time>2026-04-18T08:55:58.876Z</time></trkpt><trkpt lat="42.806238" lon="13.5430445"><ele>594.0</ele><time>2026-04-18T08:55:59.875Z</time></trkpt><trkpt lat="42.8061356" lon="13.5429232"><ele>594.0</ele><time>2026-04-18T08:56:00.876Z</time></trkpt><trkpt lat="42.8060136" lon="13.5428439"><ele>594.0</ele><time>2026-04-18T08:56:01.876Z</time></trkpt><trkpt lat="42.8058875" lon="13.5428071"><ele>597.0</ele><time>2026-04-18T08:56:02.876Z</time></trkpt><trkpt lat="42.8057547" lon="13.5427872"><ele>600.0</ele><time>2026-04-18T08:56:03.875Z</time></trkpt><trkpt lat="42.8056219" lon="13.5427657"><ele>603.0</ele><time>2026-04-18T08:56:04.876Z</time></trkpt><trkpt lat="42.8054894" lon="13.5427294"><ele>606.0</ele><time>2026-04-18T08:56:05.876Z</time></trkpt><trkpt lat="42.8053594" lon="13.5426623"><ele>606.0</ele><time>2026-04-18T08:56:06.876Z</time></trkpt><trkpt lat="42.8052288" lon="13.5425755"><ele>606.0</ele><time>2026-04-18T08:56:07.876Z</time></trkpt><trkpt lat="42.8051014" lon="13.5424739"><ele>606.0</ele><time>2026-04-18T08:56:08.876Z</time></trkpt><trkpt lat="42.8049725" lon="13.5423683"><ele>606.0</ele><time>2026-04-18T08:56:09.876Z</time></trkpt><trkpt lat="42.8048513" lon="13.5422885"><ele>609.0</ele><time>2026-04-18T08:56:10.875Z</time></trkpt><trkpt lat="42.8047331" lon="13.5422443"><ele>612.0</ele><time>2026-04-18T08:56:11.876Z</time></trkpt><trkpt lat="42.8046086" lon="13.5422448"><ele>615.0</ele><time>2026-04-18T08:56:12.876Z</time></trkpt><trkpt lat="42.8044683" lon="13.5422466"><ele>618.0</ele><time>2026-04-18T08:56:13.875Z</time></trkpt><trkpt lat="42.8043124" lon="13.542227"><ele>614.3333333333334</ele><time>2026-04-18T08:56:14.876Z</time></trkpt><trkpt lat="42.8041553" lon="13.5421803"><ele>610.6666666666667</ele><time>2026-04-18T08:56:15.876Z</time></trkpt><trkpt lat="42.804009" lon="13.5420964"><ele>607.0</ele><time>2026-04-18T08:56:16.876Z</time></trkpt><trkpt lat="42.8038806" lon="13.5419952"><ele>607.0</ele><time>2026-04-18T08:56:17.876Z</time></trkpt><trkpt lat="42.8037755" lon="13.5418816"><ele>607.0</ele><time>2026-04-18T08:56:18.876Z</time></trkpt><trkpt lat="42.8036876" lon="13.5417445"><ele>607.0</ele><time>2026-04-18T08:56:19.876Z</time></trkpt><trkpt lat="42.8036112" lon="13.5415884"><ele>607.0</ele><time>2026-04-18T08:56:20.876Z</time></trkpt><trkpt lat="42.8035322" lon="13.5414457"><ele>608.0</ele><time>2026-04-18T08:56:21.876Z</time></trkpt><trkpt lat="42.8034431" lon="13.5413287"><ele>609.0</ele><time>2026-04-18T08:56:22.876Z</time></trkpt><trkpt lat="42.8033359" lon="13.541229"><ele>610.0</ele><time>2026-04-18T08:56:23.876Z</time></trkpt><trkpt lat="42.8032177" lon="13.5411501"><ele>611.0</ele><time>2026-04-18T08:56:24.876Z</time></trkpt><trkpt lat="42.803112" lon="13.5410715"><ele>611.0</ele><time>2026-04-18T08:56:25.876Z</time></trkpt><trkpt lat="42.8030241" lon="13.5409774"><ele>611.0</ele><time>2026-04-18T08:56:26.876Z</time></trkpt><trkpt lat="42.8029351" lon="13.5409069"><ele>611.0</ele><time>2026-04-18T08:56:27.876Z</time></trkpt><trkpt lat="42.8028355" lon="13.5408596"><ele>611.0</ele><time>2026-04-18T08:56:28.875Z</time></trkpt><trkpt lat="42.8027294" lon="13.5408435"><ele>611.0</ele><time>2026-04-18T08:56:29.876Z</time></trkpt><trkpt lat="42.8026246" lon="13.540869"><ele>613.5</ele><time>2026-04-18T08:56:30.876Z</time></trkpt><trkpt lat="42.802529" lon="13.5409345"><ele>616.0</ele><time>2026-04-18T08:56:31.876Z</time></trkpt><trkpt lat="42.8024405" lon="13.5410484"><ele>618.5</ele><time>2026-04-18T08:56:32.876Z</time></trkpt><trkpt lat="42.8023647" lon="13.5411794"><ele>621.0</ele><time>2026-04-18T08:56:33.876Z</time></trkpt><trkpt lat="42.8023085" lon="13.5413024"><ele>625.8</ele><time>2026-04-18T08:56:34.875Z</time></trkpt><trkpt lat="42.8022619" lon="13.5414114"><ele>630.6</ele><time>2026-04-18T08:56:35.875Z</time></trkpt><trkpt lat="42.8022149" lon="13.5415037"><ele>635.4</ele><time>2026-04-18T08:56:36.876Z</time></trkpt><trkpt lat="42.8021638" lon="13.5415697"><ele>640.2</ele><time>2026-04-18T08:56:37.875Z</time></trkpt><trkpt lat="42.802011" lon="13.5415945"><ele>645.0</ele><time>2026-04-18T08:56:39.876Z</time></trkpt><trkpt lat="42.8019011" lon="13.5415701"><ele>645.5</ele><time>2026-04-18T08:56:40.876Z</time></trkpt><trkpt lat="42.8018003" lon="13.5415288"><ele>646.0</ele><time>2026-04-18T08:56:41.876Z</time></trkpt><trkpt lat="42.8017073" lon="13.5414643"><ele>646.5</ele><time>2026-04-18T08:56:42.876Z</time></trkpt><trkpt lat="42.8016218" lon="13.5413645"><ele>647.0</ele><time>2026-04-18T08:56:43.876Z</time></trkpt><trkpt lat="42.8015312" lon="13.5412208"><ele>641.75</ele><time>2026-04-18T08:56:44.876Z</time></trkpt><trkpt lat="42.8014355" lon="13.5410433"><ele>636.5</ele><time>2026-04-18T08:56:45.876Z</time></trkpt><trkpt lat="42.8013496" lon="13.5408812"><ele>631.25</ele><time>2026-04-18T08:56:46.876Z</time></trkpt><trkpt lat="42.8012771" lon="13.5407438"><ele>626.0</ele><time>2026-04-18T08:56:47.876Z</time></trkpt><trkpt lat="42.801195" lon="13.5406333"><ele>626.0</ele><time>2026-04-18T08:56:48.875Z</time></trkpt><trkpt lat="42.801089" lon="13.5405397"><ele>626.0</ele><time>2026-04-18T08:56:49.876Z</time></trkpt><trkpt lat="42.800974" lon="13.5404564"><ele>626.0</ele><time>2026-04-18T08:56:50.875Z</time></trkpt><trkpt lat="42.8008616" lon="13.5403544"><ele>626.0</ele><time>2026-04-18T08:56:51.876Z</time></trkpt><trkpt lat="42.8007605" lon="13.5402264"><ele>629.25</ele><time>2026-04-18T08:56:52.876Z</time></trkpt><trkpt lat="42.8006575" lon="13.5400946"><ele>632.5</ele><time>2026-04-18T08:56:53.875Z</time></trkpt><trkpt lat="42.8005538" lon="13.5399474"><ele>635.75</ele><time>2026-04-18T08:56:54.876Z</time></trkpt><trkpt lat="42.8004441" lon="13.539809"><ele>639.0</ele><time>2026-04-18T08:56:55.876Z</time></trkpt><trkpt lat="42.8003532" lon="13.5396697"><ele>642.75</ele><time>2026-04-18T08:56:56.876Z</time></trkpt><trkpt lat="42.8002698" lon="13.5395005"><ele>646.5</ele><time>2026-04-18T08:56:57.876Z</time></trkpt><trkpt lat="42.8002059" lon="13.5393296"><ele>650.25</ele><time>2026-04-18T08:56:58.876Z</time></trkpt><trkpt lat="42.8001522" lon="13.5391544"><ele>654.0</ele><time>2026-04-18T08:56:59.876Z</time></trkpt><trkpt lat="42.8000895" lon="13.5390112"><ele>654.0</ele><time>2026-04-18T08:57:00.876Z</time></trkpt><trkpt lat="42.8000187" lon="13.5388943"><ele>654.0</ele><time>2026-04-18T08:57:01.876Z</time></trkpt><trkpt lat="42.799915" lon="13.5387922"><ele>654.0</ele><time>2026-04-18T08:57:02.876Z</time></trkpt><trkpt lat="42.7998045" lon="13.5387084"><ele>654.0</ele><time>2026-04-18T08:57:03.876Z</time></trkpt><trkpt lat="42.7996917" lon="13.5386321"><ele>655.2</ele><time>2026-04-18T08:57:04.876Z</time></trkpt><trkpt lat="42.7995816" lon="13.538591"><ele>656.4000000000001</ele><time>2026-04-18T08:57:05.876Z</time></trkpt><trkpt lat="42.7994838" lon="13.5385831"><ele>657.6</ele><time>2026-04-18T08:57:06.876Z</time></trkpt><trkpt lat="42.7993902" lon="13.5386083"><ele>658.8</ele><time>2026-04-18T08:57:07.876Z</time></trkpt><trkpt lat="42.7992868" lon="13.5386526"><ele>660.0</ele><time>2026-04-18T08:57:08.876Z</time></trkpt><trkpt lat="42.7991875" lon="13.5387871"><ele>660.0</ele><time>2026-04-18T08:57:09.876Z</time></trkpt><trkpt lat="42.7990907" lon="13.5389286"><ele>660.0</ele><time>2026-04-18T08:57:10.876Z</time></trkpt><trkpt lat="42.7989979" lon="13.5390995"><ele>660.0</ele><time>2026-04-18T08:57:11.876Z</time></trkpt><trkpt lat="42.7989096" lon="13.5392876"><ele>660.0</ele><time>2026-04-18T08:57:12.875Z</time></trkpt><trkpt lat="42.7988257" lon="13.5394734"><ele>660.0</ele><time>2026-04-18T08:57:13.876Z</time></trkpt><trkpt lat="42.7987424" lon="13.5396511"><ele>660.0</ele><time>2026-04-18T08:57:14.875Z</time></trkpt><trkpt lat="42.7986634" lon="13.5398255"><ele>660.25</ele><time>2026-04-18T08:57:15.876Z</time></trkpt><trkpt lat="42.7985729" lon="13.5399843"><ele>660.5</ele><time>2026-04-18T08:57:16.876Z</time></trkpt><trkpt lat="42.7984704" lon="13.5401352"><ele>660.75</ele><time>2026-04-18T08:57:17.876Z</time></trkpt><trkpt lat="42.7983577" lon="13.5402651"><ele>661.0</ele><time>2026-04-18T08:57:18.876Z</time></trkpt><trkpt lat="42.7982386" lon="13.5403869"><ele>666.25</ele><time>2026-04-18T08:57:19.876Z</time></trkpt><trkpt lat="42.7981178" lon="13.5405021"><ele>671.5</ele><time>2026-04-18T08:57:20.875Z</time></trkpt><trkpt lat="42.7979966" lon="13.5406151"><ele>676.75</ele><time>2026-04-18T08:57:21.875Z</time></trkpt><trkpt lat="42.7978739" lon="13.540726"><ele>682.0</ele><time>2026-04-18T08:57:22.876Z</time></trkpt><trkpt lat="42.7977509" lon="13.5408364"><ele>684.5</ele><time>2026-04-18T08:57:23.876Z</time></trkpt><trkpt lat="42.7976263" lon="13.5409453"><ele>687.0</ele><time>2026-04-18T08:57:24.876Z</time></trkpt><trkpt lat="42.7975034" lon="13.5410602"><ele>689.5</ele><time>2026-04-18T08:57:25.876Z</time></trkpt><trkpt lat="42.7973871" lon="13.5411868"><ele>692.0</ele><time>2026-04-18T08:57:26.876Z</time></trkpt><trkpt lat="42.7972862" lon="13.5413258"><ele>692.0</ele><time>2026-04-18T08:57:27.876Z</time></trkpt><trkpt lat="42.7972008" lon="13.5414671"><ele>692.0</ele><time>2026-04-18T08:57:28.876Z</time></trkpt><trkpt lat="42.797134" lon="13.5416185"><ele>692.0</ele><time>2026-04-18T08:57:29.876Z</time></trkpt><trkpt lat="42.7970869" lon="13.5417793"><ele>692.0</ele><time>2026-04-18T08:57:30.876Z</time></trkpt><trkpt lat="42.7970503" lon="13.5419377"><ele>695.25</ele><time>2026-04-18T08:57:31.876Z</time></trkpt><trkpt lat="42.7970195" lon="13.5420961"><ele>698.5</ele><time>2026-04-18T08:57:32.876Z</time></trkpt><trkpt lat="42.7969941" lon="13.5422591"><ele>701.75</ele><time>2026-04-18T08:57:33.876Z</time></trkpt><trkpt lat="42.7969654" lon="13.5424237"><ele>705.0</ele><time>2026-04-18T08:57:34.876Z</time></trkpt><trkpt lat="42.7969402" lon="13.542592"><ele>705.0</ele><time>2026-04-18T08:57:35.876Z</time></trkpt><trkpt lat="42.7969175" lon="13.5427616"><ele>705.0</ele><time>2026-04-18T08:57:36.876Z</time></trkpt><trkpt lat="42.7968903" lon="13.5429467"><ele>705.0</ele><time>2026-04-18T08:57:37.876Z</time></trkpt><trkpt lat="42.7968597" lon="13.5431357"><ele>705.0</ele><time>2026-04-18T08:57:38.876Z</time></trkpt><trkpt lat="42.7968204" lon="13.5433295"><ele>702.75</ele><time>2026-04-18T08:57:39.876Z</time></trkpt><trkpt lat="42.7967701" lon="13.5435236"><ele>700.5</ele><time>2026-04-18T08:57:40.876Z</time></trkpt><trkpt lat="42.7967072" lon="13.5436977"><ele>698.25</ele><time>2026-04-18T08:57:41.876Z</time></trkpt><trkpt lat="42.7966435" lon="13.5438663"><ele>696.0</ele><time>2026-04-18T08:57:42.876Z</time></trkpt><trkpt lat="42.7965705" lon="13.5440304"><ele>696.0</ele><time>2026-04-18T08:57:43.875Z</time></trkpt><trkpt lat="42.7964974" lon="13.544166"><ele>696.0</ele><time>2026-04-18T08:57:44.876Z</time></trkpt><trkpt lat="42.796421" lon="13.5442837"><ele>696.0</ele><time>2026-04-18T08:57:45.876Z</time></trkpt><trkpt lat="42.796337" lon="13.5443789"><ele>696.0</ele><time>2026-04-18T08:57:46.876Z</time></trkpt><trkpt lat="42.7962431" lon="13.5444609"><ele>696.0</ele><time>2026-04-18T08:57:47.876Z</time></trkpt><trkpt lat="42.7961344" lon="13.5445391"><ele>696.0</ele><time>2026-04-18T08:57:48.876Z</time></trkpt><trkpt lat="42.7960151" lon="13.544633"><ele>696.0</ele><time>2026-04-18T08:57:49.876Z</time></trkpt><trkpt lat="42.7959028" lon="13.5447392"><ele>696.0</ele><time>2026-04-18T08:57:50.876Z</time></trkpt><trkpt lat="42.7957915" lon="13.5448518"><ele>694.75</ele><time>2026-04-18T08:57:51.875Z</time></trkpt><trkpt lat="42.7956818" lon="13.544977"><ele>693.5</ele><time>2026-04-18T08:57:52.876Z</time></trkpt><trkpt lat="42.7955734" lon="13.5451"><ele>692.25</ele><time>2026-04-18T08:57:53.875Z</time></trkpt><trkpt lat="42.7954638" lon="13.5452193"><ele>691.0</ele><time>2026-04-18T08:57:54.875Z</time></trkpt><trkpt lat="42.7953533" lon="13.5453209"><ele>692.5</ele><time>2026-04-18T08:57:55.876Z</time></trkpt><trkpt lat="42.7952436" lon="13.5454007"><ele>694.0</ele><time>2026-04-18T08:57:56.876Z</time></trkpt><trkpt lat="42.7951321" lon="13.5454507"><ele>695.5</ele><time>2026-04-18T08:57:57.876Z</time></trkpt><trkpt lat="42.7950171" lon="13.545486"><ele>697.0</ele><time>2026-04-18T08:57:58.876Z</time></trkpt><trkpt lat="42.7949002" lon="13.5455277"><ele>697.0</ele><time>2026-04-18T08:57:59.876Z</time></trkpt><trkpt lat="42.7947801" lon="13.5455977"><ele>697.0</ele><time>2026-04-18T08:58:00.876Z</time></trkpt><trkpt lat="42.7946648" lon="13.5456923"><ele>697.0</ele><time>2026-04-18T08:58:01.876Z</time></trkpt><trkpt lat="42.7945501" lon="13.545792"><ele>697.0</ele><time>2026-04-18T08:58:02.876Z</time></trkpt><trkpt lat="42.7944466" lon="13.5459338"><ele>697.0</ele><time>2026-04-18T08:58:03.876Z</time></trkpt><trkpt lat="42.7943466" lon="13.5460773"><ele>697.0</ele><time>2026-04-18T08:58:04.875Z</time></trkpt><trkpt lat="42.7942589" lon="13.5462448"><ele>697.0</ele><time>2026-04-18T08:58:05.876Z</time></trkpt><trkpt lat="42.7941903" lon="13.5464318"><ele>697.75</ele><time>2026-04-18T08:58:06.875Z</time></trkpt><trkpt lat="42.7941325" lon="13.5466233"><ele>698.5</ele><time>2026-04-18T08:58:07.876Z</time></trkpt><trkpt lat="42.7940829" lon="13.546809"><ele>699.25</ele><time>2026-04-18T08:58:08.876Z</time></trkpt><trkpt lat="42.794039" lon="13.5469767"><ele>700.0</ele><time>2026-04-18T08:58:09.876Z</time></trkpt><trkpt lat="42.7939868" lon="13.5471432"><ele>700.0</ele><time>2026-04-18T08:58:10.876Z</time></trkpt><trkpt lat="42.7939204" lon="13.5473018"><ele>700.0</ele><time>2026-04-18T08:58:11.876Z</time></trkpt><trkpt lat="42.7938356" lon="13.5474528"><ele>700.0</ele><time>2026-04-18T08:58:12.875Z</time></trkpt><trkpt lat="42.7937268" lon="13.5475857"><ele>700.0</ele><time>2026-04-18T08:58:13.876Z</time></trkpt><trkpt lat="42.7935903" lon="13.5476912"><ele>696.0</ele><time>2026-04-18T08:58:14.876Z</time></trkpt><trkpt lat="42.7934408" lon="13.5477801"><ele>692.0</ele><time>2026-04-18T08:58:15.876Z</time></trkpt><trkpt lat="42.7932941" lon="13.5478694"><ele>688.0</ele><time>2026-04-18T08:58:16.876Z</time></trkpt><trkpt lat="42.7931515" lon="13.5479518"><ele>688.0</ele><time>2026-04-18T08:58:17.876Z</time></trkpt><trkpt lat="42.7930151" lon="13.5480393"><ele>688.0</ele><time>2026-04-18T08:58:18.875Z</time></trkpt><trkpt lat="42.79289" lon="13.5481263"><ele>688.0</ele><time>2026-04-18T08:58:19.875Z</time></trkpt><trkpt lat="42.7927938" lon="13.5482121"><ele>688.0</ele><time>2026-04-18T08:58:20.876Z</time></trkpt><trkpt lat="42.7927256" lon="13.5483196"><ele>688.0</ele><time>2026-04-18T08:58:21.875Z</time></trkpt><trkpt lat="42.7926979" lon="13.5484483"><ele>688.0</ele><time>2026-04-18T08:58:22.876Z</time></trkpt><trkpt lat="42.7927017" lon="13.5486135"><ele>688.0</ele><time>2026-04-18T08:58:23.875Z</time></trkpt><trkpt lat="42.7927275" lon="13.5488067"><ele>688.0</ele><time>2026-04-18T08:58:24.876Z</time></trkpt><trkpt lat="42.7927471" lon="13.5490113"><ele>686.75</ele><time>2026-04-18T08:58:25.876Z</time></trkpt><trkpt lat="42.7927448" lon="13.5492021"><ele>685.5</ele><time>2026-04-18T08:58:26.875Z</time></trkpt><trkpt lat="42.7927127" lon="13.549366"><ele>684.25</ele><time>2026-04-18T08:58:27.876Z</time></trkpt><trkpt lat="42.7926653" lon="13.5495166"><ele>683.0</ele><time>2026-04-18T08:58:28.876Z</time></trkpt><trkpt lat="42.7925811" lon="13.5496547"><ele>683.0</ele><time>2026-04-18T08:58:29.876Z</time></trkpt><trkpt lat="42.792498" lon="13.5498003"><ele>683.0</ele><time>2026-04-18T08:58:30.876Z</time></trkpt><trkpt lat="42.7924118" lon="13.5499374"><ele>683.0</ele><time>2026-04-18T08:58:31.876Z</time></trkpt><trkpt lat="42.7923213" lon="13.5500781"><ele>683.0</ele><time>2026-04-18T08:58:32.876Z</time></trkpt><trkpt lat="42.7922408" lon="13.5502076"><ele>683.0</ele><time>2026-04-18T08:58:33.876Z</time></trkpt><trkpt lat="42.7921552" lon="13.5503324"><ele>683.0</ele><time>2026-04-18T08:58:34.876Z</time></trkpt><trkpt lat="42.7920733" lon="13.5504546"><ele>683.0</ele><time>2026-04-18T08:58:35.876Z</time></trkpt><trkpt lat="42.7919982" lon="13.5505906"><ele>683.0</ele><time>2026-04-18T08:58:36.876Z</time></trkpt><trkpt lat="42.7919401" lon="13.5507352"><ele>685.25</ele><time>2026-04-18T08:58:37.875Z</time></trkpt><trkpt lat="42.7919057" lon="13.5508903"><ele>687.5</ele><time>2026-04-18T08:58:38.876Z</time></trkpt><trkpt lat="42.7918714" lon="13.5510517"><ele>689.75</ele><time>2026-04-18T08:58:39.876Z</time></trkpt><trkpt lat="42.7918237" lon="13.5512113"><ele>692.0</ele><time>2026-04-18T08:58:40.876Z</time></trkpt><trkpt lat="42.791759" lon="13.5513576"><ele>692.0</ele><time>2026-04-18T08:58:41.876Z</time></trkpt><trkpt lat="42.7916694" lon="13.5514856"><ele>692.0</ele><time>2026-04-18T08:58:42.876Z</time></trkpt><trkpt lat="42.791564" lon="13.5515793"><ele>692.0</ele><time>2026-04-18T08:58:43.875Z</time></trkpt><trkpt lat="42.791461" lon="13.5516819"><ele>692.0</ele><time>2026-04-18T08:58:44.876Z</time></trkpt><trkpt lat="42.7913655" lon="13.5518188"><ele>692.0</ele><time>2026-04-18T08:58:45.876Z</time></trkpt><trkpt lat="42.7912895" lon="13.5519767"><ele>692.0</ele><time>2026-04-18T08:58:46.875Z</time></trkpt><trkpt lat="42.7912383" lon="13.5521482"><ele>692.0</ele><time>2026-04-18T08:58:47.875Z</time></trkpt><trkpt lat="42.7912129" lon="13.5523097"><ele>692.0</ele><time>2026-04-18T08:58:48.875Z</time></trkpt><trkpt lat="42.7911984" lon="13.5524494"><ele>693.5</ele><time>2026-04-18T08:58:49.875Z</time></trkpt><trkpt lat="42.7911911" lon="13.55257"><ele>695.0</ele><time>2026-04-18T08:58:50.876Z</time></trkpt><trkpt lat="42.7911882" lon="13.5526848"><ele>696.5</ele><time>2026-04-18T08:58:51.876Z</time></trkpt><trkpt lat="42.7911917" lon="13.5527981"><ele>698.0</ele><time>2026-04-18T08:58:52.876Z</time></trkpt><trkpt lat="42.791194" lon="13.5528954"><ele>699.5</ele><time>2026-04-18T08:58:53.876Z</time></trkpt><trkpt lat="42.7912029" lon="13.5530579"><ele>701.0</ele><time>2026-04-18T08:58:55.876Z</time></trkpt><trkpt lat="42.791202" lon="13.5531474"><ele>700.5999999999999</ele><time>2026-04-18T08:58:56.876Z</time></trkpt><trkpt lat="42.7911975" lon="13.553259"><ele>700.2</ele><time>2026-04-18T08:58:57.876Z</time></trkpt><trkpt lat="42.7911721" lon="13.5533768"><ele>699.8</ele><time>2026-04-18T08:58:58.876Z</time></trkpt><trkpt lat="42.7911238" lon="13.5534944"><ele>699.4000000000001</ele><time>2026-04-18T08:58:59.876Z</time></trkpt><trkpt lat="42.7910474" lon="13.5535984"><ele>699.0</ele><time>2026-04-18T08:59:00.876Z</time></trkpt><trkpt lat="42.790954" lon="13.5536658"><ele>699.0</ele><time>2026-04-18T08:59:01.876Z</time></trkpt><trkpt lat="42.7908688" lon="13.5536779"><ele>699.0</ele><time>2026-04-18T08:59:02.876Z</time></trkpt><trkpt lat="42.7907783" lon="13.5536509"><ele>699.0</ele><time>2026-04-18T08:59:03.876Z</time></trkpt><trkpt lat="42.7906612" lon="13.553592"><ele>699.0</ele><time>2026-04-18T08:59:04.875Z</time></trkpt><trkpt lat="42.790507" lon="13.5535456"><ele>699.0</ele><time>2026-04-18T08:59:05.875Z</time></trkpt><trkpt lat="42.7903457" lon="13.5535253"><ele>699.0</ele><time>2026-04-18T08:59:06.876Z</time></trkpt><trkpt lat="42.7901866" lon="13.5535384"><ele>699.0</ele><time>2026-04-18T08:59:07.875Z</time></trkpt><trkpt lat="42.7900379" lon="13.5535697"><ele>699.5</ele><time>2026-04-18T08:59:08.876Z</time></trkpt><trkpt lat="42.7899021" lon="13.5536024"><ele>700.0</ele><time>2026-04-18T08:59:09.876Z</time></trkpt><trkpt lat="42.7897843" lon="13.5536333"><ele>700.5</ele><time>2026-04-18T08:59:10.876Z</time></trkpt><trkpt lat="42.7896792" lon="13.5536621"><ele>701.0</ele><time>2026-04-18T08:59:11.876Z</time></trkpt><trkpt lat="42.7895743" lon="13.5536959"><ele>704.6666666666666</ele><time>2026-04-18T08:59:12.876Z</time></trkpt><trkpt lat="42.7894858" lon="13.5537316"><ele>708.3333333333333</ele><time>2026-04-18T08:59:13.876Z</time></trkpt><trkpt lat="42.7894028" lon="13.5537682"><ele>712.0</ele><time>2026-04-18T08:59:14.876Z</time></trkpt><trkpt lat="42.7893364" lon="13.5538016"><ele>715.6666666666666</ele><time>2026-04-18T08:59:15.875Z</time></trkpt><trkpt lat="42.7892502" lon="13.5538289"><ele>719.3333333333334</ele><time>2026-04-18T08:59:17.876Z</time></trkpt><trkpt lat="42.789184" lon="13.5538746"><ele>723.0</ele><time>2026-04-18T08:59:20.876Z</time></trkpt><trkpt lat="42.7890893" lon="13.5538998"><ele>723.0</ele><time>2026-04-18T09:00:03.876Z</time></trkpt><trkpt lat="42.7889527" lon="13.5539445"><ele>723.0</ele><time>2026-04-18T09:00:05.876Z</time></trkpt><trkpt lat="42.7888705" lon="13.5539674"><ele>723.0</ele><time>2026-04-18T09:00:06.876Z</time></trkpt><trkpt lat="42.7887828" lon="13.5540011"><ele>723.0</ele><time>2026-04-18T09:00:07.876Z</time></trkpt><trkpt lat="42.7886929" lon="13.5540368"><ele>723.0</ele><time>2026-04-18T09:00:08.876Z</time></trkpt><trkpt lat="42.7885975" lon="13.554064"><ele>723.0</ele><time>2026-04-18T09:00:09.876Z</time></trkpt><trkpt lat="42.7885065" lon="13.554088"><ele>723.0</ele><time>2026-04-18T09:00:10.876Z</time></trkpt><trkpt lat="42.7884055" lon="13.5541144"><ele>723.0</ele><time>2026-04-18T09:00:11.876Z</time></trkpt><trkpt lat="42.7882964" lon="13.5541581"><ele>723.0</ele><time>2026-04-18T09:00:12.876Z</time></trkpt><trkpt lat="42.7881845" lon="13.5542095"><ele>723.0</ele><time>2026-04-18T09:00:13.876Z</time></trkpt><trkpt lat="42.7880393" lon="13.5542846"><ele>723.0</ele><time>2026-04-18T09:00:14.876Z</time></trkpt><trkpt lat="42.7879147" lon="13.5543563"><ele>723.0</ele><time>2026-04-18T09:00:15.876Z</time></trkpt><trkpt lat="42.7878201" lon="13.5544227"><ele>723.0</ele><time>2026-04-18T09:00:16.876Z</time></trkpt><trkpt lat="42.7877523" lon="13.5544886"><ele>723.0</ele><time>2026-04-18T09:00:17.876Z</time></trkpt><trkpt lat="42.7877189" lon="13.5545638"><ele>723.0</ele><time>2026-04-18T09:00:18.876Z</time></trkpt><trkpt lat="42.7877352" lon="13.5547046"><ele>728.5</ele><time>2026-04-18T09:00:20.875Z</time></trkpt><trkpt lat="42.787868" lon="13.5547775"><ele>734.0</ele><time>2026-04-18T09:00:22.876Z</time></trkpt><trkpt lat="42.7879743" lon="13.5548075"><ele>739.5</ele><time>2026-04-18T09:00:23.876Z</time></trkpt><trkpt lat="42.7880871" lon="13.5548579"><ele>745.0</ele><time>2026-04-18T09:00:24.876Z</time></trkpt><trkpt lat="42.7882132" lon="13.5549136"><ele>745.0</ele><time>2026-04-18T09:00:25.876Z</time></trkpt><trkpt lat="42.7883492" lon="13.5549648"><ele>745.0</ele><time>2026-04-18T09:00:26.875Z</time></trkpt><trkpt lat="42.7884797" lon="13.5550067"><ele>745.0</ele><time>2026-04-18T09:00:27.876Z</time></trkpt><trkpt lat="42.7886084" lon="13.555027"><ele>745.0</ele><time>2026-04-18T09:00:28.876Z</time></trkpt><trkpt lat="42.7887495" lon="13.5550186"><ele>746.0</ele><time>2026-04-18T09:00:29.876Z</time></trkpt><trkpt lat="42.7888981" lon="13.5550005"><ele>747.0</ele><time>2026-04-18T09:00:30.876Z</time></trkpt><trkpt lat="42.7890506" lon="13.5549738"><ele>748.0</ele><time>2026-04-18T09:00:31.876Z</time></trkpt><trkpt lat="42.7892042" lon="13.5549684"><ele>749.0</ele><time>2026-04-18T09:00:32.876Z</time></trkpt><trkpt lat="42.7893515" lon="13.5549766"><ele>750.0</ele><time>2026-04-18T09:00:33.876Z</time></trkpt><trkpt lat="42.7894776" lon="13.5549794"><ele>751.0</ele><time>2026-04-18T09:00:34.876Z</time></trkpt><trkpt lat="42.7895931" lon="13.5549792"><ele>752.0</ele><time>2026-04-18T09:00:35.876Z</time></trkpt><trkpt lat="42.7896888" lon="13.5549874"><ele>752.0</ele><time>2026-04-18T09:00:36.876Z</time></trkpt><trkpt lat="42.7897706" lon="13.5550064"><ele>752.0</ele><time>2026-04-18T09:00:37.876Z</time></trkpt><trkpt lat="42.789827" lon="13.5550469"><ele>752.0</ele><time>2026-04-18T09:00:38.876Z</time></trkpt><trkpt lat="42.7898544" lon="13.5551777"><ele>752.0</ele><time>2026-04-18T09:00:40.876Z</time></trkpt><trkpt lat="42.7897431" lon="13.5552735"><ele>752.0</ele><time>2026-04-18T09:00:42.876Z</time></trkpt><trkpt lat="42.789633" lon="13.555284"><ele>752.0</ele><time>2026-04-18T09:00:43.876Z</time></trkpt><trkpt lat="42.7895158" lon="13.5552691"><ele>752.0</ele><time>2026-04-18T09:00:44.876Z</time></trkpt><trkpt lat="42.7893913" lon="13.5552551"><ele>752.0</ele><time>2026-04-18T09:00:45.876Z</time></trkpt><trkpt lat="42.7892426" lon="13.5552646"><ele>752.0</ele><time>2026-04-18T09:00:46.876Z</time></trkpt><trkpt lat="42.7890666" lon="13.5553175"><ele>759.3333333333333</ele><time>2026-04-18T09:00:47.876Z</time></trkpt><trkpt lat="42.7888804" lon="13.5553954"><ele>766.6666666666666</ele><time>2026-04-18T09:00:48.876Z</time></trkpt><trkpt lat="42.7887025" lon="13.5554823"><ele>774.0</ele><time>2026-04-18T09:00:49.876Z</time></trkpt><trkpt lat="42.7885427" lon="13.5555651"><ele>773.25</ele><time>2026-04-18T09:00:50.875Z</time></trkpt><trkpt lat="42.7884007" lon="13.5556492"><ele>772.5</ele><time>2026-04-18T09:00:51.875Z</time></trkpt><trkpt lat="42.7882712" lon="13.5557325"><ele>771.75</ele><time>2026-04-18T09:00:52.876Z</time></trkpt><trkpt lat="42.7881504" lon="13.5558063"><ele>771.0</ele><time>2026-04-18T09:00:53.876Z</time></trkpt><trkpt lat="42.7880464" lon="13.5558877"><ele>771.0</ele><time>2026-04-18T09:00:54.876Z</time></trkpt><trkpt lat="42.7879407" lon="13.5559879"><ele>771.0</ele><time>2026-04-18T09:00:55.876Z</time></trkpt><trkpt lat="42.7878509" lon="13.5561058"><ele>771.0</ele><time>2026-04-18T09:00:56.876Z</time></trkpt><trkpt lat="42.7877823" lon="13.5562522"><ele>771.0</ele><time>2026-04-18T09:00:57.876Z</time></trkpt><trkpt lat="42.7877197" lon="13.5563959"><ele>771.25</ele><time>2026-04-18T09:00:58.876Z</time></trkpt><trkpt lat="42.7876598" lon="13.5565836"><ele>771.5</ele><time>2026-04-18T09:00:59.876Z</time></trkpt><trkpt lat="42.7875925" lon="13.556756"><ele>771.75</ele><time>2026-04-18T09:01:00.876Z</time></trkpt><trkpt lat="42.787523" lon="13.5569253"><ele>772.0</ele><time>2026-04-18T09:01:01.876Z</time></trkpt><trkpt lat="42.7874551" lon="13.5570872"><ele>776.25</ele><time>2026-04-18T09:01:02.875Z</time></trkpt><trkpt lat="42.7873944" lon="13.557246"><ele>780.5</ele><time>2026-04-18T09:01:03.876Z</time></trkpt><trkpt lat="42.7873315" lon="13.5574034"><ele>784.75</ele><time>2026-04-18T09:01:04.876Z</time></trkpt><trkpt lat="42.7872659" lon="13.5575551"><ele>789.0</ele><time>2026-04-18T09:01:05.875Z</time></trkpt><trkpt lat="42.7871907" lon="13.5576987"><ele>789.0</ele><time>2026-04-18T09:01:06.875Z</time></trkpt><trkpt lat="42.7871107" lon="13.5578374"><ele>789.0</ele><time>2026-04-18T09:01:07.876Z</time></trkpt><trkpt lat="42.7869954" lon="13.5579167"><ele>789.0</ele><time>2026-04-18T09:01:08.876Z</time></trkpt><trkpt lat="42.7868928" lon="13.5580036"><ele>789.0</ele><time>2026-04-18T09:01:09.876Z</time></trkpt><trkpt lat="42.7867964" lon="13.5580779"><ele>789.2</ele><time>2026-04-18T09:01:10.876Z</time></trkpt><trkpt lat="42.7867153" lon="13.558153"><ele>789.4000000000001</ele><time>2026-04-18T09:01:11.876Z</time></trkpt><trkpt lat="42.786645" lon="13.5582415"><ele>789.6</ele><time>2026-04-18T09:01:12.875Z</time></trkpt><trkpt lat="42.7865921" lon="13.5583512"><ele>789.8</ele><time>2026-04-18T09:01:13.876Z</time></trkpt><trkpt lat="42.786548" lon="13.558457"><ele>790.0</ele><time>2026-04-18T09:01:14.875Z</time></trkpt><trkpt lat="42.7864972" lon="13.5585329"><ele>789.9999999999999</ele><time>2026-04-18T09:01:15.875Z</time></trkpt><trkpt lat="42.7864368" lon="13.5585772"><ele>790.0</ele><time>2026-04-18T09:01:16.875Z</time></trkpt><trkpt lat="42.7863643" lon="13.5585961"><ele>790.0</ele><time>2026-04-18T09:01:17.876Z</time></trkpt><trkpt lat="42.7862891" lon="13.5585887"><ele>790.0</ele><time>2026-04-18T09:01:18.876Z</time></trkpt><trkpt lat="42.7862064" lon="13.5585579"><ele>789.9999999999999</ele><time>2026-04-18T09:01:19.875Z</time></trkpt><trkpt lat="42.7861177" lon="13.5585018"><ele>790.0</ele><time>2026-04-18T09:01:20.876Z</time></trkpt><trkpt lat="42.7860239" lon="13.5584247"><ele>792.75</ele><time>2026-04-18T09:01:21.875Z</time></trkpt><trkpt lat="42.7859215" lon="13.5583307"><ele>795.5</ele><time>2026-04-18T09:01:22.876Z</time></trkpt><trkpt lat="42.7858121" lon="13.5582378"><ele>798.25</ele><time>2026-04-18T09:01:23.876Z</time></trkpt><trkpt lat="42.7856967" lon="13.5581577"><ele>801.0</ele><time>2026-04-18T09:01:24.876Z</time></trkpt><trkpt lat="42.7855919" lon="13.558092"><ele>801.0</ele><time>2026-04-18T09:01:25.876Z</time></trkpt><trkpt lat="42.7854779" lon="13.5580435"><ele>801.0</ele><time>2026-04-18T09:01:26.876Z</time></trkpt><trkpt lat="42.7853626" lon="13.5580204"><ele>801.0</ele><time>2026-04-18T09:01:27.876Z</time></trkpt><trkpt lat="42.7852457" lon="13.558041"><ele>801.0</ele><time>2026-04-18T09:01:28.876Z</time></trkpt><trkpt lat="42.7851142" lon="13.5580918"><ele>801.0</ele><time>2026-04-18T09:01:29.876Z</time></trkpt><trkpt lat="42.7849705" lon="13.5581876"><ele>801.0</ele><time>2026-04-18T09:01:30.876Z</time></trkpt><trkpt lat="42.7848292" lon="13.5583008"><ele>801.0</ele><time>2026-04-18T09:01:31.876Z</time></trkpt><trkpt lat="42.784698" lon="13.5584152"><ele>801.0</ele><time>2026-04-18T09:01:32.876Z</time></trkpt><trkpt lat="42.7845683" lon="13.558529"><ele>801.0</ele><time>2026-04-18T09:01:33.876Z</time></trkpt><trkpt lat="42.7844447" lon="13.5586437"><ele>801.0</ele><time>2026-04-18T09:01:34.876Z</time></trkpt><trkpt lat="42.784324" lon="13.5587566"><ele>803.75</ele><time>2026-04-18T09:01:35.875Z</time></trkpt><trkpt lat="42.7842047" lon="13.5588701"><ele>806.5</ele><time>2026-04-18T09:01:36.875Z</time></trkpt><trkpt lat="42.7840885" lon="13.5589866"><ele>809.25</ele><time>2026-04-18T09:01:37.875Z</time></trkpt><trkpt lat="42.7839711" lon="13.5590999"><ele>812.0</ele><time>2026-04-18T09:01:38.876Z</time></trkpt><trkpt lat="42.7838529" lon="13.5592043"><ele>812.0</ele><time>2026-04-18T09:01:39.875Z</time></trkpt><trkpt lat="42.7837338" lon="13.5593031"><ele>812.0</ele><time>2026-04-18T09:01:40.875Z</time></trkpt><trkpt lat="42.7836097" lon="13.5593892"><ele>812.0</ele><time>2026-04-18T09:01:41.876Z</time></trkpt><trkpt lat="42.7834809" lon="13.5594612"><ele>812.0</ele><time>2026-04-18T09:01:42.876Z</time></trkpt><trkpt lat="42.783348" lon="13.55952"><ele>814.75</ele><time>2026-04-18T09:01:43.876Z</time></trkpt><trkpt lat="42.7832124" lon="13.5595771"><ele>817.5</ele><time>2026-04-18T09:01:44.875Z</time></trkpt><trkpt lat="42.7830793" lon="13.5596408"><ele>820.25</ele><time>2026-04-18T09:01:45.876Z</time></trkpt><trkpt lat="42.7829595" lon="13.5597157"><ele>823.0</ele><time>2026-04-18T09:01:46.875Z</time></trkpt><trkpt lat="42.7828384" lon="13.5598093"><ele>823.0</ele><time>2026-04-18T09:01:47.876Z</time></trkpt><trkpt lat="42.7827269" lon="13.559928"><ele>823.0</ele><time>2026-04-18T09:01:48.876Z</time></trkpt><trkpt lat="42.7826271" lon="13.5600644"><ele>823.0</ele><time>2026-04-18T09:01:49.876Z</time></trkpt><trkpt lat="42.7825334" lon="13.5602005"><ele>823.0</ele><time>2026-04-18T09:01:50.876Z</time></trkpt><trkpt lat="42.7824261" lon="13.5603178"><ele>825.25</ele><time>2026-04-18T09:01:51.876Z</time></trkpt><trkpt lat="42.782306" lon="13.560421"><ele>827.5</ele><time>2026-04-18T09:01:52.876Z</time></trkpt><trkpt lat="42.7821784" lon="13.5604963"><ele>829.75</ele><time>2026-04-18T09:01:53.876Z</time></trkpt><trkpt lat="42.7820538" lon="13.5605553"><ele>832.0</ele><time>2026-04-18T09:01:54.876Z</time></trkpt><trkpt lat="42.7819438" lon="13.5606203"><ele>825.25</ele><time>2026-04-18T09:01:55.876Z</time></trkpt><trkpt lat="42.7818437" lon="13.5606916"><ele>818.5</ele><time>2026-04-18T09:01:56.876Z</time></trkpt><trkpt lat="42.7817572" lon="13.5607767"><ele>811.75</ele><time>2026-04-18T09:01:57.875Z</time></trkpt><trkpt lat="42.7816778" lon="13.5608859"><ele>805.0</ele><time>2026-04-18T09:01:58.876Z</time></trkpt><trkpt lat="42.7816025" lon="13.5610218"><ele>805.0</ele><time>2026-04-18T09:01:59.876Z</time></trkpt><trkpt lat="42.7815374" lon="13.561171"><ele>805.0</ele><time>2026-04-18T09:02:00.876Z</time></trkpt><trkpt lat="42.7814809" lon="13.5613286"><ele>805.0</ele><time>2026-04-18T09:02:01.876Z</time></trkpt><trkpt lat="42.7814324" lon="13.5614852"><ele>805.0</ele><time>2026-04-18T09:02:02.876Z</time></trkpt><trkpt lat="42.78138" lon="13.5616451"><ele>810.25</ele><time>2026-04-18T09:02:03.876Z</time></trkpt><trkpt lat="42.7813312" lon="13.5618062"><ele>815.5</ele><time>2026-04-18T09:02:04.876Z</time></trkpt><trkpt lat="42.7812924" lon="13.561974"><ele>820.75</ele><time>2026-04-18T09:02:05.876Z</time></trkpt><trkpt lat="42.7812708" lon="13.562144"><ele>826.0</ele><time>2026-04-18T09:02:06.876Z</time></trkpt><trkpt lat="42.7812538" lon="13.5623079"><ele>827.0</ele><time>2026-04-18T09:02:07.876Z</time></trkpt><trkpt lat="42.7812485" lon="13.5624508"><ele>828.0</ele><time>2026-04-18T09:02:08.876Z</time></trkpt><trkpt lat="42.7812164" lon="13.5625828"><ele>829.0</ele><time>2026-04-18T09:02:09.876Z</time></trkpt><trkpt lat="42.781167" lon="13.5626836"><ele>830.0</ele><time>2026-04-18T09:02:10.876Z</time></trkpt><trkpt lat="42.7810968" lon="13.5627625"><ele>831.0</ele><time>2026-04-18T09:02:11.876Z</time></trkpt><trkpt lat="42.7810017" lon="13.5628209"><ele>829.4</ele><time>2026-04-18T09:02:12.876Z</time></trkpt><trkpt lat="42.7808895" lon="13.562862"><ele>827.8</ele><time>2026-04-18T09:02:13.876Z</time></trkpt><trkpt lat="42.780776" lon="13.5628862"><ele>826.1999999999999</ele><time>2026-04-18T09:02:14.876Z</time></trkpt><trkpt lat="42.7806681" lon="13.5629002"><ele>824.5999999999999</ele><time>2026-04-18T09:02:15.876Z</time></trkpt><trkpt lat="42.7805697" lon="13.5629288"><ele>823.0</ele><time>2026-04-18T09:02:16.876Z</time></trkpt><trkpt lat="42.7804845" lon="13.5629821"><ele>823.0</ele><time>2026-04-18T09:02:17.875Z</time></trkpt><trkpt lat="42.780408" lon="13.5630596"><ele>823.0</ele><time>2026-04-18T09:02:18.876Z</time></trkpt><trkpt lat="42.78034" lon="13.5631604"><ele>823.0</ele><time>2026-04-18T09:02:19.876Z</time></trkpt><trkpt lat="42.7802757" lon="13.5632774"><ele>823.0</ele><time>2026-04-18T09:02:20.876Z</time></trkpt><trkpt lat="42.7802231" lon="13.5634004"><ele>823.0</ele><time>2026-04-18T09:02:21.876Z</time></trkpt><trkpt lat="42.7801721" lon="13.5635317"><ele>824.0</ele><time>2026-04-18T09:02:22.876Z</time></trkpt><trkpt lat="42.780128" lon="13.5636767"><ele>825.0</ele><time>2026-04-18T09:02:23.876Z</time></trkpt><trkpt lat="42.7800731" lon="13.5638153"><ele>826.0</ele><time>2026-04-18T09:02:24.876Z</time></trkpt><trkpt lat="42.7800036" lon="13.5639449"><ele>827.0</ele><time>2026-04-18T09:02:25.876Z</time></trkpt><trkpt lat="42.7799177" lon="13.564068"><ele>827.0</ele><time>2026-04-18T09:02:26.876Z</time></trkpt><trkpt lat="42.7798256" lon="13.5641758"><ele>827.0</ele><time>2026-04-18T09:02:27.876Z</time></trkpt><trkpt lat="42.7797244" lon="13.5642623"><ele>827.0</ele><time>2026-04-18T09:02:28.876Z</time></trkpt><trkpt lat="42.7796149" lon="13.5643368"><ele>827.0</ele><time>2026-04-18T09:02:29.876Z</time></trkpt><trkpt lat="42.7794957" lon="13.5644102"><ele>827.0</ele><time>2026-04-18T09:02:30.876Z</time></trkpt><trkpt lat="42.7793721" lon="13.564478"><ele>827.0</ele><time>2026-04-18T09:02:31.876Z</time></trkpt><trkpt lat="42.7792453" lon="13.56455"><ele>827.0</ele><time>2026-04-18T09:02:32.876Z</time></trkpt><trkpt lat="42.7791217" lon="13.5646323"><ele>827.0</ele><time>2026-04-18T09:02:33.876Z</time></trkpt><trkpt lat="42.7790008" lon="13.5647272"><ele>828.5</ele><time>2026-04-18T09:02:34.876Z</time></trkpt><trkpt lat="42.7788874" lon="13.5648358"><ele>830.0</ele><time>2026-04-18T09:02:35.876Z</time></trkpt><trkpt lat="42.7787796" lon="13.5649523"><ele>831.5</ele><time>2026-04-18T09:02:36.876Z</time></trkpt><trkpt lat="42.7786735" lon="13.5650728"><ele>833.0</ele><time>2026-04-18T09:02:37.876Z</time></trkpt><trkpt lat="42.7785685" lon="13.5651925"><ele>833.0</ele><time>2026-04-18T09:02:38.876Z</time></trkpt><trkpt lat="42.7784658" lon="13.5653223"><ele>833.0</ele><time>2026-04-18T09:02:39.876Z</time></trkpt><trkpt lat="42.7783649" lon="13.5654563"><ele>833.0</ele><time>2026-04-18T09:02:40.876Z</time></trkpt><trkpt lat="42.7782649" lon="13.5655991"><ele>833.0</ele><time>2026-04-18T09:02:41.875Z</time></trkpt><trkpt lat="42.778171" lon="13.565739"><ele>833.0</ele><time>2026-04-18T09:02:42.876Z</time></trkpt><trkpt lat="42.7780781" lon="13.5658775"><ele>833.0</ele><time>2026-04-18T09:02:43.875Z</time></trkpt><trkpt lat="42.7779888" lon="13.5660169"><ele>833.0</ele><time>2026-04-18T09:02:44.876Z</time></trkpt><trkpt lat="42.7779118" lon="13.5661665"><ele>833.0</ele><time>2026-04-18T09:02:45.876Z</time></trkpt><trkpt lat="42.7778457" lon="13.5663318"><ele>840.25</ele><time>2026-04-18T09:02:46.876Z</time></trkpt><trkpt lat="42.7778003" lon="13.5665035"><ele>847.5</ele><time>2026-04-18T09:02:47.875Z</time></trkpt><trkpt lat="42.7777666" lon="13.5666838"><ele>854.75</ele><time>2026-04-18T09:02:48.875Z</time></trkpt><trkpt lat="42.7777397" lon="13.5668706"><ele>862.0</ele><time>2026-04-18T09:02:49.876Z</time></trkpt><trkpt lat="42.7777163" lon="13.5670555"><ele>865.5</ele><time>2026-04-18T09:02:50.876Z</time></trkpt><trkpt lat="42.7776928" lon="13.5672413"><ele>869.0</ele><time>2026-04-18T09:02:51.876Z</time></trkpt><trkpt lat="42.7776785" lon="13.5674279"><ele>872.5</ele><time>2026-04-18T09:02:52.876Z</time></trkpt><trkpt lat="42.7776788" lon="13.5676134"><ele>876.0</ele><time>2026-04-18T09:02:53.876Z</time></trkpt><trkpt lat="42.7776961" lon="13.5677972"><ele>875.5</ele><time>2026-04-18T09:02:54.875Z</time></trkpt><trkpt lat="42.777727" lon="13.5679753"><ele>875.0</ele><time>2026-04-18T09:02:55.876Z</time></trkpt><trkpt lat="42.7777529" lon="13.5681351"><ele>874.5</ele><time>2026-04-18T09:02:56.876Z</time></trkpt><trkpt lat="42.777771" lon="13.5682777"><ele>874.0</ele><time>2026-04-18T09:02:57.876Z</time></trkpt><trkpt lat="42.7777751" lon="13.5684086"><ele>874.0</ele><time>2026-04-18T09:02:58.876Z</time></trkpt><trkpt lat="42.7777573" lon="13.5685346"><ele>874.0000000000001</ele><time>2026-04-18T09:02:59.875Z</time></trkpt><trkpt lat="42.7777135" lon="13.5686574"><ele>874.0000000000001</ele><time>2026-04-18T09:03:00.876Z</time></trkpt><trkpt lat="42.7776482" lon="13.5687649"><ele>874.0</ele><time>2026-04-18T09:03:01.876Z</time></trkpt><trkpt lat="42.7775617" lon="13.5688474"><ele>874.0</ele><time>2026-04-18T09:03:02.876Z</time></trkpt><trkpt lat="42.7774585" lon="13.5688983"><ele>867.75</ele><time>2026-04-18T09:03:03.876Z</time></trkpt><trkpt lat="42.7773455" lon="13.5689119"><ele>861.5</ele><time>2026-04-18T09:03:04.876Z</time></trkpt><trkpt lat="42.7772327" lon="13.5688817"><ele>855.25</ele><time>2026-04-18T09:03:05.876Z</time></trkpt><trkpt lat="42.777129" lon="13.5688102"><ele>849.0</ele><time>2026-04-18T09:03:06.876Z</time></trkpt><trkpt lat="42.7770345" lon="13.5687079"><ele>848.25</ele><time>2026-04-18T09:03:07.876Z</time></trkpt><trkpt lat="42.7769432" lon="13.5685821"><ele>847.5</ele><time>2026-04-18T09:03:08.876Z</time></trkpt><trkpt lat="42.7768558" lon="13.5684534"><ele>846.75</ele><time>2026-04-18T09:03:09.875Z</time></trkpt><trkpt lat="42.7767677" lon="13.5683323"><ele>846.0</ele><time>2026-04-18T09:03:10.876Z</time></trkpt><trkpt lat="42.7766746" lon="13.5682362"><ele>846.0</ele><time>2026-04-18T09:03:11.876Z</time></trkpt><trkpt lat="42.7765709" lon="13.5681723"><ele>846.0</ele><time>2026-04-18T09:03:12.876Z</time></trkpt><trkpt lat="42.7764621" lon="13.5681417"><ele>846.0</ele><time>2026-04-18T09:03:13.876Z</time></trkpt><trkpt lat="42.7763486" lon="13.5681208"><ele>846.0</ele><time>2026-04-18T09:03:14.876Z</time></trkpt><trkpt lat="42.7762321" lon="13.5680861"><ele>846.0</ele><time>2026-04-18T09:03:15.876Z</time></trkpt><trkpt lat="42.7761241" lon="13.5680204"><ele>846.0</ele><time>2026-04-18T09:03:16.876Z</time></trkpt><trkpt lat="42.7760249" lon="13.5679118"><ele>846.0</ele><time>2026-04-18T09:03:17.876Z</time></trkpt><trkpt lat="42.7759343" lon="13.5677884"><ele>846.0</ele><time>2026-04-18T09:03:18.875Z</time></trkpt><trkpt lat="42.7758577" lon="13.5676565"><ele>848.8</ele><time>2026-04-18T09:03:19.876Z</time></trkpt><trkpt lat="42.7758075" lon="13.567523"><ele>851.5999999999999</ele><time>2026-04-18T09:03:20.876Z</time></trkpt><trkpt lat="42.7757887" lon="13.5673917"><ele>854.4</ele><time>2026-04-18T09:03:21.876Z</time></trkpt><trkpt lat="42.7758005" lon="13.5672737"><ele>857.2</ele><time>2026-04-18T09:03:22.875Z</time></trkpt><trkpt lat="42.7758447" lon="13.5671609"><ele>860.0</ele><time>2026-04-18T09:03:23.875Z</time></trkpt><trkpt lat="42.775899" lon="13.5670612"><ele>859.6</ele><time>2026-04-18T09:03:24.876Z</time></trkpt><trkpt lat="42.775941" lon="13.5669401"><ele>859.2</ele><time>2026-04-18T09:03:25.876Z</time></trkpt><trkpt lat="42.7759599" lon="13.5668194"><ele>858.8</ele><time>2026-04-18T09:03:26.876Z</time></trkpt><trkpt lat="42.7759473" lon="13.5667076"><ele>858.4</ele><time>2026-04-18T09:03:27.876Z</time></trkpt><trkpt lat="42.7759063" lon="13.5666044"><ele>858.0</ele><time>2026-04-18T09:03:28.875Z</time></trkpt><trkpt lat="42.7758408" lon="13.5665044"><ele>858.0</ele><time>2026-04-18T09:03:29.876Z</time></trkpt><trkpt lat="42.7757721" lon="13.5663953"><ele>858.0</ele><time>2026-04-18T09:03:30.875Z</time></trkpt><trkpt lat="42.7757168" lon="13.566274"><ele>858.0</ele><time>2026-04-18T09:03:31.875Z</time></trkpt><trkpt lat="42.7756785" lon="13.5661466"><ele>858.0</ele><time>2026-04-18T09:03:32.876Z</time></trkpt><trkpt lat="42.7756572" lon="13.5660246"><ele>858.0</ele><time>2026-04-18T09:03:33.876Z</time></trkpt><trkpt lat="42.7756316" lon="13.5658986"><ele>856.0</ele><time>2026-04-18T09:03:34.876Z</time></trkpt><trkpt lat="42.7756" lon="13.5657774"><ele>854.0</ele><time>2026-04-18T09:03:35.876Z</time></trkpt><trkpt lat="42.7755534" lon="13.5656609"><ele>852.0</ele><time>2026-04-18T09:03:36.876Z</time></trkpt><trkpt lat="42.7754878" lon="13.56556"><ele>850.0</ele><time>2026-04-18T09:03:37.875Z</time></trkpt><trkpt lat="42.7754064" lon="13.5654731"><ele>848.0</ele><time>2026-04-18T09:03:38.876Z</time></trkpt><trkpt lat="42.7753156" lon="13.5653928"><ele>845.5999999999999</ele><time>2026-04-18T09:03:39.876Z</time></trkpt><trkpt lat="42.7752224" lon="13.5653043"><ele>843.1999999999999</ele><time>2026-04-18T09:03:40.875Z</time></trkpt><trkpt lat="42.7751409" lon="13.5652018"><ele>840.8</ele><time>2026-04-18T09:03:41.876Z</time></trkpt><trkpt lat="42.7750789" lon="13.5651009"><ele>838.4</ele><time>2026-04-18T09:03:42.876Z</time></trkpt><trkpt lat="42.7750278" lon="13.5649996"><ele>836.0</ele><time>2026-04-18T09:03:43.876Z</time></trkpt><trkpt lat="42.7749852" lon="13.5648918"><ele>843.1999999999999</ele><time>2026-04-18T09:03:44.876Z</time></trkpt><trkpt lat="42.7749737" lon="13.5647844"><ele>850.4</ele><time>2026-04-18T09:03:45.876Z</time></trkpt><trkpt lat="42.7749812" lon="13.564675"><ele>857.6</ele><time>2026-04-18T09:03:46.876Z</time></trkpt><trkpt lat="42.7750095" lon="13.5645422"><ele>864.8</ele><time>2026-04-18T09:03:47.876Z</time></trkpt><trkpt lat="42.7750344" lon="13.5644005"><ele>872.0</ele><time>2026-04-18T09:03:48.876Z</time></trkpt><trkpt lat="42.7750293" lon="13.5642529"><ele>872.0</ele><time>2026-04-18T09:03:49.875Z</time></trkpt><trkpt lat="42.7750362" lon="13.5641253"><ele>872.0</ele><time>2026-04-18T09:03:50.876Z</time></trkpt><trkpt lat="42.7750417" lon="13.5640272"><ele>872.0</ele><time>2026-04-18T09:03:51.875Z</time></trkpt><trkpt lat="42.775039" lon="13.5638739"><ele>872.0</ele><time>2026-04-18T09:03:53.876Z</time></trkpt><trkpt lat="42.7749645" lon="13.5637605"><ele>872.0</ele><time>2026-04-18T09:03:55.876Z</time></trkpt><trkpt lat="42.774895" lon="13.5637256"><ele>872.0</ele><time>2026-04-18T09:03:56.876Z</time></trkpt><trkpt lat="42.7748143" lon="13.5637106"><ele>872.0</ele><time>2026-04-18T09:03:57.876Z</time></trkpt><trkpt lat="42.7747121" lon="13.5637009"><ele>872.0</ele><time>2026-04-18T09:03:58.876Z</time></trkpt><trkpt lat="42.7746049" lon="13.5636819"><ele>872.0</ele><time>2026-04-18T09:03:59.876Z</time></trkpt><trkpt lat="42.7744945" lon="13.5636605"><ele>872.0</ele><time>2026-04-18T09:04:00.875Z</time></trkpt><trkpt lat="42.7743796" lon="13.5636366"><ele>869.75</ele><time>2026-04-18T09:04:01.876Z</time></trkpt><trkpt lat="42.774261" lon="13.5636174"><ele>867.5</ele><time>2026-04-18T09:04:02.876Z</time></trkpt><trkpt lat="42.7741474" lon="13.5635909"><ele>865.25</ele><time>2026-04-18T09:04:03.876Z</time></trkpt><trkpt lat="42.7740323" lon="13.5635941"><ele>863.0</ele><time>2026-04-18T09:04:04.876Z</time></trkpt><trkpt lat="42.7739207" lon="13.5636052"><ele>863.0</ele><time>2026-04-18T09:04:05.876Z</time></trkpt><trkpt lat="42.773809" lon="13.5636207"><ele>863.0</ele><time>2026-04-18T09:04:06.876Z</time></trkpt><trkpt lat="42.7737032" lon="13.5636155"><ele>863.0</ele><time>2026-04-18T09:04:07.876Z</time></trkpt><trkpt lat="42.7736016" lon="13.5635972"><ele>863.0</ele><time>2026-04-18T09:04:08.876Z</time></trkpt><trkpt lat="42.7735032" lon="13.5635907"><ele>863.0</ele><time>2026-04-18T09:04:09.876Z</time></trkpt><trkpt lat="42.7733921" lon="13.5636247"><ele>864.75</ele><time>2026-04-18T09:04:10.875Z</time></trkpt><trkpt lat="42.7732702" lon="13.5636949"><ele>866.5</ele><time>2026-04-18T09:04:11.876Z</time></trkpt><trkpt lat="42.7731478" lon="13.5637898"><ele>868.25</ele><time>2026-04-18T09:04:12.875Z</time></trkpt><trkpt lat="42.7730326" lon="13.5638974"><ele>870.0</ele><time>2026-04-18T09:04:13.876Z</time></trkpt><trkpt lat="42.7729316" lon="13.5640173"><ele>875.2</ele><time>2026-04-18T09:04:14.876Z</time></trkpt><trkpt lat="42.77285" lon="13.5641295"><ele>880.4</ele><time>2026-04-18T09:04:15.876Z</time></trkpt><trkpt lat="42.7727753" lon="13.5642321"><ele>885.5999999999999</ele><time>2026-04-18T09:04:16.875Z</time></trkpt><trkpt lat="42.7726929" lon="13.5643183"><ele>890.8</ele><time>2026-04-18T09:04:17.876Z</time></trkpt><trkpt lat="42.7725866" lon="13.5643765"><ele>896.0</ele><time>2026-04-18T09:04:18.876Z</time></trkpt><trkpt lat="42.772461" lon="13.5644305"><ele>896.3333333333334</ele><time>2026-04-18T09:04:19.876Z</time></trkpt><trkpt lat="42.7723246" lon="13.564505"><ele>896.6666666666667</ele><time>2026-04-18T09:04:20.876Z</time></trkpt><trkpt lat="42.7721837" lon="13.5645891"><ele>897.0</ele><time>2026-04-18T09:04:21.876Z</time></trkpt><trkpt lat="42.7720441" lon="13.5646673"><ele>903.25</ele><time>2026-04-18T09:04:22.876Z</time></trkpt><trkpt lat="42.7719147" lon="13.5647383"><ele>909.5</ele><time>2026-04-18T09:04:23.876Z</time></trkpt><trkpt lat="42.7717864" lon="13.5647981"><ele>915.75</ele><time>2026-04-18T09:04:24.876Z</time></trkpt><trkpt lat="42.7716694" lon="13.564857"><ele>922.0</ele><time>2026-04-18T09:04:25.876Z</time></trkpt><trkpt lat="42.7715561" lon="13.5649204"><ele>922.0</ele><time>2026-04-18T09:04:26.876Z</time></trkpt><trkpt lat="42.771436" lon="13.5649802"><ele>922.0</ele><time>2026-04-18T09:04:27.876Z</time></trkpt><trkpt lat="42.7713189" lon="13.5650341"><ele>922.0</ele><time>2026-04-18T09:04:28.876Z</time></trkpt><trkpt lat="42.7711916" lon="13.5650772"><ele>922.0</ele><time>2026-04-18T09:04:29.876Z</time></trkpt><trkpt lat="42.7710468" lon="13.5651156"><ele>920.5</ele><time>2026-04-18T09:04:30.876Z</time></trkpt><trkpt lat="42.7708973" lon="13.5651402"><ele>919.0</ele><time>2026-04-18T09:04:31.876Z</time></trkpt><trkpt lat="42.7707467" lon="13.5651716"><ele>917.5</ele><time>2026-04-18T09:04:32.876Z</time></trkpt><trkpt lat="42.7706046" lon="13.5651991"><ele>916.0</ele><time>2026-04-18T09:04:33.876Z</time></trkpt><trkpt lat="42.7704804" lon="13.5652107"><ele>916.0</ele><time>2026-04-18T09:04:34.876Z</time></trkpt><trkpt lat="42.7703593" lon="13.565221"><ele>915.9999999999999</ele><time>2026-04-18T09:04:35.876Z</time></trkpt><trkpt lat="42.7702753" lon="13.5652407"><ele>915.9999999999999</ele><time>2026-04-18T09:04:36.876Z</time></trkpt><trkpt lat="42.7701821" lon="13.5652788"><ele>916.0</ele><time>2026-04-18T09:04:37.876Z</time></trkpt><trkpt lat="42.7701055" lon="13.5653485"><ele>916.0</ele><time>2026-04-18T09:04:38.875Z</time></trkpt><trkpt lat="42.7700424" lon="13.5654569"><ele>917.5</ele><time>2026-04-18T09:04:39.875Z</time></trkpt><trkpt lat="42.7699823" lon="13.5655882"><ele>919.0</ele><time>2026-04-18T09:04:40.875Z</time></trkpt><trkpt lat="42.7699251" lon="13.565735"><ele>920.5</ele><time>2026-04-18T09:04:41.876Z</time></trkpt><trkpt lat="42.7698735" lon="13.5658964"><ele>922.0</ele><time>2026-04-18T09:04:42.876Z</time></trkpt><trkpt lat="42.7698297" lon="13.5660673"><ele>923.25</ele><time>2026-04-18T09:04:43.876Z</time></trkpt><trkpt lat="42.7697893" lon="13.5662415"><ele>924.5</ele><time>2026-04-18T09:04:44.875Z</time></trkpt><trkpt lat="42.7697541" lon="13.5664208"><ele>925.75</ele><time>2026-04-18T09:04:45.876Z</time></trkpt><trkpt lat="42.7697256" lon="13.5665934"><ele>927.0</ele><time>2026-04-18T09:04:46.876Z</time></trkpt><trkpt lat="42.7696993" lon="13.5667664"><ele>927.0</ele><time>2026-04-18T09:04:47.876Z</time></trkpt><trkpt lat="42.7696797" lon="13.5669346"><ele>927.0</ele><time>2026-04-18T09:04:48.876Z</time></trkpt><trkpt lat="42.7696573" lon="13.5671015"><ele>927.0</ele><time>2026-04-18T09:04:49.876Z</time></trkpt><trkpt lat="42.7696355" lon="13.5672665"><ele>927.0</ele><time>2026-04-18T09:04:50.876Z</time></trkpt><trkpt lat="42.7696127" lon="13.5674259"><ele>930.25</ele><time>2026-04-18T09:04:51.876Z</time></trkpt><trkpt lat="42.769585" lon="13.5675856"><ele>933.5</ele><time>2026-04-18T09:04:52.876Z</time></trkpt><trkpt lat="42.7695572" lon="13.5677355"><ele>936.75</ele><time>2026-04-18T09:04:53.876Z</time></trkpt><trkpt lat="42.7695175" lon="13.5678798"><ele>940.0</ele><time>2026-04-18T09:04:54.876Z</time></trkpt><trkpt lat="42.7694723" lon="13.5680102"><ele>938.8</ele><time>2026-04-18T09:04:55.876Z</time></trkpt><trkpt lat="42.7694138" lon="13.5681192"><ele>937.6</ele><time>2026-04-18T09:04:56.876Z</time></trkpt><trkpt lat="42.7693424" lon="13.5681909"><ele>936.4000000000001</ele><time>2026-04-18T09:04:57.876Z</time></trkpt><trkpt lat="42.7692666" lon="13.5682498"><ele>935.2</ele><time>2026-04-18T09:04:58.876Z</time></trkpt><trkpt lat="42.7691506" lon="13.5682286"><ele>934.0</ele><time>2026-04-18T09:04:59.876Z</time></trkpt><trkpt lat="42.7690342" lon="13.5682245"><ele>934.0</ele><time>2026-04-18T09:05:00.875Z</time></trkpt><trkpt lat="42.768908" lon="13.5682269"><ele>934.0</ele><time>2026-04-18T09:05:01.875Z</time></trkpt><trkpt lat="42.7687778" lon="13.568241"><ele>934.0</ele><time>2026-04-18T09:05:02.876Z</time></trkpt><trkpt lat="42.7686449" lon="13.5682708"><ele>934.0</ele><time>2026-04-18T09:05:03.875Z</time></trkpt><trkpt lat="42.7685157" lon="13.5683065"><ele>935.25</ele><time>2026-04-18T09:05:04.876Z</time></trkpt><trkpt lat="42.768391" lon="13.5683481"><ele>936.5</ele><time>2026-04-18T09:05:05.876Z</time></trkpt><trkpt lat="42.7682747" lon="13.5683988"><ele>937.75</ele><time>2026-04-18T09:05:06.876Z</time></trkpt><trkpt lat="42.7681689" lon="13.5684625"><ele>939.0</ele><time>2026-04-18T09:05:07.876Z</time></trkpt><trkpt lat="42.7680709" lon="13.5685405"><ele>939.0</ele><time>2026-04-18T09:05:08.876Z</time></trkpt><trkpt lat="42.767981" lon="13.5686366"><ele>939.0</ele><time>2026-04-18T09:05:09.875Z</time></trkpt><trkpt lat="42.7679092" lon="13.5687562"><ele>939.0</ele><time>2026-04-18T09:05:10.876Z</time></trkpt><trkpt lat="42.7678432" lon="13.5688992"><ele>939.0</ele><time>2026-04-18T09:05:11.876Z</time></trkpt><trkpt lat="42.7677766" lon="13.5690468"><ele>941.25</ele><time>2026-04-18T09:05:12.876Z</time></trkpt><trkpt lat="42.7677013" lon="13.5691891"><ele>943.5</ele><time>2026-04-18T09:05:13.876Z</time></trkpt><trkpt lat="42.7676117" lon="13.5693302"><ele>945.75</ele><time>2026-04-18T09:05:14.876Z</time></trkpt><trkpt lat="42.7675158" lon="13.5694649"><ele>948.0</ele><time>2026-04-18T09:05:15.876Z</time></trkpt><trkpt lat="42.7674034" lon="13.5696049"><ele>952.25</ele><time>2026-04-18T09:05:16.875Z</time></trkpt><trkpt lat="42.7672926" lon="13.5697394"><ele>956.5</ele><time>2026-04-18T09:05:17.876Z</time></trkpt><trkpt lat="42.7671905" lon="13.569864"><ele>960.75</ele><time>2026-04-18T09:05:18.876Z</time></trkpt><trkpt lat="42.7671049" lon="13.5699703"><ele>965.0</ele><time>2026-04-18T09:05:19.876Z</time></trkpt><trkpt lat="42.7670258" lon="13.5700648"><ele>965.0</ele><time>2026-04-18T09:05:20.876Z</time></trkpt><trkpt lat="42.7669484" lon="13.5701527"><ele>965.0</ele><time>2026-04-18T09:05:21.876Z</time></trkpt><trkpt lat="42.7668825" lon="13.5702354"><ele>965.0</ele><time>2026-04-18T09:05:22.876Z</time></trkpt><trkpt lat="42.7668328" lon="13.5702968"><ele>965.0</ele><time>2026-04-18T09:05:23.875Z</time></trkpt><trkpt lat="42.7667859" lon="13.570356"><ele>965.0</ele><time>2026-04-18T09:05:24.876Z</time></trkpt><trkpt lat="42.7666853" lon="13.5704788"><ele>968.0000000000001</ele><time>2026-04-18T09:05:26.876Z</time></trkpt><trkpt lat="42.7666278" lon="13.5705291"><ele>971.0</ele><time>2026-04-18T09:05:27.876Z</time></trkpt><trkpt lat="42.7665498" lon="13.570592"><ele>974.0</ele><time>2026-04-18T09:05:28.876Z</time></trkpt><trkpt lat="42.7664788" lon="13.5706138"><ele>977.0</ele><time>2026-04-18T09:05:29.875Z</time></trkpt><trkpt lat="42.7663969" lon="13.5706549"><ele>980.0000000000001</ele><time>2026-04-18T09:05:30.876Z</time></trkpt><trkpt lat="42.7663088" lon="13.5707107"><ele>983.0</ele><time>2026-04-18T09:05:31.875Z</time></trkpt><trkpt lat="42.7662235" lon="13.5707619"><ele>983.0000000000001</ele><time>2026-04-18T09:05:32.876Z</time></trkpt><trkpt lat="42.7661422" lon="13.5708033"><ele>983.0</ele><time>2026-04-18T09:05:33.876Z</time></trkpt><trkpt lat="42.7660649" lon="13.5708441"><ele>983.0</ele><time>2026-04-18T09:05:34.875Z</time></trkpt><trkpt lat="42.7660158" lon="13.5708985"><ele>983.0</ele><time>2026-04-18T09:05:35.875Z</time></trkpt><trkpt lat="42.7659529" lon="13.5709668"><ele>983.0000000000001</ele><time>2026-04-18T09:05:36.876Z</time></trkpt><trkpt lat="42.7659112" lon="13.5710397"><ele>983.0</ele><time>2026-04-18T09:05:37.876Z</time></trkpt><trkpt lat="42.765866" lon="13.5711303"><ele>985.8333333333334</ele><time>2026-04-18T09:05:38.876Z</time></trkpt><trkpt lat="42.7658153" lon="13.5712139"><ele>988.6666666666667</ele><time>2026-04-18T09:05:39.876Z</time></trkpt><trkpt lat="42.7657705" lon="13.5713098"><ele>991.5</ele><time>2026-04-18T09:05:40.876Z</time></trkpt><trkpt lat="42.7657295" lon="13.5714118"><ele>994.3333333333333</ele><time>2026-04-18T09:05:41.876Z</time></trkpt><trkpt lat="42.7656962" lon="13.5715096"><ele>997.1666666666666</ele><time>2026-04-18T09:05:42.876Z</time></trkpt><trkpt lat="42.7656703" lon="13.5716104"><ele>1000.0</ele><time>2026-04-18T09:05:43.876Z</time></trkpt><trkpt lat="42.765649" lon="13.5717017"><ele>1000.0</ele><time>2026-04-18T09:05:44.875Z</time></trkpt><trkpt lat="42.7656406" lon="13.5717883"><ele>1000.0</ele><time>2026-04-18T09:05:45.876Z</time></trkpt><trkpt lat="42.7656273" lon="13.5718753"><ele>1000.0</ele><time>2026-04-18T09:05:46.876Z</time></trkpt><trkpt lat="42.765584" lon="13.5719576"><ele>1000.0</ele><time>2026-04-18T09:05:47.876Z</time></trkpt><trkpt lat="42.7655304" lon="13.5720214"><ele>1000.0</ele><time>2026-04-18T09:05:48.876Z</time></trkpt><trkpt lat="42.7654615" lon="13.5720541"><ele>1000.0</ele><time>2026-04-18T09:05:49.876Z</time></trkpt><trkpt lat="42.7653959" lon="13.5720516"><ele>1000.0</ele><time>2026-04-18T09:05:50.876Z</time></trkpt><trkpt lat="42.7652737" lon="13.5719843"><ele>998.3333333333333</ele><time>2026-04-18T09:05:52.876Z</time></trkpt><trkpt lat="42.7651947" lon="13.5719574"><ele>996.6666666666666</ele><time>2026-04-18T09:05:53.876Z</time></trkpt><trkpt lat="42.7651256" lon="13.5719686"><ele>995.0</ele><time>2026-04-18T09:05:54.876Z</time></trkpt><trkpt lat="42.7650629" lon="13.572002"><ele>993.3333333333333</ele><time>2026-04-18T09:05:55.876Z</time></trkpt><trkpt lat="42.7649993" lon="13.572104"><ele>991.6666666666666</ele><time>2026-04-18T09:05:57.876Z</time></trkpt><trkpt lat="42.7650153" lon="13.5721887"><ele>990.0</ele><time>2026-04-18T09:05:59.876Z</time></trkpt><trkpt lat="42.765157" lon="13.5721874"><ele>997.6</ele><time>2026-04-18T09:06:02.876Z</time></trkpt><trkpt lat="42.7652217" lon="13.5721765"><ele>1005.2</ele><time>2026-04-18T09:06:03.876Z</time></trkpt><trkpt lat="42.7653332" lon="13.572259"><ele>1012.8</ele><time>2026-04-18T09:06:05.875Z</time></trkpt><trkpt lat="42.7654013" lon="13.5723516"><ele>1020.4</ele><time>2026-04-18T09:06:06.875Z</time></trkpt><trkpt lat="42.7654677" lon="13.5724543"><ele>1028.0</ele><time>2026-04-18T09:06:07.876Z</time></trkpt><trkpt lat="42.7655306" lon="13.5725248"><ele>1028.0</ele><time>2026-04-18T09:06:08.876Z</time></trkpt><trkpt lat="42.765635" lon="13.5725363"><ele>1028.0</ele><time>2026-04-18T09:06:10.876Z</time></trkpt><trkpt lat="42.7657018" lon="13.5724763"><ele>1028.0</ele><time>2026-04-18T09:06:12.876Z</time></trkpt><trkpt lat="42.7657884" lon="13.5723332"><ele>1028.0</ele><time>2026-04-18T09:06:14.875Z</time></trkpt><trkpt lat="42.7658538" lon="13.5722746"><ele>1028.0</ele><time>2026-04-18T09:06:15.876Z</time></trkpt><trkpt lat="42.7659151" lon="13.5722446"><ele>1028.0</ele><time>2026-04-18T09:06:16.876Z</time></trkpt><trkpt lat="42.7660248" lon="13.5722155"><ele>1028.0</ele><time>2026-04-18T09:06:18.876Z</time></trkpt><trkpt lat="42.7660889" lon="13.5721948"><ele>1028.0</ele><time>2026-04-18T09:06:19.876Z</time></trkpt><trkpt lat="42.7661559" lon="13.5721684"><ele>1028.0</ele><time>2026-04-18T09:06:20.876Z</time></trkpt><trkpt lat="42.766221" lon="13.5721435"><ele>1028.0</ele><time>2026-04-18T09:06:21.875Z</time></trkpt><trkpt lat="42.7662848" lon="13.5721073"><ele>1028.0</ele><time>2026-04-18T09:06:22.876Z</time></trkpt><trkpt lat="42.7663537" lon="13.5720748"><ele>1025.8</ele><time>2026-04-18T09:06:23.875Z</time></trkpt><trkpt lat="42.7664389" lon="13.5720487"><ele>1023.5999999999999</ele><time>2026-04-18T09:06:24.876Z</time></trkpt><trkpt lat="42.7665286" lon="13.5720215"><ele>1021.4000000000001</ele><time>2026-04-18T09:06:25.876Z</time></trkpt><trkpt lat="42.7666157" lon="13.5720042"><ele>1019.2</ele><time>2026-04-18T09:06:26.876Z</time></trkpt><trkpt lat="42.7667136" lon="13.5720008"><ele>1017.0</ele><time>2026-04-18T09:06:27.875Z</time></trkpt><trkpt lat="42.7668202" lon="13.5720095"><ele>1022.3333333333334</ele><time>2026-04-18T09:06:28.876Z</time></trkpt><trkpt lat="42.7669206" lon="13.5720282"><ele>1027.6666666666667</ele><time>2026-04-18T09:06:29.876Z</time></trkpt><trkpt lat="42.7670101" lon="13.5720496"><ele>1033.0</ele><time>2026-04-18T09:06:30.876Z</time></trkpt><trkpt lat="42.767093" lon="13.5720651"><ele>1038.3333333333335</ele><time>2026-04-18T09:06:31.875Z</time></trkpt><trkpt lat="42.7671676" lon="13.5720714"><ele>1043.6666666666667</ele><time>2026-04-18T09:06:32.875Z</time></trkpt><trkpt lat="42.767233" lon="13.5720787"><ele>1049.0</ele><time>2026-04-18T09:06:33.875Z</time></trkpt><trkpt lat="42.7673263" lon="13.5721391"><ele>1049.0</ele><time>2026-04-18T09:06:35.876Z</time></trkpt><trkpt lat="42.7673614" lon="13.5722717"><ele>1049.0</ele><time>2026-04-18T09:06:37.876Z</time></trkpt><trkpt lat="42.7673609" lon="13.5724195"><ele>1049.0</ele><time>2026-04-18T09:06:39.875Z</time></trkpt><trkpt lat="42.7672917" lon="13.5724654"><ele>1049.0</ele><time>2026-04-18T09:06:40.876Z</time></trkpt><trkpt lat="42.7672191" lon="13.5725088"><ele>1049.0</ele><time>2026-04-18T09:06:41.876Z</time></trkpt><trkpt lat="42.7671449" lon="13.5725501"><ele>1049.0</ele><time>2026-04-18T09:06:42.876Z</time></trkpt><trkpt lat="42.7670757" lon="13.5726087"><ele>1049.0</ele><time>2026-04-18T09:06:43.876Z</time></trkpt><trkpt lat="42.7670022" lon="13.5726974"><ele>1049.0</ele><time>2026-04-18T09:06:44.876Z</time></trkpt><trkpt lat="42.7669241" lon="13.5727979"><ele>1049.0</ele><time>2026-04-18T09:06:45.875Z</time></trkpt><trkpt lat="42.766847" lon="13.5728922"><ele>1049.0</ele><time>2026-04-18T09:06:46.876Z</time></trkpt><trkpt lat="42.7667564" lon="13.5729526"><ele>1049.0</ele><time>2026-04-18T09:06:47.876Z</time></trkpt><trkpt lat="42.7666623" lon="13.5729884"><ele>1053.6000000000001</ele><time>2026-04-18T09:06:48.876Z</time></trkpt><trkpt lat="42.7665623" lon="13.573008"><ele>1058.2</ele><time>2026-04-18T09:06:49.876Z</time></trkpt><trkpt lat="42.766471" lon="13.5730287"><ele>1062.8000000000002</ele><time>2026-04-18T09:06:50.876Z</time></trkpt><trkpt lat="42.7663904" lon="13.5730572"><ele>1067.4</ele><time>2026-04-18T09:06:51.876Z</time></trkpt><trkpt lat="42.7663158" lon="13.5731262"><ele>1072.0</ele><time>2026-04-18T09:06:52.876Z</time></trkpt><trkpt lat="42.7662424" lon="13.5732177"><ele>1072.0</ele><time>2026-04-18T09:06:53.876Z</time></trkpt><trkpt lat="42.7661729" lon="13.5733136"><ele>1072.0</ele><time>2026-04-18T09:06:54.876Z</time></trkpt><trkpt lat="42.7661153" lon="13.5734001"><ele>1072.0</ele><time>2026-04-18T09:06:55.876Z</time></trkpt><trkpt lat="42.7660706" lon="13.5735236"><ele>1072.0</ele><time>2026-04-18T09:06:57.876Z</time></trkpt><trkpt lat="42.7661078" lon="13.5736181"><ele>1072.0</ele><time>2026-04-18T09:07:00.876Z</time></trkpt><trkpt lat="42.7661907" lon="13.5736215"><ele>1072.0</ele><time>2026-04-18T09:07:03.875Z</time></trkpt><trkpt lat="42.7662736" lon="13.5735537"><ele>1072.0</ele><time>2026-04-18T09:07:06.876Z</time></trkpt><trkpt lat="42.7663561" lon="13.5734626"><ele>1072.0</ele><time>2026-04-18T09:07:08.876Z</time></trkpt><trkpt lat="42.7664299" lon="13.5734597"><ele>1072.0</ele><time>2026-04-18T09:07:10.876Z</time></trkpt><trkpt lat="42.7664759" lon="13.5735584"><ele>1072.0</ele><time>2026-04-18T09:07:12.876Z</time></trkpt><trkpt lat="42.766442" lon="13.5736367"><ele>1072.0</ele><time>2026-04-18T09:07:14.876Z</time></trkpt><trkpt lat="42.7663472" lon="13.573704"><ele>1072.0</ele><time>2026-04-18T09:07:16.875Z</time></trkpt><trkpt lat="42.7662921" lon="13.5737539"><ele>1073.4</ele><time>2026-04-18T09:07:17.876Z</time></trkpt><trkpt lat="42.7662245" lon="13.5738134"><ele>1074.8000000000002</ele><time>2026-04-18T09:07:18.876Z</time></trkpt><trkpt lat="42.7661492" lon="13.5738787"><ele>1076.2</ele><time>2026-04-18T09:07:19.876Z</time></trkpt><trkpt lat="42.7660635" lon="13.5739492"><ele>1077.6000000000001</ele><time>2026-04-18T09:07:20.876Z</time></trkpt><trkpt lat="42.765931" lon="13.5740472"><ele>1079.0</ele><time>2026-04-18T09:07:21.876Z</time></trkpt><trkpt lat="42.7658103" lon="13.574135"><ele>1079.0</ele><time>2026-04-18T09:07:22.875Z</time></trkpt><trkpt lat="42.7657154" lon="13.5741951"><ele>1079.0</ele><time>2026-04-18T09:07:23.876Z</time></trkpt><trkpt lat="42.76562" lon="13.574253"><ele>1079.0</ele><time>2026-04-18T09:07:24.876Z</time></trkpt><trkpt lat="42.7655593" lon="13.5743328"><ele>1079.0</ele><time>2026-04-18T09:07:25.876Z</time></trkpt><trkpt lat="42.7654984" lon="13.5744338"><ele>1079.0</ele><time>2026-04-18T09:07:26.876Z</time></trkpt><trkpt lat="42.7654405" lon="13.5745246"><ele>1084.0</ele><time>2026-04-18T09:07:27.876Z</time></trkpt><trkpt lat="42.7653844" lon="13.5745707"><ele>1089.0</ele><time>2026-04-18T09:07:28.876Z</time></trkpt><trkpt lat="42.7652613" lon="13.5745762"><ele>1094.0</ele><time>2026-04-18T09:07:30.876Z</time></trkpt><trkpt lat="42.7651842" lon="13.5745652"><ele>1099.0</ele><time>2026-04-18T09:07:31.876Z</time></trkpt><trkpt lat="42.7650357" lon="13.5746128"><ele>1104.0</ele><time>2026-04-18T09:07:33.876Z</time></trkpt><trkpt lat="42.7649089" lon="13.574679"><ele>1104.0</ele><time>2026-04-18T09:07:34.876Z</time></trkpt><trkpt lat="42.7647717" lon="13.5747563"><ele>1104.0</ele><time>2026-04-18T09:07:35.875Z</time></trkpt><trkpt lat="42.7646645" lon="13.5748189"><ele>1104.0</ele><time>2026-04-18T09:07:36.876Z</time></trkpt><trkpt lat="42.7645856" lon="13.5748585"><ele>1104.0</ele><time>2026-04-18T09:07:37.876Z</time></trkpt><trkpt lat="42.7644849" lon="13.5748883"><ele>1104.0</ele><time>2026-04-18T09:07:39.876Z</time></trkpt><trkpt lat="42.7643991" lon="13.5748489"><ele>1104.0</ele><time>2026-04-18T09:07:41.876Z</time></trkpt><trkpt lat="42.7643489" lon="13.5746866"><ele>1104.0</ele><time>2026-04-18T09:07:43.876Z</time></trkpt><trkpt lat="42.7643117" lon="13.5746011"><ele>1104.0</ele><time>2026-04-18T09:07:44.876Z</time></trkpt><trkpt lat="42.7642602" lon="13.5745346"><ele>1104.0</ele><time>2026-04-18T09:07:45.876Z</time></trkpt><trkpt lat="42.7641986" lon="13.5744955"><ele>1104.0</ele><time>2026-04-18T09:07:46.876Z</time></trkpt><trkpt lat="42.7641145" lon="13.5744795"><ele>1098.5</ele><time>2026-04-18T09:07:47.875Z</time></trkpt><trkpt lat="42.7640071" lon="13.5744365"><ele>1093.0</ele><time>2026-04-18T09:07:48.875Z</time></trkpt><trkpt lat="42.7638929" lon="13.5743814"><ele>1087.5</ele><time>2026-04-18T09:07:49.876Z</time></trkpt><trkpt lat="42.7637743" lon="13.5743277"><ele>1082.0</ele><time>2026-04-18T09:07:50.875Z</time></trkpt><trkpt lat="42.7636674" lon="13.5742603"><ele>1082.0</ele><time>2026-04-18T09:07:51.876Z</time></trkpt><trkpt lat="42.7635796" lon="13.5741856"><ele>1082.0</ele><time>2026-04-18T09:07:52.875Z</time></trkpt><trkpt lat="42.7635076" lon="13.5741141"><ele>1082.0</ele><time>2026-04-18T09:07:53.876Z</time></trkpt><trkpt lat="42.763446" lon="13.5740207"><ele>1082.0</ele><time>2026-04-18T09:07:54.876Z</time></trkpt><trkpt lat="42.7634054" lon="13.5739294"><ele>1082.0</ele><time>2026-04-18T09:07:55.875Z</time></trkpt><trkpt lat="42.7633686" lon="13.5738214"><ele>1082.4</ele><time>2026-04-18T09:07:56.876Z</time></trkpt><trkpt lat="42.7633283" lon="13.5737054"><ele>1082.8000000000002</ele><time>2026-04-18T09:07:57.876Z</time></trkpt><trkpt lat="42.7632782" lon="13.5736017"><ele>1083.2</ele><time>2026-04-18T09:07:58.876Z</time></trkpt><trkpt lat="42.7632183" lon="13.5735"><ele>1083.6000000000001</ele><time>2026-04-18T09:07:59.876Z</time></trkpt><trkpt lat="42.7631656" lon="13.5734119"><ele>1084.0</ele><time>2026-04-18T09:08:00.876Z</time></trkpt><trkpt lat="42.7630893" lon="13.5733242"><ele>1084.0</ele><time>2026-04-18T09:08:02.876Z</time></trkpt><trkpt lat="42.7630134" lon="13.5732398"><ele>1084.0</ele><time>2026-04-18T09:08:04.876Z</time></trkpt><trkpt lat="42.7629607" lon="13.5731899"><ele>1084.0</ele><time>2026-04-18T09:08:05.876Z</time></trkpt><trkpt lat="42.7628936" lon="13.5731364"><ele>1084.0</ele><time>2026-04-18T09:08:06.876Z</time></trkpt><trkpt lat="42.7628268" lon="13.5730919"><ele>1084.0</ele><time>2026-04-18T09:08:07.876Z</time></trkpt><trkpt lat="42.7627601" lon="13.5730371"><ele>1084.0</ele><time>2026-04-18T09:08:08.876Z</time></trkpt><trkpt lat="42.7626872" lon="13.5729647"><ele>1082.3333333333333</ele><time>2026-04-18T09:08:09.876Z</time></trkpt><trkpt lat="42.7626038" lon="13.5729021"><ele>1080.6666666666665</ele><time>2026-04-18T09:08:10.876Z</time></trkpt><trkpt lat="42.7625217" lon="13.5728656"><ele>1079.0</ele><time>2026-04-18T09:08:11.876Z</time></trkpt><trkpt lat="42.7624404" lon="13.5728336"><ele>1077.3333333333333</ele><time>2026-04-18T09:08:12.876Z</time></trkpt><trkpt lat="42.7623543" lon="13.5728029"><ele>1075.6666666666667</ele><time>2026-04-18T09:08:13.876Z</time></trkpt><trkpt lat="42.7622774" lon="13.5727777"><ele>1074.0</ele><time>2026-04-18T09:08:14.875Z</time></trkpt><trkpt lat="42.7622037" lon="13.5727771"><ele>1074.0</ele><time>2026-04-18T09:08:15.876Z</time></trkpt><trkpt lat="42.762129" lon="13.5727768"><ele>1074.0</ele><time>2026-04-18T09:08:16.875Z</time></trkpt><trkpt lat="42.7620274" lon="13.5728035"><ele>1074.0</ele><time>2026-04-18T09:08:17.876Z</time></trkpt><trkpt lat="42.7619222" lon="13.5727995"><ele>1074.0</ele><time>2026-04-18T09:08:18.875Z</time></trkpt><trkpt lat="42.7617956" lon="13.5727861"><ele>1074.0</ele><time>2026-04-18T09:08:19.875Z</time></trkpt><trkpt lat="42.761659" lon="13.5727824"><ele>1075.0</ele><time>2026-04-18T09:08:20.876Z</time></trkpt><trkpt lat="42.7615158" lon="13.5727932"><ele>1076.0</ele><time>2026-04-18T09:08:21.876Z</time></trkpt><trkpt lat="42.7613694" lon="13.5728172"><ele>1077.0</ele><time>2026-04-18T09:08:22.876Z</time></trkpt><trkpt lat="42.7612455" lon="13.5728399"><ele>1078.0</ele><time>2026-04-18T09:08:23.876Z</time></trkpt><trkpt lat="42.7611332" lon="13.5728441"><ele>1078.8</ele><time>2026-04-18T09:08:24.876Z</time></trkpt><trkpt lat="42.7610312" lon="13.5728438"><ele>1079.6</ele><time>2026-04-18T09:08:25.876Z</time></trkpt><trkpt lat="42.7609263" lon="13.5728305"><ele>1080.4</ele><time>2026-04-18T09:08:26.876Z</time></trkpt><trkpt lat="42.7608207" lon="13.5727944"><ele>1081.2</ele><time>2026-04-18T09:08:27.876Z</time></trkpt><trkpt lat="42.7607269" lon="13.5727304"><ele>1082.0</ele><time>2026-04-18T09:08:28.876Z</time></trkpt><trkpt lat="42.7606298" lon="13.5726795"><ele>1082.0</ele><time>2026-04-18T09:08:29.876Z</time></trkpt><trkpt lat="42.7605433" lon="13.572629"><ele>1082.0</ele><time>2026-04-18T09:08:30.876Z</time></trkpt><trkpt lat="42.7604583" lon="13.5726005"><ele>1082.0</ele><time>2026-04-18T09:08:31.876Z</time></trkpt><trkpt lat="42.7603764" lon="13.5725594"><ele>1082.0</ele><time>2026-04-18T09:08:32.876Z</time></trkpt><trkpt lat="42.7602904" lon="13.5725187"><ele>1082.0</ele><time>2026-04-18T09:08:33.876Z</time></trkpt><trkpt lat="42.7602147" lon="13.5724877"><ele>1082.0</ele><time>2026-04-18T09:08:34.875Z</time></trkpt><trkpt lat="42.760133" lon="13.5724506"><ele>1083.0</ele><time>2026-04-18T09:08:35.876Z</time></trkpt><trkpt lat="42.7600636" lon="13.5724055"><ele>1084.0</ele><time>2026-04-18T09:08:36.875Z</time></trkpt><trkpt lat="42.7600085" lon="13.5723517"><ele>1085.0</ele><time>2026-04-18T09:08:37.876Z</time></trkpt><trkpt lat="42.7599231" lon="13.5722585"><ele>1086.0</ele><time>2026-04-18T09:08:39.875Z</time></trkpt><trkpt lat="42.7598524" lon="13.5721503"><ele>1087.0</ele><time>2026-04-18T09:08:41.876Z</time></trkpt><trkpt lat="42.7597876" lon="13.5720583"><ele>1085.4</ele><time>2026-04-18T09:08:43.876Z</time></trkpt><trkpt lat="42.7597308" lon="13.5719706"><ele>1083.8000000000002</ele><time>2026-04-18T09:08:46.875Z</time></trkpt><trkpt lat="42.7596623" lon="13.5719162"><ele>1082.2</ele><time>2026-04-18T09:09:18.875Z</time></trkpt><trkpt lat="42.7595944" lon="13.57184"><ele>1080.6000000000001</ele><time>2026-04-18T09:09:20.876Z</time></trkpt><trkpt lat="42.7594866" lon="13.571777"><ele>1079.0</ele><time>2026-04-18T09:09:22.876Z</time></trkpt><trkpt lat="42.7593803" lon="13.5717629"><ele>1081.0</ele><time>2026-04-18T09:09:24.876Z</time></trkpt><trkpt lat="42.7592779" lon="13.5717816"><ele>1083.0</ele><time>2026-04-18T09:09:26.876Z</time></trkpt><trkpt lat="42.759209" lon="13.5718"><ele>1085.0</ele><time>2026-04-18T09:09:27.876Z</time></trkpt><trkpt lat="42.7590845" lon="13.5718756"><ele>1087.0</ele><time>2026-04-18T09:09:29.875Z</time></trkpt><trkpt lat="42.7590121" lon="13.5719284"><ele>1089.0</ele><time>2026-04-18T09:09:30.876Z</time></trkpt><trkpt lat="42.7589403" lon="13.5719864"><ele>1087.1666666666667</ele><time>2026-04-18T09:09:31.876Z</time></trkpt><trkpt lat="42.7588718" lon="13.5720439"><ele>1085.3333333333333</ele><time>2026-04-18T09:09:32.876Z</time></trkpt><trkpt lat="42.7588081" lon="13.5721018"><ele>1083.5</ele><time>2026-04-18T09:09:33.876Z</time></trkpt><trkpt lat="42.7587316" lon="13.5721489"><ele>1081.6666666666665</ele><time>2026-04-18T09:09:34.876Z</time></trkpt><trkpt lat="42.7586445" lon="13.5721893"><ele>1079.8333333333333</ele><time>2026-04-18T09:09:35.876Z</time></trkpt><trkpt lat="42.7585599" lon="13.5722091"><ele>1078.0</ele><time>2026-04-18T09:09:36.876Z</time></trkpt><trkpt lat="42.7584721" lon="13.5722108"><ele>1076.8333333333333</ele><time>2026-04-18T09:09:37.876Z</time></trkpt><trkpt lat="42.7583912" lon="13.5721997"><ele>1075.6666666666665</ele><time>2026-04-18T09:09:38.876Z</time></trkpt><trkpt lat="42.758312" lon="13.5722022"><ele>1074.5</ele><time>2026-04-18T09:09:39.876Z</time></trkpt><trkpt lat="42.7582341" lon="13.5722169"><ele>1073.3333333333333</ele><time>2026-04-18T09:09:40.876Z</time></trkpt><trkpt lat="42.7581629" lon="13.5722572"><ele>1072.1666666666667</ele><time>2026-04-18T09:09:41.876Z</time></trkpt><trkpt lat="42.7580941" lon="13.5723199"><ele>1071.0</ele><time>2026-04-18T09:09:42.876Z</time></trkpt><trkpt lat="42.7580326" lon="13.5723942"><ele>1071.0</ele><time>2026-04-18T09:09:43.876Z</time></trkpt><trkpt lat="42.7579746" lon="13.5724559"><ele>1071.0</ele><time>2026-04-18T09:09:44.876Z</time></trkpt><trkpt lat="42.7579044" lon="13.5725189"><ele>1071.0</ele><time>2026-04-18T09:09:45.876Z</time></trkpt><trkpt lat="42.7578223" lon="13.5725608"><ele>1071.0</ele><time>2026-04-18T09:09:46.876Z</time></trkpt><trkpt lat="42.7577293" lon="13.5725828"><ele>1071.0</ele><time>2026-04-18T09:09:47.875Z</time></trkpt><trkpt lat="42.7576431" lon="13.572588"><ele>1071.0</ele><time>2026-04-18T09:09:48.875Z</time></trkpt><trkpt lat="42.7575662" lon="13.5725926"><ele>1071.0</ele><time>2026-04-18T09:09:49.876Z</time></trkpt><trkpt lat="42.7574969" lon="13.5726156"><ele>1071.0</ele><time>2026-04-18T09:09:50.876Z</time></trkpt><trkpt lat="42.7574396" lon="13.5726601"><ele>1071.0</ele><time>2026-04-18T09:09:51.876Z</time></trkpt><trkpt lat="42.7573807" lon="13.5727246"><ele>1071.0</ele><time>2026-04-18T09:09:52.876Z</time></trkpt><trkpt lat="42.757331" lon="13.5728095"><ele>1071.0</ele><time>2026-04-18T09:09:53.876Z</time></trkpt><trkpt lat="42.757286" lon="13.5729202"><ele>1071.0</ele><time>2026-04-18T09:09:54.876Z</time></trkpt><trkpt lat="42.7572567" lon="13.5730142"><ele>1067.6666666666667</ele><time>2026-04-18T09:09:55.876Z</time></trkpt><trkpt lat="42.7572269" lon="13.5731271"><ele>1064.3333333333333</ele><time>2026-04-18T09:09:56.876Z</time></trkpt><trkpt lat="42.757187" lon="13.5732223"><ele>1061.0</ele><time>2026-04-18T09:09:57.876Z</time></trkpt><trkpt lat="42.7571367" lon="13.5732992"><ele>1057.6666666666665</ele><time>2026-04-18T09:09:58.875Z</time></trkpt><trkpt lat="42.7570794" lon="13.5733433"><ele>1054.3333333333333</ele><time>2026-04-18T09:09:59.876Z</time></trkpt><trkpt lat="42.7570158" lon="13.5733619"><ele>1051.0</ele><time>2026-04-18T09:10:00.876Z</time></trkpt><trkpt lat="42.7569044" lon="13.5733257"><ele>1051.0</ele><time>2026-04-18T09:10:02.876Z</time></trkpt><trkpt lat="42.7568445" lon="13.5732883"><ele>1051.0</ele><time>2026-04-18T09:10:03.876Z</time></trkpt><trkpt lat="42.7567664" lon="13.5732529"><ele>1051.0</ele><time>2026-04-18T09:10:04.876Z</time></trkpt><trkpt lat="42.7566636" lon="13.5732433"><ele>1051.0</ele><time>2026-04-18T09:10:05.875Z</time></trkpt><trkpt lat="42.7565661" lon="13.5732293"><ele>1051.0</ele><time>2026-04-18T09:10:06.875Z</time></trkpt><trkpt lat="42.7564711" lon="13.5732028"><ele>1051.0</ele><time>2026-04-18T09:10:07.876Z</time></trkpt><trkpt lat="42.7563829" lon="13.5731829"><ele>1051.0</ele><time>2026-04-18T09:10:08.876Z</time></trkpt><trkpt lat="42.7562958" lon="13.5731879"><ele>1051.0</ele><time>2026-04-18T09:10:09.876Z</time></trkpt><trkpt lat="42.7562011" lon="13.5732113"><ele>1051.0</ele><time>2026-04-18T09:10:10.876Z</time></trkpt><trkpt lat="42.7560992" lon="13.5732661"><ele>1051.0</ele><time>2026-04-18T09:10:11.876Z</time></trkpt><trkpt lat="42.7560002" lon="13.5733447"><ele>1051.0</ele><time>2026-04-18T09:10:12.876Z</time></trkpt><trkpt lat="42.7559158" lon="13.5734334"><ele>1050.6</ele><time>2026-04-18T09:10:13.876Z</time></trkpt><trkpt lat="42.7558354" lon="13.5735272"><ele>1050.1999999999998</ele><time>2026-04-18T09:10:14.876Z</time></trkpt><trkpt lat="42.7557556" lon="13.5736144"><ele>1049.8000000000002</ele><time>2026-04-18T09:10:15.876Z</time></trkpt><trkpt lat="42.7556754" lon="13.5736859"><ele>1049.4</ele><time>2026-04-18T09:10:16.876Z</time></trkpt><trkpt lat="42.7555867" lon="13.5737463"><ele>1049.0</ele><time>2026-04-18T09:10:17.876Z</time></trkpt><trkpt lat="42.755495" lon="13.5738118"><ele>1045.2</ele><time>2026-04-18T09:10:18.876Z</time></trkpt><trkpt lat="42.7554076" lon="13.5738717"><ele>1041.4</ele><time>2026-04-18T09:10:19.876Z</time></trkpt><trkpt lat="42.7553227" lon="13.5739217"><ele>1037.6</ele><time>2026-04-18T09:10:20.876Z</time></trkpt><trkpt lat="42.7552366" lon="13.5739573"><ele>1033.8</ele><time>2026-04-18T09:10:21.876Z</time></trkpt><trkpt lat="42.7551478" lon="13.5739771"><ele>1030.0</ele><time>2026-04-18T09:10:22.876Z</time></trkpt><trkpt lat="42.7550603" lon="13.5739883"><ele>1030.0</ele><time>2026-04-18T09:10:23.876Z</time></trkpt><trkpt lat="42.7549744" lon="13.5740025"><ele>1030.0</ele><time>2026-04-18T09:10:24.876Z</time></trkpt><trkpt lat="42.7548893" lon="13.574018"><ele>1030.0</ele><time>2026-04-18T09:10:25.876Z</time></trkpt><trkpt lat="42.7548112" lon="13.574015"><ele>1030.0</ele><time>2026-04-18T09:10:26.876Z</time></trkpt><trkpt lat="42.7547471" lon="13.5739936"><ele>1030.0</ele><time>2026-04-18T09:10:27.876Z</time></trkpt><trkpt lat="42.7546352" lon="13.5739981"><ele>1030.0</ele><time>2026-04-18T09:10:29.876Z</time></trkpt><trkpt lat="42.7546045" lon="13.5740837"><ele>1030.0</ele><time>2026-04-18T09:10:31.876Z</time></trkpt><trkpt lat="42.7546454" lon="13.5741581"><ele>1030.0</ele><time>2026-04-18T09:10:33.876Z</time></trkpt><trkpt lat="42.7547467" lon="13.5741441"><ele>1030.0</ele><time>2026-04-18T09:10:35.876Z</time></trkpt><trkpt lat="42.7548197" lon="13.5741385"><ele>1030.0</ele><time>2026-04-18T09:10:36.876Z</time></trkpt><trkpt lat="42.7549043" lon="13.5741585"><ele>1030.0</ele><time>2026-04-18T09:10:37.875Z</time></trkpt><trkpt lat="42.7549924" lon="13.5742016"><ele>1030.0</ele><time>2026-04-18T09:10:38.876Z</time></trkpt><trkpt lat="42.7550734" lon="13.5742439"><ele>1030.0</ele><time>2026-04-18T09:10:39.876Z</time></trkpt><trkpt lat="42.7551373" lon="13.5742758"><ele>1030.0</ele><time>2026-04-18T09:10:40.876Z</time></trkpt><trkpt lat="42.7552357" lon="13.5743387"><ele>1030.0</ele><time>2026-04-18T09:10:42.876Z</time></trkpt><trkpt lat="42.7553347" lon="13.5743837"><ele>1030.0</ele><time>2026-04-18T09:10:44.876Z</time></trkpt><trkpt lat="42.7554329" lon="13.574408"><ele>1030.0</ele><time>2026-04-18T09:10:46.876Z</time></trkpt><trkpt lat="42.7555455" lon="13.5744118"><ele>1029.8</ele><time>2026-04-18T09:10:48.876Z</time></trkpt><trkpt lat="42.7556072" lon="13.5744295"><ele>1029.6</ele><time>2026-04-18T09:10:49.876Z</time></trkpt><trkpt lat="42.7557168" lon="13.5744739"><ele>1029.4</ele><time>2026-04-18T09:10:51.875Z</time></trkpt><trkpt lat="42.7558088" lon="13.5745426"><ele>1029.2</ele><time>2026-04-18T09:10:53.875Z</time></trkpt><trkpt lat="42.7558601" lon="13.5746541"><ele>1029.0</ele><time>2026-04-18T09:10:55.876Z</time></trkpt><trkpt lat="42.7558623" lon="13.5748102"><ele>1026.4</ele><time>2026-04-18T09:10:57.876Z</time></trkpt><trkpt lat="42.7558442" lon="13.574907"><ele>1023.8000000000001</ele><time>2026-04-18T09:10:58.876Z</time></trkpt><trkpt lat="42.7558201" lon="13.5750253"><ele>1021.1999999999999</ele><time>2026-04-18T09:10:59.876Z</time></trkpt><trkpt lat="42.7557996" lon="13.5751616"><ele>1018.5999999999999</ele><time>2026-04-18T09:11:00.876Z</time></trkpt><trkpt lat="42.7557832" lon="13.5752921"><ele>1016.0</ele><time>2026-04-18T09:11:01.876Z</time></trkpt><trkpt lat="42.7557634" lon="13.5754118"><ele>1013.6666666666667</ele><time>2026-04-18T09:11:02.875Z</time></trkpt><trkpt lat="42.7557438" lon="13.5755187"><ele>1011.3333333333334</ele><time>2026-04-18T09:11:03.876Z</time></trkpt><trkpt lat="42.7557269" lon="13.5756103"><ele>1009.0</ele><time>2026-04-18T09:11:04.875Z</time></trkpt><trkpt lat="42.7557043" lon="13.5756938"><ele>1006.6666666666667</ele><time>2026-04-18T09:11:05.876Z</time></trkpt><trkpt lat="42.7556643" lon="13.5757716"><ele>1004.3333333333334</ele><time>2026-04-18T09:11:06.876Z</time></trkpt><trkpt lat="42.7555999" lon="13.575859"><ele>1002.0</ele><time>2026-04-18T09:11:07.876Z</time></trkpt><trkpt lat="42.7555182" lon="13.5759542"><ele>1002.0</ele><time>2026-04-18T09:11:08.876Z</time></trkpt><trkpt lat="42.7554391" lon="13.5760286"><ele>1002.0</ele><time>2026-04-18T09:11:09.876Z</time></trkpt><trkpt lat="42.7553685" lon="13.5760694"><ele>1002.0</ele><time>2026-04-18T09:11:10.876Z</time></trkpt><trkpt lat="42.7553042" lon="13.5760803"><ele>1002.0</ele><time>2026-04-18T09:11:11.876Z</time></trkpt><trkpt lat="42.7551986" lon="13.5760428"><ele>1002.0</ele><time>2026-04-18T09:11:13.876Z</time></trkpt><trkpt lat="42.7550943" lon="13.5760805"><ele>1000.6666666666666</ele><time>2026-04-18T09:11:15.876Z</time></trkpt><trkpt lat="42.7550866" lon="13.5762277"><ele>999.3333333333333</ele><time>2026-04-18T09:11:17.876Z</time></trkpt><trkpt lat="42.7551227" lon="13.5763045"><ele>998.0</ele><time>2026-04-18T09:11:18.876Z</time></trkpt><trkpt lat="42.7551698" lon="13.5763632"><ele>996.6666666666666</ele><time>2026-04-18T09:11:19.876Z</time></trkpt><trkpt lat="42.755267" lon="13.5764348"><ele>995.3333333333333</ele><time>2026-04-18T09:11:21.876Z</time></trkpt><trkpt lat="42.7553115" lon="13.5765288"><ele>994.0</ele><time>2026-04-18T09:11:23.876Z</time></trkpt><trkpt lat="42.7552897" lon="13.5766734"><ele>993.9999999999999</ele><time>2026-04-18T09:11:25.875Z</time></trkpt><trkpt lat="42.7552468" lon="13.5767692"><ele>994.0</ele><time>2026-04-18T09:11:26.875Z</time></trkpt><trkpt lat="42.7551793" lon="13.576862"><ele>994.0</ele><time>2026-04-18T09:11:27.876Z</time></trkpt><trkpt lat="42.7551121" lon="13.5769364"><ele>994.0</ele><time>2026-04-18T09:11:28.876Z</time></trkpt><trkpt lat="42.7550553" lon="13.5769889"><ele>993.9999999999999</ele><time>2026-04-18T09:11:29.876Z</time></trkpt><trkpt lat="42.7549489" lon="13.5769875"><ele>994.0</ele><time>2026-04-18T09:11:31.876Z</time></trkpt><trkpt lat="42.7548813" lon="13.5769683"><ele>992.4999999999999</ele><time>2026-04-18T09:11:32.876Z</time></trkpt><trkpt lat="42.7548134" lon="13.5769266"><ele>991.0</ele><time>2026-04-18T09:11:33.876Z</time></trkpt><trkpt lat="42.7547618" lon="13.5768683"><ele>989.5</ele><time>2026-04-18T09:11:34.875Z</time></trkpt><trkpt lat="42.7547132" lon="13.5767859"><ele>988.0</ele><time>2026-04-18T09:11:35.876Z</time></trkpt><trkpt lat="42.7546567" lon="13.5766879"><ele>986.4999999999999</ele><time>2026-04-18T09:11:36.876Z</time></trkpt><trkpt lat="42.7546031" lon="13.5765926"><ele>985.0</ele><time>2026-04-18T09:11:37.876Z</time></trkpt><trkpt lat="42.754551" lon="13.5765044"><ele>984.9999999999999</ele><time>2026-04-18T09:11:38.876Z</time></trkpt><trkpt lat="42.7544869" lon="13.5764211"><ele>985.0</ele><time>2026-04-18T09:11:39.876Z</time></trkpt><trkpt lat="42.7544194" lon="13.5763492"><ele>985.0</ele><time>2026-04-18T09:11:40.876Z</time></trkpt><trkpt lat="42.7543586" lon="13.5762946"><ele>985.0</ele><time>2026-04-18T09:11:41.876Z</time></trkpt><trkpt lat="42.7543005" lon="13.5762607"><ele>984.9999999999999</ele><time>2026-04-18T09:11:42.875Z</time></trkpt><trkpt lat="42.7542292" lon="13.5762911"><ele>985.0</ele><time>2026-04-18T09:11:43.875Z</time></trkpt><trkpt lat="42.754158" lon="13.5763306"><ele>984.25</ele><time>2026-04-18T09:11:44.875Z</time></trkpt><trkpt lat="42.7540649" lon="13.5764023"><ele>983.5</ele><time>2026-04-18T09:11:45.876Z</time></trkpt><trkpt lat="42.7539649" lon="13.5764865"><ele>982.75</ele><time>2026-04-18T09:11:46.876Z</time></trkpt><trkpt lat="42.7538598" lon="13.576581"><ele>982.0</ele><time>2026-04-18T09:11:47.876Z</time></trkpt><trkpt lat="42.753752" lon="13.5766852"><ele>982.0</ele><time>2026-04-18T09:11:48.876Z</time></trkpt><trkpt lat="42.7536589" lon="13.5768082"><ele>982.0</ele><time>2026-04-18T09:11:49.876Z</time></trkpt><trkpt lat="42.7535624" lon="13.5769607"><ele>982.0</ele><time>2026-04-18T09:11:50.876Z</time></trkpt><trkpt lat="42.7534793" lon="13.5771092"><ele>982.0</ele><time>2026-04-18T09:11:51.875Z</time></trkpt><trkpt lat="42.7534252" lon="13.5772046"><ele>981.0</ele><time>2026-04-18T09:11:52.875Z</time></trkpt><trkpt lat="42.753363" lon="13.5772802"><ele>980.0</ele><time>2026-04-18T09:11:53.875Z</time></trkpt><trkpt lat="42.7532859" lon="13.5773513"><ele>979.0</ele><time>2026-04-18T09:11:54.876Z</time></trkpt><trkpt lat="42.7531947" lon="13.5774142"><ele>978.0</ele><time>2026-04-18T09:11:55.876Z</time></trkpt><trkpt lat="42.753105" lon="13.5774616"><ele>977.0</ele><time>2026-04-18T09:11:56.876Z</time></trkpt><trkpt lat="42.7530202" lon="13.5775025"><ele>977.0</ele><time>2026-04-18T09:11:57.875Z</time></trkpt><trkpt lat="42.7529369" lon="13.5775399"><ele>977.0</ele><time>2026-04-18T09:11:58.875Z</time></trkpt><trkpt lat="42.7528648" lon="13.5775651"><ele>977.0</ele><time>2026-04-18T09:11:59.876Z</time></trkpt><trkpt lat="42.7527475" lon="13.5775897"><ele>977.0</ele><time>2026-04-18T09:12:01.876Z</time></trkpt><trkpt lat="42.7526344" lon="13.5775803"><ele>977.0</ele><time>2026-04-18T09:12:03.876Z</time></trkpt><trkpt lat="42.7525194" lon="13.5775227"><ele>978.6666666666667</ele><time>2026-04-18T09:12:05.875Z</time></trkpt><trkpt lat="42.7524678" lon="13.5774712"><ele>980.3333333333334</ele><time>2026-04-18T09:12:06.875Z</time></trkpt><trkpt lat="42.7524163" lon="13.5774092"><ele>982.0</ele><time>2026-04-18T09:12:07.876Z</time></trkpt><trkpt lat="42.7523571" lon="13.5773381"><ele>983.6666666666667</ele><time>2026-04-18T09:12:08.876Z</time></trkpt><trkpt lat="42.7522885" lon="13.5772573"><ele>985.3333333333334</ele><time>2026-04-18T09:12:09.876Z</time></trkpt><trkpt lat="42.7522095" lon="13.5771762"><ele>987.0</ele><time>2026-04-18T09:12:10.876Z</time></trkpt><trkpt lat="42.7521113" lon="13.5770958"><ele>987.0</ele><time>2026-04-18T09:12:11.876Z</time></trkpt><trkpt lat="42.7520234" lon="13.5770267"><ele>987.0</ele><time>2026-04-18T09:12:12.876Z</time></trkpt><trkpt lat="42.7519455" lon="13.576959"><ele>987.0</ele><time>2026-04-18T09:12:13.876Z</time></trkpt><trkpt lat="42.7518781" lon="13.5768886"><ele>987.0</ele><time>2026-04-18T09:12:14.876Z</time></trkpt><trkpt lat="42.7518195" lon="13.5768128"><ele>987.0</ele><time>2026-04-18T09:12:15.875Z</time></trkpt><trkpt lat="42.751754" lon="13.5767332"><ele>987.0</ele><time>2026-04-18T09:12:16.876Z</time></trkpt><trkpt lat="42.7516944" lon="13.576667"><ele>987.0</ele><time>2026-04-18T09:12:17.876Z</time></trkpt><trkpt lat="42.7516265" lon="13.5765988"><ele>987.0</ele><time>2026-04-18T09:12:18.876Z</time></trkpt><trkpt lat="42.7515562" lon="13.5765454"><ele>987.0</ele><time>2026-04-18T09:12:19.875Z</time></trkpt><trkpt lat="42.7514856" lon="13.5764939"><ele>987.0</ele><time>2026-04-18T09:12:20.876Z</time></trkpt><trkpt lat="42.7514056" lon="13.576447"><ele>987.0</ele><time>2026-04-18T09:12:21.876Z</time></trkpt><trkpt lat="42.7513313" lon="13.5764303"><ele>987.0</ele><time>2026-04-18T09:12:22.876Z</time></trkpt><trkpt lat="42.7512045" lon="13.5764331"><ele>987.0</ele><time>2026-04-18T09:12:24.876Z</time></trkpt><trkpt lat="42.7511402" lon="13.5764439"><ele>987.0</ele><time>2026-04-18T09:12:25.876Z</time></trkpt><trkpt lat="42.7510688" lon="13.5764608"><ele>987.0</ele><time>2026-04-18T09:12:26.876Z</time></trkpt><trkpt lat="42.7509706" lon="13.5764854"><ele>987.0</ele><time>2026-04-18T09:12:27.876Z</time></trkpt><trkpt lat="42.7508704" lon="13.5765103"><ele>987.0</ele><time>2026-04-18T09:12:28.876Z</time></trkpt><trkpt lat="42.7507762" lon="13.5765156"><ele>987.0</ele><time>2026-04-18T09:12:29.876Z</time></trkpt><trkpt lat="42.7506902" lon="13.5764919"><ele>988.0</ele><time>2026-04-18T09:12:30.876Z</time></trkpt><trkpt lat="42.7505944" lon="13.5764494"><ele>989.0</ele><time>2026-04-18T09:12:31.876Z</time></trkpt><trkpt lat="42.7505197" lon="13.5763955"><ele>990.0</ele><time>2026-04-18T09:12:32.876Z</time></trkpt><trkpt lat="42.750439" lon="13.5763283"><ele>991.0</ele><time>2026-04-18T09:12:33.876Z</time></trkpt><trkpt lat="42.7503561" lon="13.576251"><ele>992.0</ele><time>2026-04-18T09:12:34.876Z</time></trkpt><trkpt lat="42.7502809" lon="13.5761749"><ele>992.0</ele><time>2026-04-18T09:12:35.875Z</time></trkpt><trkpt lat="42.7502119" lon="13.5760739"><ele>992.0</ele><time>2026-04-18T09:12:36.876Z</time></trkpt><trkpt lat="42.7501567" lon="13.5759617"><ele>992.0</ele><time>2026-04-18T09:12:37.876Z</time></trkpt><trkpt lat="42.7501074" lon="13.5758786"><ele>992.0</ele><time>2026-04-18T09:12:38.875Z</time></trkpt><trkpt lat="42.7500035" lon="13.5758187"><ele>992.0</ele><time>2026-04-18T09:12:40.876Z</time></trkpt><trkpt lat="42.7499114" lon="13.575851"><ele>991.4000000000001</ele><time>2026-04-18T09:12:42.876Z</time></trkpt><trkpt lat="42.7498715" lon="13.5759845"><ele>990.8000000000001</ele><time>2026-04-18T09:12:44.876Z</time></trkpt><trkpt lat="42.7498434" lon="13.5761239"><ele>990.2</ele><time>2026-04-18T09:12:45.876Z</time></trkpt><trkpt lat="42.7498007" lon="13.5762592"><ele>989.6</ele><time>2026-04-18T09:12:46.876Z</time></trkpt><trkpt lat="42.7497386" lon="13.5763504"><ele>989.0</ele><time>2026-04-18T09:12:47.876Z</time></trkpt><trkpt lat="42.7496581" lon="13.5764091"><ele>990.25</ele><time>2026-04-18T09:12:48.876Z</time></trkpt><trkpt lat="42.749548" lon="13.5764506"><ele>991.5</ele><time>2026-04-18T09:12:49.876Z</time></trkpt><trkpt lat="42.7493949" lon="13.5764995"><ele>992.75</ele><time>2026-04-18T09:12:50.876Z</time></trkpt><trkpt lat="42.7492335" lon="13.5765644"><ele>994.0</ele><time>2026-04-18T09:12:51.876Z</time></trkpt><trkpt lat="42.7491217" lon="13.5766279"><ele>994.0</ele><time>2026-04-18T09:12:52.876Z</time></trkpt><trkpt lat="42.7490372" lon="13.5766901"><ele>994.0000000000001</ele><time>2026-04-18T09:12:53.876Z</time></trkpt><trkpt lat="42.7489738" lon="13.5767904"><ele>994.0000000000001</ele><time>2026-04-18T09:12:54.876Z</time></trkpt><trkpt lat="42.748927" lon="13.5769308"><ele>994.0</ele><time>2026-04-18T09:12:55.876Z</time></trkpt><trkpt lat="42.7488971" lon="13.5770956"><ele>994.0</ele><time>2026-04-18T09:12:56.876Z</time></trkpt><trkpt lat="42.7488832" lon="13.577285"><ele>992.0</ele><time>2026-04-18T09:12:57.876Z</time></trkpt><trkpt lat="42.7488857" lon="13.5774535"><ele>990.0</ele><time>2026-04-18T09:12:58.876Z</time></trkpt><trkpt lat="42.7489004" lon="13.5776075"><ele>988.0</ele><time>2026-04-18T09:12:59.876Z</time></trkpt><trkpt lat="42.748918" lon="13.5777749"><ele>986.0</ele><time>2026-04-18T09:13:00.876Z</time></trkpt><trkpt lat="42.7489413" lon="13.5779143"><ele>985.8</ele><time>2026-04-18T09:13:01.876Z</time></trkpt><trkpt lat="42.7489527" lon="13.5780126"><ele>985.5999999999999</ele><time>2026-04-18T09:13:02.876Z</time></trkpt><trkpt lat="42.7488937" lon="13.5781364"><ele>985.4</ele><time>2026-04-18T09:13:04.876Z</time></trkpt><trkpt lat="42.7488209" lon="13.5782181"><ele>985.2</ele><time>2026-04-18T09:13:05.876Z</time></trkpt><trkpt lat="42.7487212" lon="13.5783376"><ele>985.0</ele><time>2026-04-18T09:13:06.876Z</time></trkpt><trkpt lat="42.7486041" lon="13.5784894"><ele>987.3333333333333</ele><time>2026-04-18T09:13:07.876Z</time></trkpt><trkpt lat="42.7484753" lon="13.5786632"><ele>989.6666666666667</ele><time>2026-04-18T09:13:08.876Z</time></trkpt><trkpt lat="42.7483561" lon="13.5788307"><ele>992.0</ele><time>2026-04-18T09:13:09.876Z</time></trkpt><trkpt lat="42.748267" lon="13.5789846"><ele>992.0</ele><time>2026-04-18T09:13:10.876Z</time></trkpt><trkpt lat="42.7481941" lon="13.5791279"><ele>992.0</ele><time>2026-04-18T09:13:11.876Z</time></trkpt><trkpt lat="42.7481106" lon="13.5792593"><ele>992.0</ele><time>2026-04-18T09:13:12.876Z</time></trkpt><trkpt lat="42.7480195" lon="13.5793668"><ele>992.0</ele><time>2026-04-18T09:13:13.876Z</time></trkpt><trkpt lat="42.7479309" lon="13.5794392"><ele>992.0</ele><time>2026-04-18T09:13:14.876Z</time></trkpt><trkpt lat="42.7478459" lon="13.5795078"><ele>992.0</ele><time>2026-04-18T09:13:15.875Z</time></trkpt><trkpt lat="42.7477611" lon="13.5796089"><ele>992.0</ele><time>2026-04-18T09:13:16.876Z</time></trkpt><trkpt lat="42.7476765" lon="13.5797271"><ele>992.0</ele><time>2026-04-18T09:13:17.875Z</time></trkpt><trkpt lat="42.7475964" lon="13.579849"><ele>991.8</ele><time>2026-04-18T09:13:18.876Z</time></trkpt><trkpt lat="42.7475345" lon="13.5799654"><ele>991.6</ele><time>2026-04-18T09:13:19.876Z</time></trkpt><trkpt lat="42.7474995" lon="13.5800731"><ele>991.3999999999999</ele><time>2026-04-18T09:13:20.876Z</time></trkpt><trkpt lat="42.7474842" lon="13.5801797"><ele>991.1999999999999</ele><time>2026-04-18T09:13:21.876Z</time></trkpt><trkpt lat="42.7474838" lon="13.5802931"><ele>991.0</ele><time>2026-04-18T09:13:22.876Z</time></trkpt><trkpt lat="42.7474883" lon="13.5804311"><ele>991.0</ele><time>2026-04-18T09:13:23.876Z</time></trkpt><trkpt lat="42.7474841" lon="13.5805617"><ele>990.9999999999999</ele><time>2026-04-18T09:13:24.876Z</time></trkpt><trkpt lat="42.7474596" lon="13.5806603"><ele>990.9999999999999</ele><time>2026-04-18T09:13:25.876Z</time></trkpt><trkpt lat="42.7474342" lon="13.5807488"><ele>991.0</ele><time>2026-04-18T09:13:26.875Z</time></trkpt><trkpt lat="42.7473657" lon="13.5808786"><ele>991.0</ele><time>2026-04-18T09:13:28.876Z</time></trkpt><trkpt lat="42.7472637" lon="13.5808573"><ele>991.0</ele><time>2026-04-18T09:13:30.876Z</time></trkpt><trkpt lat="42.7471782" lon="13.5807833"><ele>990.9999999999999</ele><time>2026-04-18T09:13:32.876Z</time></trkpt><trkpt lat="42.7471295" lon="13.5806729"><ele>990.9999999999999</ele><time>2026-04-18T09:13:34.876Z</time></trkpt><trkpt lat="42.7471114" lon="13.5804906"><ele>991.0</ele><time>2026-04-18T09:13:36.876Z</time></trkpt><trkpt lat="42.7471077" lon="13.580355"><ele>991.0</ele><time>2026-04-18T09:13:37.875Z</time></trkpt><trkpt lat="42.7470984" lon="13.5802112"><ele>991.9999999999999</ele><time>2026-04-18T09:13:38.876Z</time></trkpt><trkpt lat="42.7470821" lon="13.5800809"><ele>993.0</ele><time>2026-04-18T09:13:39.876Z</time></trkpt><trkpt lat="42.7470629" lon="13.5799603"><ele>994.0</ele><time>2026-04-18T09:13:40.875Z</time></trkpt><trkpt lat="42.7470424" lon="13.5798417"><ele>995.0</ele><time>2026-04-18T09:13:41.876Z</time></trkpt><trkpt lat="42.7470219" lon="13.5797282"><ele>995.9999999999999</ele><time>2026-04-18T09:13:42.876Z</time></trkpt><trkpt lat="42.7469907" lon="13.5796207"><ele>997.0</ele><time>2026-04-18T09:13:43.875Z</time></trkpt><trkpt lat="42.7469562" lon="13.5795129"><ele>998.8</ele><time>2026-04-18T09:13:44.876Z</time></trkpt><trkpt lat="42.7468939" lon="13.579385"><ele>1000.6</ele><time>2026-04-18T09:13:45.875Z</time></trkpt><trkpt lat="42.7468202" lon="13.5792591"><ele>1002.3999999999999</ele><time>2026-04-18T09:13:46.876Z</time></trkpt><trkpt lat="42.746746" lon="13.5791396"><ele>1004.1999999999999</ele><time>2026-04-18T09:13:47.876Z</time></trkpt><trkpt lat="42.7466945" lon="13.5790239"><ele>1006.0</ele><time>2026-04-18T09:13:48.876Z</time></trkpt><trkpt lat="42.7466568" lon="13.5789075"><ele>1001.1999999999999</ele><time>2026-04-18T09:13:49.876Z</time></trkpt><trkpt lat="42.7466347" lon="13.5787886"><ele>996.3999999999999</ele><time>2026-04-18T09:13:50.876Z</time></trkpt><trkpt lat="42.7466246" lon="13.5786617"><ele>991.6</ele><time>2026-04-18T09:13:51.876Z</time></trkpt><trkpt lat="42.7466194" lon="13.578541"><ele>986.8</ele><time>2026-04-18T09:13:52.876Z</time></trkpt><trkpt lat="42.7466201" lon="13.5784159"><ele>982.0</ele><time>2026-04-18T09:13:53.875Z</time></trkpt><trkpt lat="42.746615" lon="13.5782769"><ele>982.0</ele><time>2026-04-18T09:13:54.876Z</time></trkpt><trkpt lat="42.7465996" lon="13.5781309"><ele>982.0</ele><time>2026-04-18T09:13:55.875Z</time></trkpt><trkpt lat="42.7465765" lon="13.5780078"><ele>982.0</ele><time>2026-04-18T09:13:56.876Z</time></trkpt><trkpt lat="42.7465506" lon="13.5779053"><ele>982.0</ele><time>2026-04-18T09:13:57.876Z</time></trkpt><trkpt lat="42.7465217" lon="13.5777892"><ele>982.0</ele><time>2026-04-18T09:13:58.876Z</time></trkpt><trkpt lat="42.7464969" lon="13.5776468"><ele>981.2</ele><time>2026-04-18T09:13:59.876Z</time></trkpt><trkpt lat="42.7464772" lon="13.5774969"><ele>980.4000000000001</ele><time>2026-04-18T09:14:00.876Z</time></trkpt><trkpt lat="42.7464681" lon="13.5773634"><ele>979.5999999999999</ele><time>2026-04-18T09:14:01.876Z</time></trkpt><trkpt lat="42.7464526" lon="13.5772239"><ele>978.8</ele><time>2026-04-18T09:14:02.876Z</time></trkpt><trkpt lat="42.7464263" lon="13.5770689"><ele>978.0</ele><time>2026-04-18T09:14:03.876Z</time></trkpt><trkpt lat="42.7463976" lon="13.5769238"><ele>976.8333333333334</ele><time>2026-04-18T09:14:04.876Z</time></trkpt><trkpt lat="42.7463775" lon="13.5767969"><ele>975.6666666666667</ele><time>2026-04-18T09:14:05.876Z</time></trkpt><trkpt lat="42.7463726" lon="13.576689"><ele>974.5</ele><time>2026-04-18T09:14:06.876Z</time></trkpt><trkpt lat="42.7463846" lon="13.576549"><ele>973.3333333333334</ele><time>2026-04-18T09:14:08.876Z</time></trkpt><trkpt lat="42.7463816" lon="13.5764509"><ele>972.1666666666667</ele><time>2026-04-18T09:14:10.876Z</time></trkpt><trkpt lat="42.7463855" lon="13.5763451"><ele>971.0</ele><time>2026-04-18T09:14:12.875Z</time></trkpt><trkpt lat="42.7463889" lon="13.5762249"><ele>970.5999999999999</ele><time>2026-04-18T09:14:15.876Z</time></trkpt><trkpt lat="42.7463916" lon="13.5760438"><ele>970.1999999999999</ele><time>2026-04-18T09:14:17.876Z</time></trkpt><trkpt lat="42.7463649" lon="13.5759226"><ele>969.8000000000001</ele><time>2026-04-18T09:14:18.876Z</time></trkpt><trkpt lat="42.7463228" lon="13.5757908"><ele>969.4000000000001</ele><time>2026-04-18T09:14:19.876Z</time></trkpt><trkpt lat="42.7462787" lon="13.5756648"><ele>969.0</ele><time>2026-04-18T09:14:20.876Z</time></trkpt><trkpt lat="42.7462535" lon="13.5755748"><ele>969.0</ele><time>2026-04-18T09:14:21.876Z</time></trkpt><trkpt lat="42.7462057" lon="13.5754624"><ele>969.0000000000001</ele><time>2026-04-18T09:14:23.876Z</time></trkpt><trkpt lat="42.7461015" lon="13.5754253"><ele>969.0000000000001</ele><time>2026-04-18T09:14:25.876Z</time></trkpt><trkpt lat="42.7460047" lon="13.5755204"><ele>969.0</ele><time>2026-04-18T09:14:27.875Z</time></trkpt><trkpt lat="42.745949" lon="13.5756209"><ele>969.0</ele><time>2026-04-18T09:14:28.876Z</time></trkpt><trkpt lat="42.745886" lon="13.5757522"><ele>963.75</ele><time>2026-04-18T09:14:29.875Z</time></trkpt><trkpt lat="42.7458183" lon="13.57588"><ele>958.5</ele><time>2026-04-18T09:14:30.875Z</time></trkpt><trkpt lat="42.7457469" lon="13.5760114"><ele>953.25</ele><time>2026-04-18T09:14:31.876Z</time></trkpt><trkpt lat="42.7456778" lon="13.5761544"><ele>948.0</ele><time>2026-04-18T09:14:32.876Z</time></trkpt><trkpt lat="42.745624" lon="13.5762648"><ele>948.0</ele><time>2026-04-18T09:14:33.875Z</time></trkpt><trkpt lat="42.7455787" lon="13.5763609"><ele>948.0</ele><time>2026-04-18T09:14:34.876Z</time></trkpt><trkpt lat="42.7455357" lon="13.5764679"><ele>948.0</ele><time>2026-04-18T09:14:35.876Z</time></trkpt><trkpt lat="42.7454982" lon="13.576572"><ele>948.0</ele><time>2026-04-18T09:14:36.876Z</time></trkpt><trkpt lat="42.7454566" lon="13.576649"><ele>948.0</ele><time>2026-04-18T09:14:37.875Z</time></trkpt><trkpt lat="42.7453706" lon="13.5767286"><ele>948.0</ele><time>2026-04-18T09:14:39.876Z</time></trkpt><trkpt lat="42.7453042" lon="13.5768029"><ele>948.0</ele><time>2026-04-18T09:14:41.876Z</time></trkpt><trkpt lat="42.7452446" lon="13.5768954"><ele>948.0</ele><time>2026-04-18T09:14:43.875Z</time></trkpt><trkpt lat="42.7451508" lon="13.5769342"><ele>948.0</ele><time>2026-04-18T09:14:45.876Z</time></trkpt><trkpt lat="42.7450587" lon="13.5768574"><ele>948.0</ele><time>2026-04-18T09:14:47.876Z</time></trkpt><trkpt lat="42.74502" lon="13.5767144"><ele>948.0</ele><time>2026-04-18T09:14:49.876Z</time></trkpt><trkpt lat="42.7450216" lon="13.5765703"><ele>944.6666666666666</ele><time>2026-04-18T09:14:51.875Z</time></trkpt><trkpt lat="42.745017" lon="13.5764817"><ele>941.3333333333333</ele><time>2026-04-18T09:14:53.876Z</time></trkpt><trkpt lat="42.7450561" lon="13.5763552"><ele>938.0</ele><time>2026-04-18T09:14:55.875Z</time></trkpt><trkpt lat="42.7450825" lon="13.5762555"><ele>934.6666666666666</ele><time>2026-04-18T09:14:56.876Z</time></trkpt><trkpt lat="42.7451157" lon="13.5761554"><ele>931.3333333333333</ele><time>2026-04-18T09:14:57.875Z</time></trkpt><trkpt lat="42.7451468" lon="13.5760788"><ele>928.0</ele><time>2026-04-18T09:14:58.876Z</time></trkpt><trkpt lat="42.7451678" lon="13.5759826"><ele>927.8</ele><time>2026-04-18T09:14:59.876Z</time></trkpt><trkpt lat="42.7451699" lon="13.5758584"><ele>927.5999999999999</ele><time>2026-04-18T09:15:00.876Z</time></trkpt><trkpt lat="42.7451491" lon="13.5757121"><ele>927.4000000000001</ele><time>2026-04-18T09:15:01.876Z</time></trkpt><trkpt lat="42.7451141" lon="13.575566"><ele>927.2</ele><time>2026-04-18T09:15:02.876Z</time></trkpt><trkpt lat="42.7450725" lon="13.5754473"><ele>927.0</ele><time>2026-04-18T09:15:03.875Z</time></trkpt><trkpt lat="42.7450318" lon="13.5753408"><ele>927.0</ele><time>2026-04-18T09:15:04.876Z</time></trkpt><trkpt lat="42.7449866" lon="13.5752514"><ele>927.0</ele><time>2026-04-18T09:15:05.876Z</time></trkpt><trkpt lat="42.7449448" lon="13.5751638"><ele>927.0</ele><time>2026-04-18T09:15:06.876Z</time></trkpt><trkpt lat="42.7449086" lon="13.5750825"><ele>927.0</ele><time>2026-04-18T09:15:07.875Z</time></trkpt><trkpt lat="42.7448714" lon="13.5749945"><ele>927.0</ele><time>2026-04-18T09:15:08.876Z</time></trkpt><trkpt lat="42.7448228" lon="13.5748908"><ele>927.0</ele><time>2026-04-18T09:15:09.876Z</time></trkpt><trkpt lat="42.7447618" lon="13.5747931"><ele>927.0</ele><time>2026-04-18T09:15:10.876Z</time></trkpt><trkpt lat="42.7446917" lon="13.5747262"><ele>927.0</ele><time>2026-04-18T09:15:11.876Z</time></trkpt><trkpt lat="42.7446065" lon="13.5746863"><ele>927.0</ele><time>2026-04-18T09:15:12.875Z</time></trkpt><trkpt lat="42.7445121" lon="13.5746641"><ele>927.0</ele><time>2026-04-18T09:15:13.876Z</time></trkpt><trkpt lat="42.744422" lon="13.5746507"><ele>927.0</ele><time>2026-04-18T09:15:14.876Z</time></trkpt><trkpt lat="42.7443428" lon="13.5746201"><ele>927.0</ele><time>2026-04-18T09:15:15.876Z</time></trkpt><trkpt lat="42.7442702" lon="13.5745645"><ele>926.6666666666666</ele><time>2026-04-18T09:15:16.876Z</time></trkpt><trkpt lat="42.7442011" lon="13.5745046"><ele>926.3333333333333</ele><time>2026-04-18T09:15:17.876Z</time></trkpt><trkpt lat="42.7441325" lon="13.5744426"><ele>926.0</ele><time>2026-04-18T09:15:18.876Z</time></trkpt><trkpt lat="42.7440793" lon="13.5743705"><ele>925.6666666666666</ele><time>2026-04-18T09:15:19.876Z</time></trkpt><trkpt lat="42.744043" lon="13.5742883"><ele>925.3333333333333</ele><time>2026-04-18T09:15:20.876Z</time></trkpt><trkpt lat="42.744016" lon="13.5741984"><ele>925.0</ele><time>2026-04-18T09:15:21.876Z</time></trkpt><trkpt lat="42.7439926" lon="13.5740944"><ele>924.9999999999999</ele><time>2026-04-18T09:15:22.876Z</time></trkpt><trkpt lat="42.7439772" lon="13.5739803"><ele>925.0</ele><time>2026-04-18T09:15:23.876Z</time></trkpt><trkpt lat="42.7439643" lon="13.5738658"><ele>925.0</ele><time>2026-04-18T09:15:24.876Z</time></trkpt><trkpt lat="42.7439467" lon="13.5737527"><ele>925.0</ele><time>2026-04-18T09:15:25.876Z</time></trkpt><trkpt lat="42.7439221" lon="13.5736397"><ele>924.9999999999999</ele><time>2026-04-18T09:15:26.875Z</time></trkpt><trkpt lat="42.7438981" lon="13.5735232"><ele>925.0</ele><time>2026-04-18T09:15:27.876Z</time></trkpt><trkpt lat="42.7438778" lon="13.5734023"><ele>926.25</ele><time>2026-04-18T09:15:28.876Z</time></trkpt><trkpt lat="42.7438613" lon="13.5732686"><ele>927.5</ele><time>2026-04-18T09:15:29.876Z</time></trkpt><trkpt lat="42.7438607" lon="13.5731167"><ele>928.75</ele><time>2026-04-18T09:15:30.876Z</time></trkpt><trkpt lat="42.7438841" lon="13.5729527"><ele>930.0</ele><time>2026-04-18T09:15:31.875Z</time></trkpt><trkpt lat="42.7439184" lon="13.5727822"><ele>933.25</ele><time>2026-04-18T09:15:32.875Z</time></trkpt><trkpt lat="42.7439451" lon="13.5725978"><ele>936.5</ele><time>2026-04-18T09:15:33.876Z</time></trkpt><trkpt lat="42.7439554" lon="13.5724044"><ele>939.75</ele><time>2026-04-18T09:15:34.876Z</time></trkpt><trkpt lat="42.743938" lon="13.5722359"><ele>943.0</ele><time>2026-04-18T09:15:35.876Z</time></trkpt><trkpt lat="42.7439091" lon="13.5720845"><ele>943.75</ele><time>2026-04-18T09:15:36.876Z</time></trkpt><trkpt lat="42.7438862" lon="13.5719232"><ele>944.5</ele><time>2026-04-18T09:15:37.876Z</time></trkpt><trkpt lat="42.7438799" lon="13.571752"><ele>945.25</ele><time>2026-04-18T09:15:38.876Z</time></trkpt><trkpt lat="42.7438929" lon="13.571577"><ele>946.0</ele><time>2026-04-18T09:15:39.875Z</time></trkpt><trkpt lat="42.7439225" lon="13.5714077"><ele>946.0</ele><time>2026-04-18T09:15:40.876Z</time></trkpt><trkpt lat="42.7439588" lon="13.5712585"><ele>945.9999999999999</ele><time>2026-04-18T09:15:41.876Z</time></trkpt><trkpt lat="42.7439864" lon="13.5711272"><ele>945.9999999999999</ele><time>2026-04-18T09:15:42.876Z</time></trkpt><trkpt lat="42.7440003" lon="13.5710066"><ele>946.0</ele><time>2026-04-18T09:15:43.875Z</time></trkpt><trkpt lat="42.7439925" lon="13.570887"><ele>946.0</ele><time>2026-04-18T09:15:44.876Z</time></trkpt><trkpt lat="42.7439576" lon="13.570771"><ele>945.5999999999999</ele><time>2026-04-18T09:15:45.876Z</time></trkpt><trkpt lat="42.7438964" lon="13.5706732"><ele>945.1999999999999</ele><time>2026-04-18T09:15:46.876Z</time></trkpt><trkpt lat="42.7438158" lon="13.5706037"><ele>944.8000000000001</ele><time>2026-04-18T09:15:47.876Z</time></trkpt><trkpt lat="42.7437258" lon="13.570564"><ele>944.4000000000001</ele><time>2026-04-18T09:15:48.876Z</time></trkpt><trkpt lat="42.7436309" lon="13.5705362"><ele>944.0</ele><time>2026-04-18T09:15:49.876Z</time></trkpt><trkpt lat="42.743537" lon="13.5705047"><ele>945.2</ele><time>2026-04-18T09:15:50.876Z</time></trkpt><trkpt lat="42.743443" lon="13.5704779"><ele>946.4000000000001</ele><time>2026-04-18T09:15:51.875Z</time></trkpt><trkpt lat="42.743344" lon="13.5704485"><ele>947.6</ele><time>2026-04-18T09:15:52.875Z</time></trkpt><trkpt lat="42.7432681" lon="13.5703938"><ele>948.8</ele><time>2026-04-18T09:15:53.876Z</time></trkpt><trkpt lat="42.7432119" lon="13.5703137"><ele>950.0</ele><time>2026-04-18T09:15:54.876Z</time></trkpt><trkpt lat="42.7431498" lon="13.5702032"><ele>950.0</ele><time>2026-04-18T09:15:55.876Z</time></trkpt><trkpt lat="42.7430828" lon="13.5700688"><ele>950.0</ele><time>2026-04-18T09:15:56.876Z</time></trkpt><trkpt lat="42.7430121" lon="13.5699149"><ele>950.0</ele><time>2026-04-18T09:15:57.876Z</time></trkpt><trkpt lat="42.7429398" lon="13.5697539"><ele>950.0</ele><time>2026-04-18T09:15:58.876Z</time></trkpt><trkpt lat="42.7428756" lon="13.5695828"><ele>946.5</ele><time>2026-04-18T09:15:59.876Z</time></trkpt><trkpt lat="42.7428172" lon="13.5693999"><ele>943.0</ele><time>2026-04-18T09:16:00.876Z</time></trkpt><trkpt lat="42.7427593" lon="13.5692147"><ele>939.5</ele><time>2026-04-18T09:16:01.876Z</time></trkpt><trkpt lat="42.7426999" lon="13.5690296"><ele>936.0</ele><time>2026-04-18T09:16:02.875Z</time></trkpt><trkpt lat="42.7426434" lon="13.5688452"><ele>939.25</ele><time>2026-04-18T09:16:03.875Z</time></trkpt><trkpt lat="42.7426129" lon="13.5686547"><ele>942.5</ele><time>2026-04-18T09:16:04.876Z</time></trkpt><trkpt lat="42.7426044" lon="13.5684644"><ele>945.75</ele><time>2026-04-18T09:16:05.876Z</time></trkpt><trkpt lat="42.7426049" lon="13.5682722"><ele>949.0</ele><time>2026-04-18T09:16:06.876Z</time></trkpt><trkpt lat="42.7426087" lon="13.5680782"><ele>949.0</ele><time>2026-04-18T09:16:07.875Z</time></trkpt><trkpt lat="42.7426066" lon="13.5678885"><ele>949.0</ele><time>2026-04-18T09:16:08.876Z</time></trkpt><trkpt lat="42.7425964" lon="13.5677104"><ele>949.0</ele><time>2026-04-18T09:16:09.876Z</time></trkpt><trkpt lat="42.7425865" lon="13.5675377"><ele>949.0</ele><time>2026-04-18T09:16:10.876Z</time></trkpt><trkpt lat="42.742591" lon="13.5673722"><ele>949.75</ele><time>2026-04-18T09:16:11.875Z</time></trkpt><trkpt lat="42.7426192" lon="13.5672162"><ele>950.5</ele><time>2026-04-18T09:16:12.876Z</time></trkpt><trkpt lat="42.7426657" lon="13.5670691"><ele>951.25</ele><time>2026-04-18T09:16:13.876Z</time></trkpt><trkpt lat="42.7427325" lon="13.5669239"><ele>952.0</ele><time>2026-04-18T09:16:14.875Z</time></trkpt><trkpt lat="42.7428158" lon="13.5667821"><ele>960.0</ele><time>2026-04-18T09:16:15.876Z</time></trkpt><trkpt lat="42.7429146" lon="13.56665"><ele>968.0</ele><time>2026-04-18T09:16:16.876Z</time></trkpt><trkpt lat="42.7430265" lon="13.5665304"><ele>976.0</ele><time>2026-04-18T09:16:17.876Z</time></trkpt><trkpt lat="42.7431424" lon="13.5664226"><ele>984.0</ele><time>2026-04-18T09:16:18.876Z</time></trkpt><trkpt lat="42.7432344" lon="13.566322"><ele>984.0</ele><time>2026-04-18T09:16:19.876Z</time></trkpt><trkpt lat="42.7433178" lon="13.5662112"><ele>984.0</ele><time>2026-04-18T09:16:20.876Z</time></trkpt><trkpt lat="42.7434232" lon="13.5661036"><ele>984.0</ele><time>2026-04-18T09:16:21.876Z</time></trkpt><trkpt lat="42.7435393" lon="13.5660282"><ele>984.0</ele><time>2026-04-18T09:16:22.875Z</time></trkpt><trkpt lat="42.7436648" lon="13.5659692"><ele>986.2</ele><time>2026-04-18T09:16:23.875Z</time></trkpt><trkpt lat="42.7437815" lon="13.5659246"><ele>988.4000000000001</ele><time>2026-04-18T09:16:24.876Z</time></trkpt><trkpt lat="42.7438822" lon="13.5658892"><ele>990.6</ele><time>2026-04-18T09:16:25.876Z</time></trkpt><trkpt lat="42.7439703" lon="13.5658562"><ele>992.8</ele><time>2026-04-18T09:16:26.876Z</time></trkpt><trkpt lat="42.7440434" lon="13.5658043"><ele>995.0</ele><time>2026-04-18T09:16:27.876Z</time></trkpt><trkpt lat="42.7441023" lon="13.5657364"><ele>995.0</ele><time>2026-04-18T09:16:28.876Z</time></trkpt><trkpt lat="42.7441367" lon="13.5656521"><ele>995.0</ele><time>2026-04-18T09:16:29.876Z</time></trkpt><trkpt lat="42.7441445" lon="13.5655547"><ele>995.0</ele><time>2026-04-18T09:16:30.876Z</time></trkpt><trkpt lat="42.744142" lon="13.5654283"><ele>995.0</ele><time>2026-04-18T09:16:31.876Z</time></trkpt><trkpt lat="42.7441346" lon="13.5652659"><ele>995.0</ele><time>2026-04-18T09:16:32.876Z</time></trkpt><trkpt lat="42.7441264" lon="13.565103"><ele>996.0</ele><time>2026-04-18T09:16:33.876Z</time></trkpt><trkpt lat="42.7441017" lon="13.5649464"><ele>997.0</ele><time>2026-04-18T09:16:34.876Z</time></trkpt><trkpt lat="42.7440433" lon="13.5648446"><ele>998.0</ele><time>2026-04-18T09:16:35.876Z</time></trkpt><trkpt lat="42.7439862" lon="13.5647467"><ele>999.0</ele><time>2026-04-18T09:16:36.876Z</time></trkpt><trkpt lat="42.7439083" lon="13.5646491"><ele>1000.0</ele><time>2026-04-18T09:16:37.876Z</time></trkpt><trkpt lat="42.7438086" lon="13.564545"><ele>1001.25</ele><time>2026-04-18T09:16:38.876Z</time></trkpt><trkpt lat="42.7436943" lon="13.56443"><ele>1002.5</ele><time>2026-04-18T09:16:39.875Z</time></trkpt><trkpt lat="42.7435746" lon="13.5643125"><ele>1003.75</ele><time>2026-04-18T09:16:40.876Z</time></trkpt><trkpt lat="42.7434536" lon="13.5642046"><ele>1005.0</ele><time>2026-04-18T09:16:41.876Z</time></trkpt><trkpt lat="42.7433271" lon="13.5641036"><ele>1005.0</ele><time>2026-04-18T09:16:42.876Z</time></trkpt><trkpt lat="42.7431997" lon="13.564016"><ele>1005.0</ele><time>2026-04-18T09:16:43.876Z</time></trkpt><trkpt lat="42.7430693" lon="13.5639288"><ele>1005.0</ele><time>2026-04-18T09:16:44.876Z</time></trkpt><trkpt lat="42.7429395" lon="13.5638415"><ele>1005.0</ele><time>2026-04-18T09:16:45.876Z</time></trkpt><trkpt lat="42.7428101" lon="13.5637608"><ele>1012.25</ele><time>2026-04-18T09:16:46.876Z</time></trkpt><trkpt lat="42.7426852" lon="13.5636854"><ele>1019.5</ele><time>2026-04-18T09:16:47.876Z</time></trkpt><trkpt lat="42.7425663" lon="13.5636506"><ele>1026.75</ele><time>2026-04-18T09:16:48.876Z</time></trkpt><trkpt lat="42.7424449" lon="13.5636186"><ele>1034.0</ele><time>2026-04-18T09:16:49.876Z</time></trkpt><trkpt lat="42.7422877" lon="13.5636821"><ele>1027.0</ele><time>2026-04-18T09:16:50.875Z</time></trkpt><trkpt lat="42.7421364" lon="13.5637191"><ele>1020.0</ele><time>2026-04-18T09:16:51.876Z</time></trkpt><trkpt lat="42.74199" lon="13.563768"><ele>1013.0</ele><time>2026-04-18T09:16:52.876Z</time></trkpt><trkpt lat="42.7418449" lon="13.5638271"><ele>1013.0</ele><time>2026-04-18T09:16:53.876Z</time></trkpt><trkpt lat="42.7417159" lon="13.5638909"><ele>1013.0</ele><time>2026-04-18T09:16:54.876Z</time></trkpt><trkpt lat="42.7416018" lon="13.5639738"><ele>1013.0</ele><time>2026-04-18T09:16:55.876Z</time></trkpt><trkpt lat="42.7414991" lon="13.5640719"><ele>1013.0</ele><time>2026-04-18T09:16:56.876Z</time></trkpt><trkpt lat="42.7414084" lon="13.5641934"><ele>1013.0</ele><time>2026-04-18T09:16:57.876Z</time></trkpt><trkpt lat="42.7413241" lon="13.5642997"><ele>1013.0</ele><time>2026-04-18T09:16:58.876Z</time></trkpt><trkpt lat="42.7412478" lon="13.5643969"><ele>1013.0</ele><time>2026-04-18T09:16:59.876Z</time></trkpt><trkpt lat="42.7411699" lon="13.5644324"><ele>1013.0</ele><time>2026-04-18T09:17:00.876Z</time></trkpt><trkpt lat="42.7410938" lon="13.5644433"><ele>1013.0</ele><time>2026-04-18T09:17:01.876Z</time></trkpt><trkpt lat="42.7410072" lon="13.5643309"><ele>1013.0</ele><time>2026-04-18T09:17:03.876Z</time></trkpt><trkpt lat="42.7410393" lon="13.5641612"><ele>1013.0</ele><time>2026-04-18T09:17:05.876Z</time></trkpt><trkpt lat="42.7410934" lon="13.5640432"><ele>1013.0</ele><time>2026-04-18T09:17:06.876Z</time></trkpt><trkpt lat="42.7411415" lon="13.5639102"><ele>1013.0</ele><time>2026-04-18T09:17:07.876Z</time></trkpt><trkpt lat="42.7411645" lon="13.5637749"><ele>1013.0</ele><time>2026-04-18T09:17:08.876Z</time></trkpt><trkpt lat="42.7411631" lon="13.5636397"><ele>1017.0</ele><time>2026-04-18T09:17:09.876Z</time></trkpt><trkpt lat="42.7411382" lon="13.5635308"><ele>1021.0</ele><time>2026-04-18T09:17:10.876Z</time></trkpt><trkpt lat="42.7410918" lon="13.5634411"><ele>1025.0</ele><time>2026-04-18T09:17:11.876Z</time></trkpt><trkpt lat="42.7410217" lon="13.5633597"><ele>1029.0</ele><time>2026-04-18T09:17:12.876Z</time></trkpt><trkpt lat="42.7409158" lon="13.5632841"><ele>1033.0</ele><time>2026-04-18T09:17:13.876Z</time></trkpt><trkpt lat="42.7407936" lon="13.5632065"><ele>1033.0</ele><time>2026-04-18T09:17:14.876Z</time></trkpt><trkpt lat="42.7406726" lon="13.5631253"><ele>1033.0</ele><time>2026-04-18T09:17:15.876Z</time></trkpt><trkpt lat="42.7405671" lon="13.5630228"><ele>1033.0</ele><time>2026-04-18T09:17:16.875Z</time></trkpt><trkpt lat="42.7404939" lon="13.5629129"><ele>1033.0</ele><time>2026-04-18T09:17:17.876Z</time></trkpt><trkpt lat="42.740453" lon="13.5628118"><ele>1037.2</ele><time>2026-04-18T09:17:18.876Z</time></trkpt><trkpt lat="42.7404479" lon="13.5627197"><ele>1041.4</ele><time>2026-04-18T09:17:19.876Z</time></trkpt><trkpt lat="42.7404781" lon="13.5626294"><ele>1045.6000000000001</ele><time>2026-04-18T09:17:20.875Z</time></trkpt><trkpt lat="42.7405304" lon="13.5625071"><ele>1049.8</ele><time>2026-04-18T09:17:21.876Z</time></trkpt><trkpt lat="42.7405772" lon="13.5623352"><ele>1054.0</ele><time>2026-04-18T09:17:22.875Z</time></trkpt><trkpt lat="42.740597" lon="13.5621482"><ele>1057.5</ele><time>2026-04-18T09:17:23.876Z</time></trkpt><trkpt lat="42.7405877" lon="13.5619756"><ele>1061.0</ele><time>2026-04-18T09:17:24.876Z</time></trkpt><trkpt lat="42.7405492" lon="13.5618137"><ele>1064.5</ele><time>2026-04-18T09:17:25.876Z</time></trkpt><trkpt lat="42.7404779" lon="13.5616515"><ele>1068.0</ele><time>2026-04-18T09:17:26.876Z</time></trkpt><trkpt lat="42.7403853" lon="13.5614986"><ele>1068.0</ele><time>2026-04-18T09:17:27.876Z</time></trkpt><trkpt lat="42.7402771" lon="13.5613645"><ele>1068.0</ele><time>2026-04-18T09:17:28.876Z</time></trkpt><trkpt lat="42.7401697" lon="13.5612657"><ele>1068.0</ele><time>2026-04-18T09:17:29.876Z</time></trkpt><trkpt lat="42.7400447" lon="13.5611922"><ele>1068.0</ele><time>2026-04-18T09:17:30.875Z</time></trkpt><trkpt lat="42.7398923" lon="13.5611385"><ele>1068.0</ele><time>2026-04-18T09:17:31.876Z</time></trkpt><trkpt lat="42.739735" lon="13.5610907"><ele>1068.0</ele><time>2026-04-18T09:17:32.876Z</time></trkpt><trkpt lat="42.7395768" lon="13.5610529"><ele>1068.0</ele><time>2026-04-18T09:17:33.876Z</time></trkpt><trkpt lat="42.7394168" lon="13.561044"><ele>1067.6666666666667</ele><time>2026-04-18T09:17:34.876Z</time></trkpt><trkpt lat="42.7392562" lon="13.5610644"><ele>1067.3333333333335</ele><time>2026-04-18T09:17:35.876Z</time></trkpt><trkpt lat="42.7390954" lon="13.5611151"><ele>1067.0</ele><time>2026-04-18T09:17:36.876Z</time></trkpt><trkpt lat="42.7389367" lon="13.5611633"><ele>1060.75</ele><time>2026-04-18T09:17:37.876Z</time></trkpt><trkpt lat="42.7387825" lon="13.5612101"><ele>1054.5</ele><time>2026-04-18T09:17:38.876Z</time></trkpt><trkpt lat="42.7386432" lon="13.5612622"><ele>1048.25</ele><time>2026-04-18T09:17:39.876Z</time></trkpt><trkpt lat="42.7385192" lon="13.5613161"><ele>1042.0</ele><time>2026-04-18T09:17:40.875Z</time></trkpt><trkpt lat="42.7384077" lon="13.5613686"><ele>1042.0</ele><time>2026-04-18T09:17:41.875Z</time></trkpt><trkpt lat="42.7383063" lon="13.5614184"><ele>1042.0</ele><time>2026-04-18T09:17:42.876Z</time></trkpt><trkpt lat="42.7382144" lon="13.5614331"><ele>1042.0</ele><time>2026-04-18T09:17:43.876Z</time></trkpt><trkpt lat="42.7381301" lon="13.561422"><ele>1042.0</ele><time>2026-04-18T09:17:44.876Z</time></trkpt><trkpt lat="42.7380554" lon="13.5613718"><ele>1042.0</ele><time>2026-04-18T09:17:45.875Z</time></trkpt><trkpt lat="42.7379982" lon="13.5612917"><ele>1042.8</ele><time>2026-04-18T09:17:46.876Z</time></trkpt><trkpt lat="42.737944" lon="13.5611806"><ele>1043.6</ele><time>2026-04-18T09:17:47.876Z</time></trkpt><trkpt lat="42.7378839" lon="13.5610741"><ele>1044.3999999999999</ele><time>2026-04-18T09:17:48.875Z</time></trkpt><trkpt lat="42.7378115" lon="13.5609664"><ele>1045.2</ele><time>2026-04-18T09:17:49.876Z</time></trkpt><trkpt lat="42.7377289" lon="13.5608723"><ele>1046.0</ele><time>2026-04-18T09:17:50.876Z</time></trkpt><trkpt lat="42.7376457" lon="13.560782"><ele>1046.0</ele><time>2026-04-18T09:17:51.875Z</time></trkpt><trkpt lat="42.7375969" lon="13.5606801"><ele>1046.0</ele><time>2026-04-18T09:17:52.876Z</time></trkpt><trkpt lat="42.7375631" lon="13.5605735"><ele>1046.0</ele><time>2026-04-18T09:17:53.876Z</time></trkpt><trkpt lat="42.7375576" lon="13.5604536"><ele>1046.0</ele><time>2026-04-18T09:17:54.876Z</time></trkpt><trkpt lat="42.7375722" lon="13.5603247"><ele>1046.0</ele><time>2026-04-18T09:17:55.876Z</time></trkpt><trkpt lat="42.7375799" lon="13.5601908"><ele>1049.8333333333335</ele><time>2026-04-18T09:17:56.876Z</time></trkpt><trkpt lat="42.7375679" lon="13.5600626"><ele>1053.6666666666667</ele><time>2026-04-18T09:17:57.876Z</time></trkpt><trkpt lat="42.7375425" lon="13.5599529"><ele>1057.5</ele><time>2026-04-18T09:17:58.876Z</time></trkpt><trkpt lat="42.7375058" lon="13.5598409"><ele>1061.3333333333333</ele><time>2026-04-18T09:17:59.876Z</time></trkpt><trkpt lat="42.7374523" lon="13.5597398"><ele>1065.1666666666665</ele><time>2026-04-18T09:18:00.876Z</time></trkpt><trkpt lat="42.7373959" lon="13.5596571"><ele>1069.0</ele><time>2026-04-18T09:18:01.875Z</time></trkpt><trkpt lat="42.7373346" lon="13.5595915"><ele>1069.0</ele><time>2026-04-18T09:18:02.876Z</time></trkpt><trkpt lat="42.7372689" lon="13.5595479"><ele>1069.0</ele><time>2026-04-18T09:18:03.875Z</time></trkpt><trkpt lat="42.7372078" lon="13.5595127"><ele>1069.0</ele><time>2026-04-18T09:18:04.875Z</time></trkpt><trkpt lat="42.7371146" lon="13.5594671"><ele>1069.0</ele><time>2026-04-18T09:18:06.876Z</time></trkpt><trkpt lat="42.7370344" lon="13.5594391"><ele>1069.0</ele><time>2026-04-18T09:18:08.876Z</time></trkpt><trkpt lat="42.7369513" lon="13.5594116"><ele>1069.0</ele><time>2026-04-18T09:18:10.876Z</time></trkpt><trkpt lat="42.7368657" lon="13.5593153"><ele>1066.5714285714287</ele><time>2026-04-18T09:18:12.876Z</time></trkpt><trkpt lat="42.7368319" lon="13.559241"><ele>1064.1428571428573</ele><time>2026-04-18T09:18:13.876Z</time></trkpt><trkpt lat="42.7368117" lon="13.5591566"><ele>1061.7142857142858</ele><time>2026-04-18T09:18:14.876Z</time></trkpt><trkpt lat="42.7368055" lon="13.5590688"><ele>1059.2857142857142</ele><time>2026-04-18T09:18:15.876Z</time></trkpt><trkpt lat="42.736805" lon="13.5589783"><ele>1056.8571428571427</ele><time>2026-04-18T09:18:16.876Z</time></trkpt><trkpt lat="42.7368057" lon="13.5588907"><ele>1054.4285714285713</ele><time>2026-04-18T09:18:17.876Z</time></trkpt><trkpt lat="42.7368036" lon="13.558804"><ele>1052.0</ele><time>2026-04-18T09:18:18.876Z</time></trkpt><trkpt lat="42.7367971" lon="13.5586391"><ele>1052.0</ele><time>2026-04-18T09:18:20.876Z</time></trkpt><trkpt lat="42.7367668" lon="13.5584939"><ele>1052.0</ele><time>2026-04-18T09:18:22.876Z</time></trkpt><trkpt lat="42.7367181" lon="13.5583578"><ele>1052.0</ele><time>2026-04-18T09:18:24.875Z</time></trkpt><trkpt lat="42.7366547" lon="13.5582446"><ele>1052.0</ele><time>2026-04-18T09:18:26.876Z</time></trkpt><trkpt lat="42.736585" lon="13.5581386"><ele>1052.0</ele><time>2026-04-18T09:18:28.876Z</time></trkpt><trkpt lat="42.7365162" lon="13.558026"><ele>1052.0</ele><time>2026-04-18T09:18:30.875Z</time></trkpt><trkpt lat="42.7364441" lon="13.5579197"><ele>1052.0</ele><time>2026-04-18T09:18:32.875Z</time></trkpt><trkpt lat="42.7363777" lon="13.5578243"><ele>1052.0</ele><time>2026-04-18T09:18:34.876Z</time></trkpt><trkpt lat="42.7362987" lon="13.5577433"><ele>1052.0</ele><time>2026-04-18T09:18:36.876Z</time></trkpt><trkpt lat="42.7362141" lon="13.5576978"><ele>1052.0</ele><time>2026-04-18T09:18:38.876Z</time></trkpt><trkpt lat="42.7361461" lon="13.5577081"><ele>1054.0</ele><time>2026-04-18T09:18:40.876Z</time></trkpt><trkpt lat="42.7360847" lon="13.557773"><ele>1056.0</ele><time>2026-04-18T09:18:42.876Z</time></trkpt><trkpt lat="42.7360293" lon="13.5578649"><ele>1058.0</ele><time>2026-04-18T09:18:44.876Z</time></trkpt><trkpt lat="42.7359559" lon="13.5579488"><ele>1060.0</ele><time>2026-04-18T09:18:46.876Z</time></trkpt><trkpt lat="42.7358631" lon="13.558014"><ele>1062.0</ele><time>2026-04-18T09:18:48.876Z</time></trkpt><trkpt lat="42.7357562" lon="13.5580546"><ele>1054.8</ele><time>2026-04-18T09:18:50.875Z</time></trkpt><trkpt lat="42.7356916" lon="13.5580632"><ele>1047.6</ele><time>2026-04-18T09:18:51.876Z</time></trkpt><trkpt lat="42.7356055" lon="13.5580499"><ele>1040.3999999999999</ele><time>2026-04-18T09:18:52.875Z</time></trkpt><trkpt lat="42.7355054" lon="13.5580092"><ele>1033.2</ele><time>2026-04-18T09:18:53.876Z</time></trkpt><trkpt lat="42.7353973" lon="13.557963"><ele>1026.0</ele><time>2026-04-18T09:18:54.876Z</time></trkpt><trkpt lat="42.7352809" lon="13.5579069"><ele>1031.25</ele><time>2026-04-18T09:18:55.876Z</time></trkpt><trkpt lat="42.7351466" lon="13.5578344"><ele>1036.5</ele><time>2026-04-18T09:18:56.875Z</time></trkpt><trkpt lat="42.7350113" lon="13.5577446"><ele>1041.75</ele><time>2026-04-18T09:18:57.876Z</time></trkpt><trkpt lat="42.7348979" lon="13.5576446"><ele>1047.0</ele><time>2026-04-18T09:18:58.875Z</time></trkpt><trkpt lat="42.734788" lon="13.557533"><ele>1047.0</ele><time>2026-04-18T09:18:59.876Z</time></trkpt><trkpt lat="42.7346681" lon="13.5574197"><ele>1047.0</ele><time>2026-04-18T09:19:00.876Z</time></trkpt><trkpt lat="42.7345427" lon="13.5573321"><ele>1047.0</ele><time>2026-04-18T09:19:01.875Z</time></trkpt><trkpt lat="42.7344157" lon="13.557261"><ele>1047.0</ele><time>2026-04-18T09:19:02.876Z</time></trkpt><trkpt lat="42.7342924" lon="13.5571903"><ele>1048.0</ele><time>2026-04-18T09:19:03.876Z</time></trkpt><trkpt lat="42.7341726" lon="13.557115"><ele>1049.0</ele><time>2026-04-18T09:19:04.875Z</time></trkpt><trkpt lat="42.7340591" lon="13.5570398"><ele>1050.0</ele><time>2026-04-18T09:19:05.876Z</time></trkpt><trkpt lat="42.7339552" lon="13.5569707"><ele>1051.0</ele><time>2026-04-18T09:19:06.876Z</time></trkpt><trkpt lat="42.7338466" lon="13.5569127"><ele>1051.0</ele><time>2026-04-18T09:19:07.876Z</time></trkpt><trkpt lat="42.7337327" lon="13.5568708"><ele>1051.0</ele><time>2026-04-18T09:19:08.876Z</time></trkpt><trkpt lat="42.7336152" lon="13.5568447"><ele>1051.0</ele><time>2026-04-18T09:19:09.876Z</time></trkpt><trkpt lat="42.7334917" lon="13.5568291"><ele>1051.0</ele><time>2026-04-18T09:19:10.876Z</time></trkpt><trkpt lat="42.7333743" lon="13.5568219"><ele>1045.5</ele><time>2026-04-18T09:19:11.876Z</time></trkpt><trkpt lat="42.733234" lon="13.5567928"><ele>1040.0</ele><time>2026-04-18T09:19:12.876Z</time></trkpt><trkpt lat="42.7330948" lon="13.5567539"><ele>1034.5</ele><time>2026-04-18T09:19:13.876Z</time></trkpt><trkpt lat="42.7329581" lon="13.5567096"><ele>1029.0</ele><time>2026-04-18T09:19:14.875Z</time></trkpt><trkpt lat="42.7328384" lon="13.5566725"><ele>1029.0</ele><time>2026-04-18T09:19:15.876Z</time></trkpt><trkpt lat="42.7327432" lon="13.556654"><ele>1029.0</ele><time>2026-04-18T09:19:16.876Z</time></trkpt><trkpt lat="42.7326599" lon="13.5566644"><ele>1029.0</ele><time>2026-04-18T09:19:17.876Z</time></trkpt><trkpt lat="42.7325711" lon="13.5566995"><ele>1029.0</ele><time>2026-04-18T09:19:18.876Z</time></trkpt><trkpt lat="42.7324877" lon="13.556744"><ele>1029.0</ele><time>2026-04-18T09:19:19.876Z</time></trkpt><trkpt lat="42.7324146" lon="13.5567934"><ele>1029.0</ele><time>2026-04-18T09:19:20.876Z</time></trkpt><trkpt lat="42.7323527" lon="13.5568515"><ele>1027.0</ele><time>2026-04-18T09:19:21.876Z</time></trkpt><trkpt lat="42.7323234" lon="13.5570006"><ele>1025.0</ele><time>2026-04-18T09:19:23.876Z</time></trkpt><trkpt lat="42.7323576" lon="13.5570929"><ele>1023.0</ele><time>2026-04-18T09:19:24.875Z</time></trkpt><trkpt lat="42.7324009" lon="13.557173"><ele>1021.0</ele><time>2026-04-18T09:19:25.876Z</time></trkpt><trkpt lat="42.7324534" lon="13.5572367"><ele>1019.0</ele><time>2026-04-18T09:19:26.876Z</time></trkpt><trkpt lat="42.7325369" lon="13.5573029"><ele>1017.0</ele><time>2026-04-18T09:19:27.876Z</time></trkpt><trkpt lat="42.7326483" lon="13.5573839"><ele>1014.4000000000001</ele><time>2026-04-18T09:19:28.876Z</time></trkpt><trkpt lat="42.7327451" lon="13.5574659"><ele>1011.8000000000001</ele><time>2026-04-18T09:19:29.876Z</time></trkpt><trkpt lat="42.7328094" lon="13.5575509"><ele>1009.2</ele><time>2026-04-18T09:19:30.876Z</time></trkpt><trkpt lat="42.7328621" lon="13.5576548"><ele>1006.6</ele><time>2026-04-18T09:19:31.876Z</time></trkpt><trkpt lat="42.7328995" lon="13.5577841"><ele>1004.0</ele><time>2026-04-18T09:19:32.876Z</time></trkpt><trkpt lat="42.7329187" lon="13.5579311"><ele>1004.0</ele><time>2026-04-18T09:19:33.876Z</time></trkpt><trkpt lat="42.7329382" lon="13.5581004"><ele>1004.0</ele><time>2026-04-18T09:19:34.876Z</time></trkpt><trkpt lat="42.7329851" lon="13.5582821"><ele>1004.0</ele><time>2026-04-18T09:19:35.876Z</time></trkpt><trkpt lat="42.7330624" lon="13.558454"><ele>1004.0</ele><time>2026-04-18T09:19:36.875Z</time></trkpt><trkpt lat="42.7331635" lon="13.5586198"><ele>1008.75</ele><time>2026-04-18T09:19:37.875Z</time></trkpt><trkpt lat="42.7332707" lon="13.5587714"><ele>1013.5</ele><time>2026-04-18T09:19:38.875Z</time></trkpt><trkpt lat="42.7333616" lon="13.5589171"><ele>1018.25</ele><time>2026-04-18T09:19:39.876Z</time></trkpt><trkpt lat="42.7334282" lon="13.5590797"><ele>1023.0</ele><time>2026-04-18T09:19:40.876Z</time></trkpt><trkpt lat="42.7334772" lon="13.5592579"><ele>1023.0</ele><time>2026-04-18T09:19:41.875Z</time></trkpt><trkpt lat="42.7335246" lon="13.559431"><ele>1023.0</ele><time>2026-04-18T09:19:42.876Z</time></trkpt><trkpt lat="42.7335707" lon="13.5595907"><ele>1023.0</ele><time>2026-04-18T09:19:43.876Z</time></trkpt><trkpt lat="42.733607" lon="13.5597311"><ele>1023.0</ele><time>2026-04-18T09:19:44.876Z</time></trkpt><trkpt lat="42.7336308" lon="13.5598536"><ele>1022.2</ele><time>2026-04-18T09:19:45.875Z</time></trkpt><trkpt lat="42.7336462" lon="13.559971"><ele>1021.4</ele><time>2026-04-18T09:19:46.875Z</time></trkpt><trkpt lat="42.7336463" lon="13.5600909"><ele>1020.6000000000001</ele><time>2026-04-18T09:19:47.876Z</time></trkpt><trkpt lat="42.7336302" lon="13.560212"><ele>1019.8000000000001</ele><time>2026-04-18T09:19:48.876Z</time></trkpt><trkpt lat="42.733602" lon="13.5603311"><ele>1019.0</ele><time>2026-04-18T09:19:49.876Z</time></trkpt><trkpt lat="42.7335682" lon="13.5604564"><ele>1019.0</ele><time>2026-04-18T09:19:50.876Z</time></trkpt><trkpt lat="42.733549" lon="13.5605908"><ele>1019.0000000000001</ele><time>2026-04-18T09:19:51.876Z</time></trkpt><trkpt lat="42.7335441" lon="13.5607363"><ele>1019.0000000000001</ele><time>2026-04-18T09:19:52.875Z</time></trkpt><trkpt lat="42.7335542" lon="13.5608846"><ele>1019.0</ele><time>2026-04-18T09:19:53.876Z</time></trkpt><trkpt lat="42.7335847" lon="13.5610228"><ele>1019.0</ele><time>2026-04-18T09:19:54.876Z</time></trkpt><trkpt lat="42.733627" lon="13.5611608"><ele>1021.75</ele><time>2026-04-18T09:19:55.876Z</time></trkpt><trkpt lat="42.7336786" lon="13.5612946"><ele>1024.5</ele><time>2026-04-18T09:19:56.876Z</time></trkpt><trkpt lat="42.7337446" lon="13.5614199"><ele>1027.25</ele><time>2026-04-18T09:19:57.876Z</time></trkpt><trkpt lat="42.7338303" lon="13.5615273"><ele>1030.0</ele><time>2026-04-18T09:19:58.876Z</time></trkpt><trkpt lat="42.7339326" lon="13.5616182"><ele>1030.0</ele><time>2026-04-18T09:19:59.876Z</time></trkpt><trkpt lat="42.7340469" lon="13.561704"><ele>1030.0</ele><time>2026-04-18T09:20:00.876Z</time></trkpt><trkpt lat="42.7341604" lon="13.5617978"><ele>1030.0</ele><time>2026-04-18T09:20:01.876Z</time></trkpt><trkpt lat="42.7342695" lon="13.5619079"><ele>1030.0</ele><time>2026-04-18T09:20:02.876Z</time></trkpt><trkpt lat="42.7343726" lon="13.5620377"><ele>1025.5</ele><time>2026-04-18T09:20:03.876Z</time></trkpt><trkpt lat="42.7344686" lon="13.5621752"><ele>1021.0</ele><time>2026-04-18T09:20:04.876Z</time></trkpt><trkpt lat="42.7345541" lon="13.5623046"><ele>1016.5</ele><time>2026-04-18T09:20:05.876Z</time></trkpt><trkpt lat="42.7346191" lon="13.5624264"><ele>1012.0</ele><time>2026-04-18T09:20:06.876Z</time></trkpt><trkpt lat="42.7346616" lon="13.5625494"><ele>1012.0</ele><time>2026-04-18T09:20:07.876Z</time></trkpt><trkpt lat="42.7346831" lon="13.5626697"><ele>1012.0</ele><time>2026-04-18T09:20:08.876Z</time></trkpt><trkpt lat="42.734689" lon="13.5627978"><ele>1012.0</ele><time>2026-04-18T09:20:09.876Z</time></trkpt><trkpt lat="42.7346876" lon="13.5629413"><ele>1012.0</ele><time>2026-04-18T09:20:10.876Z</time></trkpt><trkpt lat="42.734693" lon="13.5630897"><ele>1012.0</ele><time>2026-04-18T09:20:11.876Z</time></trkpt><trkpt lat="42.7347137" lon="13.5632422"><ele>1013.6</ele><time>2026-04-18T09:20:12.876Z</time></trkpt><trkpt lat="42.7347402" lon="13.5633972"><ele>1015.2</ele><time>2026-04-18T09:20:13.876Z</time></trkpt><trkpt lat="42.7347632" lon="13.5635353"><ele>1016.8</ele><time>2026-04-18T09:20:14.876Z</time></trkpt><trkpt lat="42.7347779" lon="13.5636612"><ele>1018.4</ele><time>2026-04-18T09:20:15.876Z</time></trkpt><trkpt lat="42.7347806" lon="13.5637864"><ele>1020.0</ele><time>2026-04-18T09:20:16.876Z</time></trkpt><trkpt lat="42.734767" lon="13.5639026"><ele>1021.0</ele><time>2026-04-18T09:20:17.876Z</time></trkpt><trkpt lat="42.734732" lon="13.5640045"><ele>1022.0</ele><time>2026-04-18T09:20:18.876Z</time></trkpt><trkpt lat="42.7346737" lon="13.5640936"><ele>1023.0</ele><time>2026-04-18T09:20:19.876Z</time></trkpt><trkpt lat="42.7346234" lon="13.5641887"><ele>1024.0</ele><time>2026-04-18T09:20:20.876Z</time></trkpt><trkpt lat="42.734591" lon="13.5642931"><ele>1025.0</ele><time>2026-04-18T09:20:21.876Z</time></trkpt><trkpt lat="42.734578" lon="13.5643869"><ele>1026.0</ele><time>2026-04-18T09:20:22.876Z</time></trkpt><trkpt lat="42.7346205" lon="13.5645297"><ele>1028.0</ele><time>2026-04-18T09:20:24.876Z</time></trkpt><trkpt lat="42.734675" lon="13.5645935"><ele>1030.0</ele><time>2026-04-18T09:20:25.875Z</time></trkpt><trkpt lat="42.7347352" lon="13.5646607"><ele>1032.0</ele><time>2026-04-18T09:20:26.876Z</time></trkpt><trkpt lat="42.7347927" lon="13.5647496"><ele>1034.0</ele><time>2026-04-18T09:20:27.876Z</time></trkpt><trkpt lat="42.7348343" lon="13.564859"><ele>1036.0</ele><time>2026-04-18T09:20:28.876Z</time></trkpt><trkpt lat="42.7348561" lon="13.5649736"><ele>1038.0</ele><time>2026-04-18T09:20:29.876Z</time></trkpt><trkpt lat="42.7348574" lon="13.5650937"><ele>1038.0</ele><time>2026-04-18T09:20:30.876Z</time></trkpt><trkpt lat="42.7348476" lon="13.5652116"><ele>1038.0</ele><time>2026-04-18T09:20:31.876Z</time></trkpt><trkpt lat="42.7348339" lon="13.5653299"><ele>1038.0</ele><time>2026-04-18T09:20:32.876Z</time></trkpt><trkpt lat="42.7348267" lon="13.5654558"><ele>1038.0</ele><time>2026-04-18T09:20:33.875Z</time></trkpt><trkpt lat="42.7348243" lon="13.5655882"><ele>1038.0</ele><time>2026-04-18T09:20:34.876Z</time></trkpt><trkpt lat="42.7348291" lon="13.5657316"><ele>1040.0</ele><time>2026-04-18T09:20:35.876Z</time></trkpt><trkpt lat="42.7348482" lon="13.5658951"><ele>1042.0</ele><time>2026-04-18T09:20:36.876Z</time></trkpt><trkpt lat="42.7348735" lon="13.5660764"><ele>1044.0</ele><time>2026-04-18T09:20:37.876Z</time></trkpt><trkpt lat="42.7349008" lon="13.5662639"><ele>1046.0</ele><time>2026-04-18T09:20:38.876Z</time></trkpt><trkpt lat="42.73493" lon="13.5664556"><ele>1047.0</ele><time>2026-04-18T09:20:39.876Z</time></trkpt><trkpt lat="42.7349599" lon="13.5666488"><ele>1048.0</ele><time>2026-04-18T09:20:40.876Z</time></trkpt><trkpt lat="42.7349804" lon="13.5668397"><ele>1049.0</ele><time>2026-04-18T09:20:41.876Z</time></trkpt><trkpt lat="42.7349828" lon="13.5670332"><ele>1050.0</ele><time>2026-04-18T09:20:42.876Z</time></trkpt><trkpt lat="42.7349797" lon="13.5672296"><ele>1050.0</ele><time>2026-04-18T09:20:43.876Z</time></trkpt><trkpt lat="42.7349597" lon="13.5674333"><ele>1050.0</ele><time>2026-04-18T09:20:44.876Z</time></trkpt><trkpt lat="42.7349402" lon="13.5676322"><ele>1050.0</ele><time>2026-04-18T09:20:45.875Z</time></trkpt><trkpt lat="42.7349213" lon="13.5678303"><ele>1050.0</ele><time>2026-04-18T09:20:46.876Z</time></trkpt><trkpt lat="42.7349124" lon="13.5680299"><ele>1050.5</ele><time>2026-04-18T09:20:47.876Z</time></trkpt><trkpt lat="42.7349041" lon="13.5682287"><ele>1051.0</ele><time>2026-04-18T09:20:48.876Z</time></trkpt><trkpt lat="42.7348891" lon="13.568421"><ele>1051.5</ele><time>2026-04-18T09:20:49.875Z</time></trkpt><trkpt lat="42.7348599" lon="13.5685948"><ele>1052.0</ele><time>2026-04-18T09:20:50.876Z</time></trkpt><trkpt lat="42.7348116" lon="13.568755"><ele>1052.0</ele><time>2026-04-18T09:20:51.876Z</time></trkpt><trkpt lat="42.7347457" lon="13.568899"><ele>1052.0</ele><time>2026-04-18T09:20:52.876Z</time></trkpt><trkpt lat="42.734685" lon="13.5690246"><ele>1052.0</ele><time>2026-04-18T09:20:53.876Z</time></trkpt><trkpt lat="42.7346564" lon="13.5691366"><ele>1052.0</ele><time>2026-04-18T09:20:54.876Z</time></trkpt><trkpt lat="42.7346283" lon="13.5692552"><ele>1052.0</ele><time>2026-04-18T09:20:55.876Z</time></trkpt><trkpt lat="42.7346336" lon="13.5693542"><ele>1052.0</ele><time>2026-04-18T09:20:56.876Z</time></trkpt><trkpt lat="42.7347259" lon="13.5694107"><ele>1052.0</ele><time>2026-04-18T09:20:57.876Z</time></trkpt><trkpt lat="42.7347979" lon="13.5694736"><ele>1052.0</ele><time>2026-04-18T09:20:58.876Z</time></trkpt><trkpt lat="42.7348991" lon="13.5695373"><ele>1052.0</ele><time>2026-04-18T09:20:59.875Z</time></trkpt><trkpt lat="42.7350001" lon="13.5696105"><ele>1052.0</ele><time>2026-04-18T09:21:00.875Z</time></trkpt><trkpt lat="42.7350709" lon="13.5697092"><ele>1055.0</ele><time>2026-04-18T09:21:01.876Z</time></trkpt><trkpt lat="42.7351317" lon="13.569833"><ele>1058.0</ele><time>2026-04-18T09:21:02.876Z</time></trkpt><trkpt lat="42.735187" lon="13.5699887"><ele>1061.0</ele><time>2026-04-18T09:21:03.876Z</time></trkpt><trkpt lat="42.7352347" lon="13.5701574"><ele>1064.0</ele><time>2026-04-18T09:21:04.875Z</time></trkpt><trkpt lat="42.7352649" lon="13.5703082"><ele>1065.6000000000001</ele><time>2026-04-18T09:21:05.875Z</time></trkpt><trkpt lat="42.7352641" lon="13.5704467"><ele>1067.2</ele><time>2026-04-18T09:21:06.876Z</time></trkpt><trkpt lat="42.735237" lon="13.5705678"><ele>1068.8000000000002</ele><time>2026-04-18T09:21:07.876Z</time></trkpt><trkpt lat="42.7352011" lon="13.5706651"><ele>1070.4</ele><time>2026-04-18T09:21:08.875Z</time></trkpt><trkpt lat="42.7351557" lon="13.5707658"><ele>1072.0</ele><time>2026-04-18T09:21:09.876Z</time></trkpt><trkpt lat="42.7351099" lon="13.5708781"><ele>1072.0</ele><time>2026-04-18T09:21:10.875Z</time></trkpt><trkpt lat="42.7350684" lon="13.5709972"><ele>1072.0</ele><time>2026-04-18T09:21:11.875Z</time></trkpt><trkpt lat="42.7350435" lon="13.5711077"><ele>1072.0</ele><time>2026-04-18T09:21:12.876Z</time></trkpt><trkpt lat="42.735029" lon="13.5712436"><ele>1072.0</ele><time>2026-04-18T09:21:13.876Z</time></trkpt><trkpt lat="42.7350218" lon="13.5713902"><ele>1072.0</ele><time>2026-04-18T09:21:14.876Z</time></trkpt><trkpt lat="42.735014" lon="13.5715547"><ele>1072.5</ele><time>2026-04-18T09:21:15.876Z</time></trkpt><trkpt lat="42.7350132" lon="13.5717133"><ele>1073.0</ele><time>2026-04-18T09:21:16.876Z</time></trkpt><trkpt lat="42.73502" lon="13.5718643"><ele>1073.5</ele><time>2026-04-18T09:21:17.876Z</time></trkpt><trkpt lat="42.7350434" lon="13.5720474"><ele>1074.0</ele><time>2026-04-18T09:21:18.876Z</time></trkpt><trkpt lat="42.7350679" lon="13.5722025"><ele>1074.5</ele><time>2026-04-18T09:21:19.876Z</time></trkpt><trkpt lat="42.7350697" lon="13.5723413"><ele>1075.0</ele><time>2026-04-18T09:21:20.876Z</time></trkpt><trkpt lat="42.735038" lon="13.5724789"><ele>1075.5</ele><time>2026-04-18T09:21:21.876Z</time></trkpt><trkpt lat="42.7349963" lon="13.5726438"><ele>1076.0</ele><time>2026-04-18T09:21:22.876Z</time></trkpt><trkpt lat="42.734974" lon="13.5728133"><ele>1076.0</ele><time>2026-04-18T09:21:23.876Z</time></trkpt><trkpt lat="42.7349738" lon="13.5729691"><ele>1076.0</ele><time>2026-04-18T09:21:24.876Z</time></trkpt><trkpt lat="42.7349981" lon="13.573118"><ele>1076.0</ele><time>2026-04-18T09:21:25.876Z</time></trkpt><trkpt lat="42.73503" lon="13.5732758"><ele>1076.0</ele><time>2026-04-18T09:21:26.876Z</time></trkpt><trkpt lat="42.7350483" lon="13.5734134"><ele>1076.0</ele><time>2026-04-18T09:21:27.875Z</time></trkpt><trkpt lat="42.7350486" lon="13.5735334"><ele>1076.0</ele><time>2026-04-18T09:21:28.876Z</time></trkpt><trkpt lat="42.7350213" lon="13.5736369"><ele>1076.0</ele><time>2026-04-18T09:21:29.876Z</time></trkpt><trkpt lat="42.7349686" lon="13.5737045"><ele>1076.0</ele><time>2026-04-18T09:21:30.876Z</time></trkpt><trkpt lat="42.7348927" lon="13.573774"><ele>1076.0</ele><time>2026-04-18T09:21:31.876Z</time></trkpt><trkpt lat="42.7347976" lon="13.5738326"><ele>1076.0</ele><time>2026-04-18T09:21:32.876Z</time></trkpt><trkpt lat="42.7346959" lon="13.5738975"><ele>1078.0</ele><time>2026-04-18T09:21:33.876Z</time></trkpt><trkpt lat="42.7345984" lon="13.5739512"><ele>1080.0</ele><time>2026-04-18T09:21:34.876Z</time></trkpt><trkpt lat="42.7345" lon="13.5740106"><ele>1082.0</ele><time>2026-04-18T09:21:35.875Z</time></trkpt><trkpt lat="42.73441" lon="13.5740668"><ele>1084.0</ele><time>2026-04-18T09:21:36.876Z</time></trkpt><trkpt lat="42.7343315" lon="13.5741149"><ele>1086.0</ele><time>2026-04-18T09:21:37.876Z</time></trkpt><trkpt lat="42.7342461" lon="13.5741743"><ele>1086.0</ele><time>2026-04-18T09:21:38.876Z</time></trkpt><trkpt lat="42.7341631" lon="13.5742522"><ele>1086.0</ele><time>2026-04-18T09:21:39.876Z</time></trkpt><trkpt lat="42.7340813" lon="13.5743228"><ele>1086.0</ele><time>2026-04-18T09:21:40.875Z</time></trkpt><trkpt lat="42.7339965" lon="13.5743824"><ele>1086.0</ele><time>2026-04-18T09:21:41.876Z</time></trkpt><trkpt lat="42.7339299" lon="13.5744718"><ele>1086.0</ele><time>2026-04-18T09:21:42.876Z</time></trkpt><trkpt lat="42.73387" lon="13.5745586"><ele>1084.8</ele><time>2026-04-18T09:21:43.876Z</time></trkpt><trkpt lat="42.7338321" lon="13.57466"><ele>1083.6</ele><time>2026-04-18T09:21:44.876Z</time></trkpt><trkpt lat="42.7338152" lon="13.5747855"><ele>1082.4</ele><time>2026-04-18T09:21:45.876Z</time></trkpt><trkpt lat="42.7338006" lon="13.5749073"><ele>1081.2</ele><time>2026-04-18T09:21:46.876Z</time></trkpt><trkpt lat="42.7338175" lon="13.5750284"><ele>1080.0</ele><time>2026-04-18T09:21:47.876Z</time></trkpt><trkpt lat="42.7338134" lon="13.5751537"><ele>1080.0</ele><time>2026-04-18T09:21:48.875Z</time></trkpt><trkpt lat="42.7338101" lon="13.5752728"><ele>1080.0</ele><time>2026-04-18T09:21:49.876Z</time></trkpt><trkpt lat="42.7338239" lon="13.5753911"><ele>1080.0</ele><time>2026-04-18T09:21:50.876Z</time></trkpt><trkpt lat="42.7338399" lon="13.5755089"><ele>1080.0</ele><time>2026-04-18T09:21:51.876Z</time></trkpt><trkpt lat="42.7338508" lon="13.5756285"><ele>1080.0</ele><time>2026-04-18T09:21:52.876Z</time></trkpt><trkpt lat="42.7338598" lon="13.5757563"><ele>1080.0</ele><time>2026-04-18T09:21:53.876Z</time></trkpt><trkpt lat="42.733871" lon="13.57586"><ele>1079.8333333333333</ele><time>2026-04-18T09:21:54.876Z</time></trkpt><trkpt lat="42.7338823" lon="13.5759697"><ele>1079.6666666666667</ele><time>2026-04-18T09:21:55.876Z</time></trkpt><trkpt lat="42.7338929" lon="13.5760725"><ele>1079.5</ele><time>2026-04-18T09:21:56.876Z</time></trkpt><trkpt lat="42.7338976" lon="13.5761629"><ele>1079.3333333333335</ele><time>2026-04-18T09:21:57.875Z</time></trkpt><trkpt lat="42.7339009" lon="13.5763335"><ele>1079.1666666666667</ele><time>2026-04-18T09:21:59.876Z</time></trkpt><trkpt lat="42.7338908" lon="13.5764223"><ele>1079.0</ele><time>2026-04-18T09:22:00.876Z</time></trkpt><trkpt lat="42.7338684" lon="13.5765092"><ele>1079.5714285714287</ele><time>2026-04-18T09:22:01.876Z</time></trkpt><trkpt lat="42.7338351" lon="13.5765974"><ele>1080.142857142857</ele><time>2026-04-18T09:22:02.876Z</time></trkpt><trkpt lat="42.7337862" lon="13.5766778"><ele>1080.7142857142858</ele><time>2026-04-18T09:22:03.876Z</time></trkpt><trkpt lat="42.7337288" lon="13.5767435"><ele>1081.2857142857142</ele><time>2026-04-18T09:22:04.875Z</time></trkpt><trkpt lat="42.7336704" lon="13.5767946"><ele>1081.857142857143</ele><time>2026-04-18T09:22:05.876Z</time></trkpt><trkpt lat="42.7336066" lon="13.5768353"><ele>1082.4285714285716</ele><time>2026-04-18T09:22:06.875Z</time></trkpt><trkpt lat="42.7335416" lon="13.5768521"><ele>1083.0</ele><time>2026-04-18T09:22:07.875Z</time></trkpt><trkpt lat="42.7334743" lon="13.5768432"><ele>1083.6666666666667</ele><time>2026-04-18T09:22:08.876Z</time></trkpt><trkpt lat="42.7334039" lon="13.5768189"><ele>1084.3333333333333</ele><time>2026-04-18T09:22:09.876Z</time></trkpt><trkpt lat="42.7333367" lon="13.576777"><ele>1085.0</ele><time>2026-04-18T09:22:10.876Z</time></trkpt><trkpt lat="42.733277" lon="13.5767181"><ele>1085.6666666666665</ele><time>2026-04-18T09:22:11.876Z</time></trkpt><trkpt lat="42.7332306" lon="13.5766543"><ele>1086.3333333333333</ele><time>2026-04-18T09:22:12.875Z</time></trkpt><trkpt lat="42.7331485" lon="13.5765319"><ele>1087.0</ele><time>2026-04-18T09:22:14.875Z</time></trkpt><trkpt lat="42.7331071" lon="13.5764503"><ele>1087.0</ele><time>2026-04-18T09:22:15.876Z</time></trkpt><trkpt lat="42.7330591" lon="13.5763673"><ele>1087.0</ele><time>2026-04-18T09:22:16.876Z</time></trkpt><trkpt lat="42.733001" lon="13.5762742"><ele>1087.0</ele><time>2026-04-18T09:22:17.875Z</time></trkpt><trkpt lat="42.7329371" lon="13.5761836"><ele>1087.0</ele><time>2026-04-18T09:22:18.876Z</time></trkpt><trkpt lat="42.7328669" lon="13.5761003"><ele>1087.0</ele><time>2026-04-18T09:22:19.875Z</time></trkpt><trkpt lat="42.7327946" lon="13.5760303"><ele>1087.0</ele><time>2026-04-18T09:22:20.876Z</time></trkpt><trkpt lat="42.7327206" lon="13.5759743"><ele>1089.4</ele><time>2026-04-18T09:22:21.876Z</time></trkpt><trkpt lat="42.7326425" lon="13.5759332"><ele>1091.8000000000002</ele><time>2026-04-18T09:22:22.876Z</time></trkpt><trkpt lat="42.7325575" lon="13.5759033"><ele>1094.2</ele><time>2026-04-18T09:22:23.875Z</time></trkpt><trkpt lat="42.7324633" lon="13.5758796"><ele>1096.6000000000001</ele><time>2026-04-18T09:22:24.876Z</time></trkpt><trkpt lat="42.7323693" lon="13.575858"><ele>1099.0</ele><time>2026-04-18T09:22:25.876Z</time></trkpt><trkpt lat="42.7322757" lon="13.5758407"><ele>1099.0</ele><time>2026-04-18T09:22:26.876Z</time></trkpt><trkpt lat="42.7321894" lon="13.5758286"><ele>1099.0</ele><time>2026-04-18T09:22:27.876Z</time></trkpt><trkpt lat="42.7321147" lon="13.5758274"><ele>1099.0</ele><time>2026-04-18T09:22:28.876Z</time></trkpt><trkpt lat="42.732046" lon="13.5758408"><ele>1099.0</ele><time>2026-04-18T09:22:29.876Z</time></trkpt><trkpt lat="42.7319784" lon="13.575867"><ele>1099.0</ele><time>2026-04-18T09:22:30.876Z</time></trkpt><trkpt lat="42.731905" lon="13.5759107"><ele>1099.0</ele><time>2026-04-18T09:22:31.876Z</time></trkpt><trkpt lat="42.7318209" lon="13.5759626"><ele>1099.6000000000001</ele><time>2026-04-18T09:22:32.876Z</time></trkpt><trkpt lat="42.7317355" lon="13.5760053"><ele>1100.2</ele><time>2026-04-18T09:22:33.876Z</time></trkpt><trkpt lat="42.7316547" lon="13.5760334"><ele>1100.8000000000002</ele><time>2026-04-18T09:22:34.875Z</time></trkpt><trkpt lat="42.7315708" lon="13.5760445"><ele>1101.4</ele><time>2026-04-18T09:22:35.875Z</time></trkpt><trkpt lat="42.7314772" lon="13.576047"><ele>1102.0</ele><time>2026-04-18T09:22:36.876Z</time></trkpt><trkpt lat="42.7313738" lon="13.5760467"><ele>1102.0</ele><time>2026-04-18T09:22:37.876Z</time></trkpt><trkpt lat="42.7312685" lon="13.5760484"><ele>1102.0</ele><time>2026-04-18T09:22:38.876Z</time></trkpt><trkpt lat="42.7311528" lon="13.5760463"><ele>1102.0</ele><time>2026-04-18T09:22:39.875Z</time></trkpt><trkpt lat="42.7310404" lon="13.5760423"><ele>1102.0</ele><time>2026-04-18T09:22:40.876Z</time></trkpt><trkpt lat="42.7309481" lon="13.5760462"><ele>1102.0</ele><time>2026-04-18T09:22:41.876Z</time></trkpt><trkpt lat="42.7308774" lon="13.5760611"><ele>1101.8333333333333</ele><time>2026-04-18T09:22:42.875Z</time></trkpt><trkpt lat="42.7308163" lon="13.5760965"><ele>1101.6666666666665</ele><time>2026-04-18T09:22:43.875Z</time></trkpt><trkpt lat="42.7307558" lon="13.5761503"><ele>1101.5</ele><time>2026-04-18T09:22:44.875Z</time></trkpt><trkpt lat="42.7306936" lon="13.5762235"><ele>1101.3333333333333</ele><time>2026-04-18T09:22:45.876Z</time></trkpt><trkpt lat="42.7306291" lon="13.5763238"><ele>1101.1666666666667</ele><time>2026-04-18T09:22:46.876Z</time></trkpt><trkpt lat="42.7305639" lon="13.5764364"><ele>1101.0</ele><time>2026-04-18T09:22:47.876Z</time></trkpt><trkpt lat="42.7304978" lon="13.5765474"><ele>1101.0</ele><time>2026-04-18T09:22:48.876Z</time></trkpt><trkpt lat="42.7304252" lon="13.5766561"><ele>1101.0</ele><time>2026-04-18T09:22:49.876Z</time></trkpt><trkpt lat="42.7303539" lon="13.5767608"><ele>1101.0</ele><time>2026-04-18T09:22:50.876Z</time></trkpt><trkpt lat="42.7302864" lon="13.5768558"><ele>1101.0</ele><time>2026-04-18T09:22:51.876Z</time></trkpt><trkpt lat="42.7302267" lon="13.5769463"><ele>1101.0</ele><time>2026-04-18T09:22:52.876Z</time></trkpt><trkpt lat="42.7301828" lon="13.5770382"><ele>1103.857142857143</ele><time>2026-04-18T09:22:53.876Z</time></trkpt><trkpt lat="42.7301533" lon="13.5771274"><ele>1106.7142857142856</ele><time>2026-04-18T09:22:54.875Z</time></trkpt><trkpt lat="42.7301367" lon="13.577217"><ele>1109.5714285714284</ele><time>2026-04-18T09:22:55.876Z</time></trkpt><trkpt lat="42.7301302" lon="13.5773162"><ele>1112.4285714285713</ele><time>2026-04-18T09:22:56.875Z</time></trkpt><trkpt lat="42.7301385" lon="13.577422"><ele>1115.2857142857142</ele><time>2026-04-18T09:22:57.876Z</time></trkpt><trkpt lat="42.7301572" lon="13.5775292"><ele>1118.142857142857</ele><time>2026-04-18T09:22:58.876Z</time></trkpt><trkpt lat="42.7301681" lon="13.5776337"><ele>1121.0</ele><time>2026-04-18T09:22:59.876Z</time></trkpt><trkpt lat="42.7301725" lon="13.5777432"><ele>1121.0</ele><time>2026-04-18T09:23:00.876Z</time></trkpt><trkpt lat="42.7301673" lon="13.5778457"><ele>1121.0</ele><time>2026-04-18T09:23:01.875Z</time></trkpt><trkpt lat="42.7301478" lon="13.5779381"><ele>1121.0</ele><time>2026-04-18T09:23:02.876Z</time></trkpt><trkpt lat="42.7301141" lon="13.5780426"><ele>1121.0</ele><time>2026-04-18T09:23:03.876Z</time></trkpt><trkpt lat="42.7300665" lon="13.5781511"><ele>1121.0</ele><time>2026-04-18T09:23:04.876Z</time></trkpt><trkpt lat="42.7300106" lon="13.5782525"><ele>1121.0</ele><time>2026-04-18T09:23:05.876Z</time></trkpt><trkpt lat="42.7299469" lon="13.5783504"><ele>1119.0</ele><time>2026-04-18T09:23:06.876Z</time></trkpt><trkpt lat="42.7298771" lon="13.5784429"><ele>1117.0</ele><time>2026-04-18T09:23:07.875Z</time></trkpt><trkpt lat="42.7298004" lon="13.5785263"><ele>1115.0</ele><time>2026-04-18T09:23:08.875Z</time></trkpt><trkpt lat="42.7297138" lon="13.5786017"><ele>1113.0</ele><time>2026-04-18T09:23:09.876Z</time></trkpt><trkpt lat="42.7296338" lon="13.5786673"><ele>1111.0</ele><time>2026-04-18T09:23:10.876Z</time></trkpt><trkpt lat="42.7295688" lon="13.5787297"><ele>1113.3999999999999</ele><time>2026-04-18T09:23:11.875Z</time></trkpt><trkpt lat="42.7295085" lon="13.5788141"><ele>1115.8</ele><time>2026-04-18T09:23:12.876Z</time></trkpt><trkpt lat="42.7294394" lon="13.5789111"><ele>1118.1999999999998</ele><time>2026-04-18T09:23:13.876Z</time></trkpt><trkpt lat="42.729365" lon="13.5790179"><ele>1120.6</ele><time>2026-04-18T09:23:14.876Z</time></trkpt><trkpt lat="42.7292946" lon="13.5791198"><ele>1123.0</ele><time>2026-04-18T09:23:15.876Z</time></trkpt><trkpt lat="42.7292272" lon="13.5792197"><ele>1123.0</ele><time>2026-04-18T09:23:16.876Z</time></trkpt><trkpt lat="42.7291568" lon="13.5793246"><ele>1123.0</ele><time>2026-04-18T09:23:17.876Z</time></trkpt><trkpt lat="42.7290961" lon="13.5794353"><ele>1123.0</ele><time>2026-04-18T09:23:18.876Z</time></trkpt><trkpt lat="42.7290405" lon="13.5795435"><ele>1123.0</ele><time>2026-04-18T09:23:19.876Z</time></trkpt><trkpt lat="42.7289833" lon="13.5796381"><ele>1123.0</ele><time>2026-04-18T09:23:20.876Z</time></trkpt><trkpt lat="42.7289241" lon="13.5797304"><ele>1121.2</ele><time>2026-04-18T09:23:21.876Z</time></trkpt><trkpt lat="42.7288658" lon="13.5798375"><ele>1119.4</ele><time>2026-04-18T09:23:22.876Z</time></trkpt><trkpt lat="42.7288136" lon="13.5799577"><ele>1117.6000000000001</ele><time>2026-04-18T09:23:23.876Z</time></trkpt><trkpt lat="42.7287699" lon="13.5800951"><ele>1115.8</ele><time>2026-04-18T09:23:24.875Z</time></trkpt><trkpt lat="42.7287314" lon="13.5802356"><ele>1114.0</ele><time>2026-04-18T09:23:25.876Z</time></trkpt><trkpt lat="42.7286999" lon="13.5803677"><ele>1113.6000000000001</ele><time>2026-04-18T09:23:26.876Z</time></trkpt><trkpt lat="42.7286629" lon="13.5805034"><ele>1113.2</ele><time>2026-04-18T09:23:27.876Z</time></trkpt><trkpt lat="42.7286397" lon="13.5806243"><ele>1112.8000000000002</ele><time>2026-04-18T09:23:28.876Z</time></trkpt><trkpt lat="42.7286242" lon="13.5807409"><ele>1112.4</ele><time>2026-04-18T09:23:29.876Z</time></trkpt><trkpt lat="42.7286045" lon="13.5808645"><ele>1112.0</ele><time>2026-04-18T09:23:30.876Z</time></trkpt><trkpt lat="42.728583" lon="13.580976"><ele>1113.5</ele><time>2026-04-18T09:23:31.876Z</time></trkpt><trkpt lat="42.7285585" lon="13.5810708"><ele>1115.0</ele><time>2026-04-18T09:23:32.876Z</time></trkpt><trkpt lat="42.7285232" lon="13.5811734"><ele>1116.5</ele><time>2026-04-18T09:23:33.876Z</time></trkpt><trkpt lat="42.7284809" lon="13.5812793"><ele>1118.0</ele><time>2026-04-18T09:23:34.876Z</time></trkpt><trkpt lat="42.7284378" lon="13.5813729"><ele>1119.5</ele><time>2026-04-18T09:23:35.876Z</time></trkpt><trkpt lat="42.7283979" lon="13.5814462"><ele>1121.0</ele><time>2026-04-18T09:23:36.876Z</time></trkpt><trkpt lat="42.728356" lon="13.5815151"><ele>1121.0</ele><time>2026-04-18T09:23:37.876Z</time></trkpt><trkpt lat="42.7282627" lon="13.5816157"><ele>1121.0</ele><time>2026-04-18T09:23:39.875Z</time></trkpt><trkpt lat="42.7282072" lon="13.5816566"><ele>1121.0</ele><time>2026-04-18T09:23:40.876Z</time></trkpt><trkpt lat="42.7281417" lon="13.5817021"><ele>1121.0</ele><time>2026-04-18T09:23:41.876Z</time></trkpt><trkpt lat="42.7280774" lon="13.5817418"><ele>1121.0</ele><time>2026-04-18T09:23:42.875Z</time></trkpt><trkpt lat="42.728" lon="13.5817724"><ele>1121.0</ele><time>2026-04-18T09:23:43.876Z</time></trkpt><trkpt lat="42.7279165" lon="13.5817948"><ele>1121.0</ele><time>2026-04-18T09:23:44.876Z</time></trkpt><trkpt lat="42.7278514" lon="13.5818179"><ele>1121.0</ele><time>2026-04-18T09:23:45.876Z</time></trkpt><trkpt lat="42.7277901" lon="13.5818597"><ele>1121.0</ele><time>2026-04-18T09:23:46.876Z</time></trkpt><trkpt lat="42.7277071" lon="13.5819403"><ele>1121.0</ele><time>2026-04-18T09:23:47.876Z</time></trkpt><trkpt lat="42.7276255" lon="13.5819983"><ele>1121.0</ele><time>2026-04-18T09:23:48.876Z</time></trkpt><trkpt lat="42.7275561" lon="13.5820156"><ele>1121.0</ele><time>2026-04-18T09:23:49.876Z</time></trkpt><trkpt lat="42.7274874" lon="13.5820067"><ele>1122.8</ele><time>2026-04-18T09:23:50.876Z</time></trkpt><trkpt lat="42.7274182" lon="13.5819703"><ele>1124.6</ele><time>2026-04-18T09:23:51.876Z</time></trkpt><trkpt lat="42.7273505" lon="13.5818993"><ele>1126.4</ele><time>2026-04-18T09:23:52.876Z</time></trkpt><trkpt lat="42.7272729" lon="13.5817948"><ele>1128.2</ele><time>2026-04-18T09:23:53.876Z</time></trkpt><trkpt lat="42.7271922" lon="13.5816746"><ele>1130.0</ele><time>2026-04-18T09:23:54.876Z</time></trkpt><trkpt lat="42.7271401" lon="13.5815588"><ele>1130.0</ele><time>2026-04-18T09:23:55.876Z</time></trkpt><trkpt lat="42.7271153" lon="13.5814519"><ele>1130.0</ele><time>2026-04-18T09:23:56.875Z</time></trkpt><trkpt lat="42.7271028" lon="13.5813534"><ele>1130.0</ele><time>2026-04-18T09:23:57.876Z</time></trkpt><trkpt lat="42.7270989" lon="13.5812473"><ele>1130.0</ele><time>2026-04-18T09:23:58.876Z</time></trkpt><trkpt lat="42.7270985" lon="13.5811263"><ele>1130.0</ele><time>2026-04-18T09:23:59.875Z</time></trkpt><trkpt lat="42.7270903" lon="13.5810141"><ele>1130.0</ele><time>2026-04-18T09:24:00.876Z</time></trkpt><trkpt lat="42.7270688" lon="13.580921"><ele>1128.6666666666667</ele><time>2026-04-18T09:24:01.876Z</time></trkpt><trkpt lat="42.7270362" lon="13.5808233"><ele>1127.3333333333335</ele><time>2026-04-18T09:24:02.876Z</time></trkpt><trkpt lat="42.7269955" lon="13.5807285"><ele>1126.0</ele><time>2026-04-18T09:24:03.876Z</time></trkpt><trkpt lat="42.7269502" lon="13.580644"><ele>1124.6666666666667</ele><time>2026-04-18T09:24:04.876Z</time></trkpt><trkpt lat="42.7269016" lon="13.5805595"><ele>1123.3333333333333</ele><time>2026-04-18T09:24:05.876Z</time></trkpt><trkpt lat="42.7268572" lon="13.5804697"><ele>1122.0</ele><time>2026-04-18T09:24:06.876Z</time></trkpt><trkpt lat="42.7268202" lon="13.5803789"><ele>1125.3333333333333</ele><time>2026-04-18T09:24:07.876Z</time></trkpt><trkpt lat="42.7267843" lon="13.5802888"><ele>1128.6666666666667</ele><time>2026-04-18T09:24:08.876Z</time></trkpt><trkpt lat="42.7267449" lon="13.5802006"><ele>1132.0</ele><time>2026-04-18T09:24:09.875Z</time></trkpt><trkpt lat="42.7267028" lon="13.5801085"><ele>1135.3333333333335</ele><time>2026-04-18T09:24:10.876Z</time></trkpt><trkpt lat="42.7266606" lon="13.5800104"><ele>1138.6666666666667</ele><time>2026-04-18T09:24:11.875Z</time></trkpt><trkpt lat="42.7266175" lon="13.5799158"><ele>1142.0</ele><time>2026-04-18T09:24:12.876Z</time></trkpt><trkpt lat="42.7265744" lon="13.5798209"><ele>1142.0</ele><time>2026-04-18T09:24:13.876Z</time></trkpt><trkpt lat="42.7265281" lon="13.5797259"><ele>1142.0</ele><time>2026-04-18T09:24:14.875Z</time></trkpt><trkpt lat="42.7264831" lon="13.5796311"><ele>1142.0</ele><time>2026-04-18T09:24:15.876Z</time></trkpt><trkpt lat="42.7264393" lon="13.5795374"><ele>1142.0</ele><time>2026-04-18T09:24:16.876Z</time></trkpt><trkpt lat="42.7263966" lon="13.5794562"><ele>1142.0</ele><time>2026-04-18T09:24:17.876Z</time></trkpt><trkpt lat="42.7263107" lon="13.5793601"><ele>1142.0</ele><time>2026-04-18T09:24:19.876Z</time></trkpt><trkpt lat="42.7262059" lon="13.579335"><ele>1145.2</ele><time>2026-04-18T09:24:21.876Z</time></trkpt><trkpt lat="42.7261418" lon="13.5793453"><ele>1148.4</ele><time>2026-04-18T09:24:22.876Z</time></trkpt><trkpt lat="42.7260513" lon="13.5793793"><ele>1151.6</ele><time>2026-04-18T09:24:23.876Z</time></trkpt><trkpt lat="42.725934" lon="13.5794397"><ele>1154.8</ele><time>2026-04-18T09:24:24.875Z</time></trkpt><trkpt lat="42.7258222" lon="13.5794909"><ele>1158.0</ele><time>2026-04-18T09:24:25.876Z</time></trkpt><trkpt lat="42.7257376" lon="13.5795143"><ele>1158.0</ele><time>2026-04-18T09:24:26.876Z</time></trkpt><trkpt lat="42.7256667" lon="13.5795128"><ele>1158.0</ele><time>2026-04-18T09:24:27.876Z</time></trkpt><trkpt lat="42.7256007" lon="13.5794854"><ele>1158.0</ele><time>2026-04-18T09:24:28.876Z</time></trkpt><trkpt lat="42.72553" lon="13.5794334"><ele>1158.0</ele><time>2026-04-18T09:24:29.876Z</time></trkpt><trkpt lat="42.7254617" lon="13.5793613"><ele>1158.0</ele><time>2026-04-18T09:24:30.876Z</time></trkpt><trkpt lat="42.7253899" lon="13.5792662"><ele>1158.0</ele><time>2026-04-18T09:24:31.875Z</time></trkpt><trkpt lat="42.7253247" lon="13.5791612"><ele>1157.9999999999998</ele><time>2026-04-18T09:24:32.876Z</time></trkpt><trkpt lat="42.725279" lon="13.5790725"><ele>1158.0</ele><time>2026-04-18T09:24:33.876Z</time></trkpt><trkpt lat="42.7252427" lon="13.5789969"><ele>1158.0</ele><time>2026-04-18T09:24:34.876Z</time></trkpt><trkpt lat="42.7252139" lon="13.5789193"><ele>1158.0</ele><time>2026-04-18T09:24:35.876Z</time></trkpt><trkpt lat="42.7251911" lon="13.5788339"><ele>1158.0</ele><time>2026-04-18T09:24:36.876Z</time></trkpt><trkpt lat="42.7251717" lon="13.5787484"><ele>1157.9999999999998</ele><time>2026-04-18T09:24:37.876Z</time></trkpt><trkpt lat="42.7251444" lon="13.5786576"><ele>1158.0</ele><time>2026-04-18T09:24:38.876Z</time></trkpt><trkpt lat="42.7251147" lon="13.5785591"><ele>1160.5</ele><time>2026-04-18T09:24:39.876Z</time></trkpt><trkpt lat="42.7250713" lon="13.5784764"><ele>1163.0</ele><time>2026-04-18T09:24:40.875Z</time></trkpt><trkpt lat="42.7250271" lon="13.5784127"><ele>1165.5</ele><time>2026-04-18T09:24:41.875Z</time></trkpt><trkpt lat="42.72495" lon="13.5784129"><ele>1168.0</ele><time>2026-04-18T09:24:43.876Z</time></trkpt><trkpt lat="42.7248476" lon="13.5784597"><ele>1170.5</ele><time>2026-04-18T09:24:45.876Z</time></trkpt><trkpt lat="42.7247666" lon="13.5785647"><ele>1173.0</ele><time>2026-04-18T09:24:47.875Z</time></trkpt><trkpt lat="42.7246993" lon="13.5786206"><ele>1173.0</ele><time>2026-04-18T09:24:49.876Z</time></trkpt><trkpt lat="42.724648" lon="13.5785593"><ele>1173.0</ele><time>2026-04-18T09:24:51.876Z</time></trkpt><trkpt lat="42.7245706" lon="13.5784268"><ele>1173.0</ele><time>2026-04-18T09:24:53.876Z</time></trkpt><trkpt lat="42.7244755" lon="13.578363"><ele>1173.0</ele><time>2026-04-18T09:24:55.875Z</time></trkpt><trkpt lat="42.7243918" lon="13.5784104"><ele>1173.0</ele><time>2026-04-18T09:24:57.876Z</time></trkpt><trkpt lat="42.724343" lon="13.5784845"><ele>1174.6</ele><time>2026-04-18T09:24:58.876Z</time></trkpt><trkpt lat="42.7242718" lon="13.5785853"><ele>1176.1999999999998</ele><time>2026-04-18T09:24:59.876Z</time></trkpt><trkpt lat="42.7241868" lon="13.5786922"><ele>1177.8</ele><time>2026-04-18T09:25:00.876Z</time></trkpt><trkpt lat="42.7241156" lon="13.5787656"><ele>1179.3999999999999</ele><time>2026-04-18T09:25:01.876Z</time></trkpt><trkpt lat="42.724004" lon="13.578812"><ele>1181.0</ele><time>2026-04-18T09:25:03.876Z</time></trkpt><trkpt lat="42.7239269" lon="13.5787962"><ele>1181.0</ele><time>2026-04-18T09:25:05.875Z</time></trkpt><trkpt lat="42.723868" lon="13.5787608"><ele>1181.0</ele><time>2026-04-18T09:25:06.876Z</time></trkpt><trkpt lat="42.7238031" lon="13.5787284"><ele>1181.0</ele><time>2026-04-18T09:25:07.876Z</time></trkpt><trkpt lat="42.7237431" lon="13.5787019"><ele>1181.0</ele><time>2026-04-18T09:25:08.875Z</time></trkpt><trkpt lat="42.7236803" lon="13.5786751"><ele>1181.0</ele><time>2026-04-18T09:25:09.876Z</time></trkpt><trkpt lat="42.7236091" lon="13.5786448"><ele>1181.0</ele><time>2026-04-18T09:25:10.876Z</time></trkpt><trkpt lat="42.7235355" lon="13.5786148"><ele>1181.0</ele><time>2026-04-18T09:25:11.876Z</time></trkpt><trkpt lat="42.7234661" lon="13.5785928"><ele>1182.8333333333335</ele><time>2026-04-18T09:25:12.876Z</time></trkpt><trkpt lat="42.7233954" lon="13.5785716"><ele>1184.6666666666667</ele><time>2026-04-18T09:25:13.876Z</time></trkpt><trkpt lat="42.7233059" lon="13.5785503"><ele>1186.5</ele><time>2026-04-18T09:25:14.876Z</time></trkpt><trkpt lat="42.7232089" lon="13.5785192"><ele>1188.3333333333333</ele><time>2026-04-18T09:25:15.876Z</time></trkpt><trkpt lat="42.7231327" lon="13.5784854"><ele>1190.1666666666665</ele><time>2026-04-18T09:25:16.875Z</time></trkpt><trkpt lat="42.7230723" lon="13.5784504"><ele>1192.0</ele><time>2026-04-18T09:25:17.876Z</time></trkpt><trkpt lat="42.7230067" lon="13.5784096"><ele>1192.0</ele><time>2026-04-18T09:25:18.876Z</time></trkpt><trkpt lat="42.7229335" lon="13.5783705"><ele>1192.0</ele><time>2026-04-18T09:25:19.876Z</time></trkpt><trkpt lat="42.7228699" lon="13.5783572"><ele>1192.0</ele><time>2026-04-18T09:25:20.875Z</time></trkpt><trkpt lat="42.7228071" lon="13.578376"><ele>1192.0</ele><time>2026-04-18T09:25:21.876Z</time></trkpt><trkpt lat="42.7227454" lon="13.578411"><ele>1192.0</ele><time>2026-04-18T09:25:22.876Z</time></trkpt><trkpt lat="42.7226882" lon="13.5784514"><ele>1192.0</ele><time>2026-04-18T09:25:23.876Z</time></trkpt><trkpt lat="42.7226416" lon="13.5785879"><ele>1192.0</ele><time>2026-04-18T09:25:25.876Z</time></trkpt><trkpt lat="42.72261" lon="13.5787499"><ele>1189.0</ele><time>2026-04-18T09:25:27.876Z</time></trkpt><trkpt lat="42.722556" lon="13.5788732"><ele>1186.0</ele><time>2026-04-18T09:25:29.876Z</time></trkpt><trkpt lat="42.7224418" lon="13.5789146"><ele>1183.0</ele><time>2026-04-18T09:25:32.876Z</time></trkpt><trkpt lat="42.722372" lon="13.5789081"><ele>1180.0</ele><time>2026-04-18T09:25:33.876Z</time></trkpt><trkpt lat="42.7223079" lon="13.5788864"><ele>1177.0</ele><time>2026-04-18T09:25:34.875Z</time></trkpt><trkpt lat="42.7221844" lon="13.5788547"><ele>1177.0</ele><time>2026-04-18T09:25:36.875Z</time></trkpt><trkpt lat="42.7221146" lon="13.5788413"><ele>1177.0</ele><time>2026-04-18T09:25:37.876Z</time></trkpt><trkpt lat="42.7219893" lon="13.5788278"><ele>1177.0</ele><time>2026-04-18T09:25:39.876Z</time></trkpt><trkpt lat="42.7219112" lon="13.57883"><ele>1177.0</ele><time>2026-04-18T09:25:40.876Z</time></trkpt><trkpt lat="42.7218334" lon="13.5788422"><ele>1177.0</ele><time>2026-04-18T09:25:41.876Z</time></trkpt><trkpt lat="42.7217577" lon="13.5788561"><ele>1177.0</ele><time>2026-04-18T09:25:42.876Z</time></trkpt><trkpt lat="42.7216835" lon="13.5788666"><ele>1181.8</ele><time>2026-04-18T09:25:43.876Z</time></trkpt><trkpt lat="42.7215999" lon="13.5788799"><ele>1186.6</ele><time>2026-04-18T09:25:45.876Z</time></trkpt><trkpt lat="42.7215376" lon="13.578957"><ele>1191.3999999999999</ele><time>2026-04-18T09:25:47.876Z</time></trkpt><trkpt lat="42.7215428" lon="13.5791061"><ele>1196.2</ele><time>2026-04-18T09:25:50.876Z</time></trkpt><trkpt lat="42.721583" lon="13.5792661"><ele>1201.0</ele><time>2026-04-18T09:25:52.876Z</time></trkpt><trkpt lat="42.7216097" lon="13.5793473"><ele>1201.0</ele><time>2026-04-18T09:25:53.876Z</time></trkpt><trkpt lat="42.7216499" lon="13.5795036"><ele>1201.0</ele><time>2026-04-18T09:25:55.876Z</time></trkpt><trkpt lat="42.7216894" lon="13.5796664"><ele>1201.0</ele><time>2026-04-18T09:25:57.876Z</time></trkpt><trkpt lat="42.7216977" lon="13.5798393"><ele>1201.0</ele><time>2026-04-18T09:25:59.875Z</time></trkpt><trkpt lat="42.7216918" lon="13.5799263"><ele>1201.0</ele><time>2026-04-18T09:26:00.876Z</time></trkpt><trkpt lat="42.7216351" lon="13.5800255"><ele>1199.2</ele><time>2026-04-18T09:26:02.876Z</time></trkpt><trkpt lat="42.7215403" lon="13.5800445"><ele>1197.3999999999999</ele><time>2026-04-18T09:26:04.876Z</time></trkpt><trkpt lat="42.721422" lon="13.5799971"><ele>1195.6</ele><time>2026-04-18T09:26:06.875Z</time></trkpt><trkpt lat="42.7213464" lon="13.5799565"><ele>1193.8</ele><time>2026-04-18T09:26:07.876Z</time></trkpt><trkpt lat="42.7212607" lon="13.5799136"><ele>1192.0</ele><time>2026-04-18T09:26:08.876Z</time></trkpt><trkpt lat="42.7211771" lon="13.5798783"><ele>1192.0</ele><time>2026-04-18T09:26:09.876Z</time></trkpt><trkpt lat="42.7211071" lon="13.5798525"><ele>1192.0</ele><time>2026-04-18T09:26:10.876Z</time></trkpt><trkpt lat="42.7209827" lon="13.5798851"><ele>1192.0</ele><time>2026-04-18T09:26:12.876Z</time></trkpt><trkpt lat="42.7209222" lon="13.579927"><ele>1192.0</ele><time>2026-04-18T09:26:13.876Z</time></trkpt><trkpt lat="42.7208431" lon="13.580005"><ele>1192.0</ele><time>2026-04-18T09:26:14.875Z</time></trkpt><trkpt lat="42.7207667" lon="13.5800819"><ele>1191.2</ele><time>2026-04-18T09:26:15.876Z</time></trkpt><trkpt lat="42.7207002" lon="13.580156"><ele>1190.4</ele><time>2026-04-18T09:26:16.876Z</time></trkpt><trkpt lat="42.7206439" lon="13.5802238"><ele>1189.6</ele><time>2026-04-18T09:26:17.876Z</time></trkpt><trkpt lat="42.7205868" lon="13.5802707"><ele>1188.8</ele><time>2026-04-18T09:26:18.875Z</time></trkpt><trkpt lat="42.7204868" lon="13.5803451"><ele>1188.0</ele><time>2026-04-18T09:26:20.876Z</time></trkpt><trkpt lat="42.7203803" lon="13.5804202"><ele>1188.0</ele><time>2026-04-18T09:26:22.876Z</time></trkpt><trkpt lat="42.7202971" lon="13.5804858"><ele>1188.0</ele><time>2026-04-18T09:26:23.876Z</time></trkpt><trkpt lat="42.7201987" lon="13.5805635"><ele>1188.0</ele><time>2026-04-18T09:26:24.876Z</time></trkpt><trkpt lat="42.7201055" lon="13.5806362"><ele>1188.0</ele><time>2026-04-18T09:26:25.876Z</time></trkpt><trkpt lat="42.7200293" lon="13.5807068"><ele>1188.0</ele><time>2026-04-18T09:26:26.875Z</time></trkpt><trkpt lat="42.7199691" lon="13.5807618"><ele>1192.5</ele><time>2026-04-18T09:26:27.876Z</time></trkpt><trkpt lat="42.7199074" lon="13.5808126"><ele>1197.0</ele><time>2026-04-18T09:26:28.876Z</time></trkpt><trkpt lat="42.7198303" lon="13.5808794"><ele>1201.5</ele><time>2026-04-18T09:26:29.876Z</time></trkpt><trkpt lat="42.7197515" lon="13.5809395"><ele>1206.0</ele><time>2026-04-18T09:26:30.876Z</time></trkpt><trkpt lat="42.7196781" lon="13.5809963"><ele>1210.5</ele><time>2026-04-18T09:26:31.876Z</time></trkpt><trkpt lat="42.7196055" lon="13.5810478"><ele>1215.0</ele><time>2026-04-18T09:26:32.876Z</time></trkpt><trkpt lat="42.7195448" lon="13.5810921"><ele>1215.0</ele><time>2026-04-18T09:26:33.876Z</time></trkpt><trkpt lat="42.719478" lon="13.5811089"><ele>1215.0</ele><time>2026-04-18T09:26:34.876Z</time></trkpt><trkpt lat="42.7194083" lon="13.5811409"><ele>1215.0</ele><time>2026-04-18T09:26:35.876Z</time></trkpt><trkpt lat="42.7193398" lon="13.5811726"><ele>1215.0</ele><time>2026-04-18T09:26:36.876Z</time></trkpt><trkpt lat="42.7192809" lon="13.5812062"><ele>1215.0</ele><time>2026-04-18T09:26:37.876Z</time></trkpt><trkpt lat="42.7191531" lon="13.5812845"><ele>1215.0</ele><time>2026-04-18T09:26:39.876Z</time></trkpt><trkpt lat="42.7190871" lon="13.5813421"><ele>1215.5</ele><time>2026-04-18T09:26:40.876Z</time></trkpt><trkpt lat="42.7190309" lon="13.581397"><ele>1216.0</ele><time>2026-04-18T09:26:41.875Z</time></trkpt><trkpt lat="42.71895" lon="13.581498"><ele>1216.5</ele><time>2026-04-18T09:26:43.875Z</time></trkpt><trkpt lat="42.7189151" lon="13.5815762"><ele>1217.0</ele><time>2026-04-18T09:26:45.876Z</time></trkpt><trkpt lat="42.7189057" lon="13.5817096"><ele>1217.5</ele><time>2026-04-18T09:26:53.876Z</time></trkpt><trkpt lat="42.7189166" lon="13.581805"><ele>1218.0</ele><time>2026-04-18T09:27:02.876Z</time></trkpt><trkpt lat="42.7189219" lon="13.5819229"><ele>1219.1666666666667</ele><time>2026-04-18T09:27:07.895Z</time></trkpt><trkpt lat="42.7189434" lon="13.5820266"><ele>1220.3333333333333</ele><time>2026-04-18T09:27:09.876Z</time></trkpt><trkpt lat="42.7189768" lon="13.5821217"><ele>1221.5</ele><time>2026-04-18T09:27:10.876Z</time></trkpt><trkpt lat="42.7190207" lon="13.5822163"><ele>1222.6666666666665</ele><time>2026-04-18T09:27:11.875Z</time></trkpt><trkpt lat="42.7190751" lon="13.5822817"><ele>1223.8333333333333</ele><time>2026-04-18T09:27:12.876Z</time></trkpt><trkpt lat="42.7191846" lon="13.5823963"><ele>1225.0</ele><time>2026-04-18T09:27:14.875Z</time></trkpt><trkpt lat="42.7192645" lon="13.5824617"><ele>1225.0</ele><time>2026-04-18T09:27:15.876Z</time></trkpt><trkpt lat="42.7193188" lon="13.5825287"><ele>1225.0</ele><time>2026-04-18T09:27:16.876Z</time></trkpt><trkpt lat="42.7193666" lon="13.5827065"><ele>1225.0</ele><time>2026-04-18T09:27:18.876Z</time></trkpt><trkpt lat="42.7193789" lon="13.5828358"><ele>1225.0</ele><time>2026-04-18T09:27:19.875Z</time></trkpt><trkpt lat="42.7193882" lon="13.5829513"><ele>1225.0</ele><time>2026-04-18T09:27:20.876Z</time></trkpt><trkpt lat="42.7193971" lon="13.5830396"><ele>1223.0</ele><time>2026-04-18T09:27:21.876Z</time></trkpt><trkpt lat="42.7194698" lon="13.5831801"><ele>1221.0</ele><time>2026-04-18T09:27:23.876Z</time></trkpt><trkpt lat="42.7195378" lon="13.5832602"><ele>1219.0</ele><time>2026-04-18T09:27:24.876Z</time></trkpt><trkpt lat="42.7196216" lon="13.5833653"><ele>1217.0</ele><time>2026-04-18T09:27:25.876Z</time></trkpt><trkpt lat="42.7196916" lon="13.5834815"><ele>1215.0</ele><time>2026-04-18T09:27:26.876Z</time></trkpt><trkpt lat="42.7197613" lon="13.5835991"><ele>1217.0</ele><time>2026-04-18T09:27:27.876Z</time></trkpt><trkpt lat="42.7198157" lon="13.5836816"><ele>1219.0</ele><time>2026-04-18T09:27:28.875Z</time></trkpt><trkpt lat="42.7198987" lon="13.5837771"><ele>1221.0</ele><time>2026-04-18T09:27:30.876Z</time></trkpt><trkpt lat="42.719954" lon="13.5838514"><ele>1223.0</ele><time>2026-04-18T09:27:32.876Z</time></trkpt><trkpt lat="42.72" lon="13.583932"><ele>1225.0</ele><time>2026-04-18T09:27:34.876Z</time></trkpt><trkpt lat="42.7200385" lon="13.5840319"><ele>1227.0</ele><time>2026-04-18T09:27:35.876Z</time></trkpt><trkpt lat="42.7200696" lon="13.5841247"><ele>1227.0</ele><time>2026-04-18T09:27:36.875Z</time></trkpt><trkpt lat="42.7200721" lon="13.584282"><ele>1227.0</ele><time>2026-04-18T09:27:38.876Z</time></trkpt><trkpt lat="42.7199834" lon="13.5844247"><ele>1227.0</ele><time>2026-04-18T09:27:40.876Z</time></trkpt><trkpt lat="42.7199204" lon="13.5845285"><ele>1227.0</ele><time>2026-04-18T09:27:41.876Z</time></trkpt><trkpt lat="42.7198668" lon="13.5846159"><ele>1227.0</ele><time>2026-04-18T09:27:42.875Z</time></trkpt><trkpt lat="42.7198209" lon="13.5846876"><ele>1235.0</ele><time>2026-04-18T09:27:43.876Z</time></trkpt></trkseg></trk></gpx>